[[[{"header":{"parameterUnit":"kt","parameterCategory":2,"dx":1,"dy":1,"la1":29.587661999999998,"la2":31.0,"lo1":-88.76705300000003,"lo2":-86.6583820000003,"nx":115,"ny":88,"refTime":"2022-10-21T06:00:00:Z","depth":0,"parameterNumber":1,"parameterNumberName":"U-component_of_WINDS"},"data":[-9.3935,-9.3935,-9.3935,-9.3898,-9.3676,-9.263,-9.1567,-9.0436,-8.9092,-8.7975,-8.7291,-8.7057,-8.6854,-8.6691,-8.6691,-8.6263,-8.496,-8.3546,-8.1935,-8.0423,-7.9038,-7.7568,-7.6073,-7.4639,-7.2348,-7.0633,-6.9459,-6.9175,-6.8986,-6.8986,-6.8986,-6.8986,-6.8986,-6.8229,-6.6435,-6.4953,-6.3287,-6.1515,-5.9887,-5.8362,-5.7697,-5.6641,-5.5299,-5.4128,-5.2932,-5.1148,-4.8789,-4.5851,-4.4273,-4.2764,-4.1494,-4.0355,-4.0396,-4.0715,-4.0915,-4.0507,-4.1018,-4.2252,-4.1577,-3.8325,-3.5354,-3.2648,-3.0854,-3.0761,-3.0761,-3.0761,-3.0761,-3.0761,-3.0761,-3.0761,-3.038,-2.8664,-2.7245,-2.5844,-2.4718,-2.2547,-1.9426,-1.7243,-1.5818,-1.5528,-1.5528,-1.5528,-1.5528,-1.5528,-1.5528,-1.5528,-1.5528,-1.5528,-1.5528,-1.5528,-1.5528,-1.3665,-1.2001,-1.171,-1.1229,-1.0447,-0.9276,-0.606,-0.3426,-0.1862,0.0,0.0,0.0,0.0,0.0,0.0,0.0,0.2155,0.4691,0.7225,0.986,1.2205,1.4354,1.5528,1.5528,-9.3937,-9.3935,-9.3935,-9.3935,-9.3749,-9.2671,-9.2025,-9.1489,-8.9492,-8.8416,-8.8315,-8.8248,-8.7574,-8.7004,-8.6691,-8.656,-8.5902,-8.4335,-8.3119,-8.1738,-8.0291,-7.8676,-7.7202,-7.5925,-7.4124,-7.2321,-7.0297,-6.9492,-6.8986,-6.8986,-6.8986,-6.8986,-6.8952,-6.8888,-6.8136,-6.666,-6.4845,-6.3036,-6.0897,-5.9473,-5.8511,-5.7593,-5.6202,-5.5153,-5.4201,-5.3156,-5.0638,-4.8074,-4.5851,-4.4129,-4.229,-4.0917,-4.0396,-4.0661,-4.0946,-4.1634,-4.2073,-4.3223,-4.3321,-3.9911,-3.7025,-3.4451,-3.2035,-3.0867,-3.0761,-3.0761,-3.0761,-3.0761,-3.0761,-3.0761,-3.0761,-2.9905,-2.8676,-2.735,-2.6312,-2.4989,-2.1029,-1.7339,-1.6383,-1.5528,-1.5528,-1.5528,-1.5528,-1.5528,-1.5528,-1.5528,-1.5528,-1.5528,-1.5528,-1.5528,-1.5528,-1.4445,-1.3368,-1.2593,-1.1914,-1.1132,-1.0447,-0.7426,-0.5182,-0.284,0.0,0.0,0.0,0.0,0.0,0.0,0.0,0.0,0.4498,0.7225,0.9568,1.1618,1.3864,1.5528,1.5528,-9.4512,-9.4479,-9.4049,-9.3935,-9.3825,-9.3373,-9.2751,-9.2025,-9.1009,-9.0516,-9.038,-8.9092,-8.8163,-8.7768,-8.6896,-8.6625,-8.6362,-8.5058,-8.3776,-8.2264,-8.0653,-7.9403,-7.7835,-7.6268,-7.5026,-7.3376,-7.1234,-6.9711,-6.9112,-6.8986,-6.8986,-6.8986,-6.8986,-6.8952,-6.8669,-6.7146,-6.5612,-6.4778,-6.187,-6.0418,-5.9716,-5.782,-5.6226,-5.5568,-5.4591,-5.3493,-5.1387,-4.8974,-4.7489,-4.6156,-4.3641,-4.1772,-4.047,-4.0491,-4.1003,-4.1819,-4.2654,-4.3376,-4.2694,-4.0401,-3.7203,-3.4888,-3.257,-3.0959,-3.0867,-3.0761,-3.0761,-3.0761,-3.0761,-3.0761,-3.0761,-3.0761,-2.9628,-2.9059,-2.8305,-2.7828,-2.5177,-2.0458,-1.7243,-1.6287,-1.5625,-1.5625,-1.5528,-1.5528,-1.5528,-1.5528,-1.5528,-1.5528,-1.5528,-1.5528,-1.5528,-1.5135,-1.4838,-1.4258,-1.3477,-1.2598,-1.1526,-0.9568,-0.7423,-0.4986,0.0,0.0,0.0,0.0,0.0,0.0,0.0,0.0,0.2937,0.6348,0.8786,1.0933,1.3471,1.5528,1.5528,-9.5241,-9.4982,-9.4408,-9.4049,-9.3899,-9.3935,-9.3334,-9.2555,-9.2555,-9.2315,-9.1857,-9.0288,-8.9203,-8.8748,-8.7768,-8.7291,-8.6925,-8.5926,-8.4191,-8.2856,-8.1442,-8.0159,-7.8497,-7.7188,-7.5526,-7.3959,-7.2464,-7.1055,-6.9929,-6.9208,-6.8986,-6.8986,-6.8986,-6.8986,-6.8859,-6.8036,-6.6595,-6.5651,-6.3563,-6.2408,-6.1204,-5.8882,-5.6592,-5.5836,-5.5568,-5.4638,-5.2518,-5.0298,-4.96,-4.8328,-4.5423,-4.3131,-4.0842,-4.028,-4.0529,-4.1231,-4.2161,-4.292,-4.2528,-4.102,-3.8436,-3.6027,-3.3817,-3.2127,-3.0959,-3.0761,-3.0761,-3.0761,-3.0761,-3.0761,-3.0761,-3.0761,-3.0577,-3.0577,-3.0392,-3.0485,-3.0287,-2.4613,-1.8756,-1.7243,-1.6101,-1.5721,-1.5625,-1.5528,-1.5528,-1.5528,-1.5528,-1.5528,-1.5528,-1.5528,-1.5528,-1.5528,-1.5528,-1.5528,-1.5335,-1.4451,-1.2986,-1.1132,-0.8588,-0.6545,-0.45,0.0,0.0,0.0,0.0,0.0,0.0,0.0,0.1764,0.5179,0.7712,0.9957,1.2394,1.4844,1.5231,-9.5733,-9.5112,-9.4982,-9.4512,-9.3974,-9.3899,-9.3825,-9.3751,-9.3638,-9.3179,-9.2309,-9.1899,-9.0974,-8.993,-8.8633,-8.8095,-8.7653,-8.6727,-8.5289,-8.4171,-8.2625,-8.108,-7.9699,-7.8415,-7.6746,-7.5356,-7.3872,-7.2318,-7.0965,-6.9711,-6.8986,-6.8986,-6.8986,-6.8986,-6.8986,-6.8449,-6.7722,-6.6632,-6.545,-6.4248,-6.2887,-6.1093,-5.9062,-5.7106,-5.6324,-5.6056,-5.3932,-5.2587,-5.1771,-4.9692,-4.7609,-4.6015,-4.3423,-4.1514,-4.0796,-4.1213,-4.1876,-4.2635,-4.2591,-4.1525,-3.9568,-3.7778,-3.5518,-3.33,-3.1957,-3.1498,-3.1038,-3.0854,-3.0761,-3.0761,-3.0761,-3.0761,-3.0761,-3.0761,-3.0761,-3.0761,-3.0195,-2.7164,-2.197,-1.9147,-1.7716,-1.5625,-1.5528,-1.5528,-1.5528,-1.5528,-1.5528,-1.5528,-1.5528,-1.5528,-1.5528,-1.5528,-1.5528,-1.5528,-1.5528,-1.5141,-1.4064,-1.2205,-0.9463,-0.7127,-0.4988,0.0,0.0,0.0,0.0,0.0,0.0,0.0,0.1275,0.4302,0.6835,0.8981,1.1127,1.3574,1.4548,-9.6715,-9.6366,-9.5457,-9.4918,-9.4512,-9.4122,-9.3935,-9.3935,-9.3935,-9.3676,-9.3143,-9.2473,-9.1864,-9.1063,-8.9492,-8.8567,-8.8433,-8.7403,-8.6075,-8.477,-8.3743,-8.2099,-8.0686,-7.9369,-7.7828,-7.617,-7.4747,-7.3538,-7.1233,-6.9806,-6.9015,-6.9015,-6.8986,-6.8986,-6.8986,-6.8923,-6.8449,-6.7722,-6.6698,-6.5784,-6.4112,-6.2074,-6.0619,-5.8766,-5.6344,-5.5492,-5.4079,-5.2561,-5.1806,-5.0708,-4.8904,-4.7679,-4.6603,-4.3277,-4.1885,-4.0681,-4.1442,-4.2218,-4.2652,-4.16,-4.0813,-3.9232,-3.6563,-3.4542,-3.3391,-3.2676,-3.1943,-3.113,-3.0946,-3.0761,-3.0761,-3.0761,-3.0761,-3.0761,-3.0761,-3.0761,-2.9628,-2.8293,-2.5375,-2.1884,-1.9234,-1.6865,-1.5528,-1.5528,-1.5528,-1.5528,-1.5528,-1.5528,-1.5528,-1.5528,-1.5528,-1.5528,-1.5528,-1.5528,-1.5528,-1.5335,-1.4844,-1.3762,-1.0439,-0.7322,-0.5186,0.0,0.0,0.0,0.0,0.0,0.0,0.0,0.0687,0.3522,0.625,0.7809,0.9564,1.2103,1.387,-9.7571,-9.7276,-9.597,-9.5273,-9.5018,-9.4444,-9.4085,-9.3899,-9.3935,-9.3935,-9.3862,-9.299,-9.2751,-9.2473,-9.0471,-8.9776,-8.8945,-8.7927,-8.6586,-8.5497,-8.4698,-8.2809,-8.1343,-8.0109,-7.8488,-7.6927,-7.5631,-7.4476,-7.2518,-7.0391,-6.9649,-6.9141,-6.8986,-6.8986,-6.8986,-6.8986,-6.8923,-6.8484,-6.7693,-6.6726,-6.5317,-6.3175,-6.156,-5.9848,-5.7518,-5.5712,-5.4689,-5.3343,-5.2268,-5.1596,-5.009,-4.8973,-4.8766,-4.6086,-4.3058,-4.1369,-4.0987,-4.1418,-4.1959,-4.1617,-4.1088,-4.0108,-3.8459,-3.6517,-3.5878,-3.5159,-3.3482,-3.231,-3.159,-3.0946,-3.0761,-3.0761,-3.0761,-3.0761,-3.0761,-3.0669,-3.0392,-2.8967,-2.6697,-2.3493,-2.1228,-1.8764,-1.5818,-1.5528,-1.5528,-1.5528,-1.5528,-1.5528,-1.5528,-1.5528,-1.5528,-1.5528,-1.5528,-1.5528,-1.5528,-1.5528,-1.5528,-1.4935,-1.0827,-0.7322,-0.5767,0.0,0.0,0.0,0.0,0.0,0.0,0.0,0.0,0.2937,0.4693,0.625,0.8004,1.0545,1.2598,-9.809,-9.7324,-9.6503,-9.5763,-9.5145,-9.4982,-9.4512,-9.3935,-9.3935,-9.3935,-9.3935,-9.3787,-9.36,-9.345,-9.2473,-9.1737,-9.1229,-8.9334,-8.8331,-8.7423,-8.5917,-8.3775,-8.2203,-8.0817,-7.9268,-7.7835,-7.6609,-7.5716,-7.5122,-7.2804,-7.0573,-6.9554,-6.9146,-6.8986,-6.8986,-6.8986,-6.8986,-6.8986,-6.842,-6.7722,-6.6567,-6.4411,-6.2688,-6.0757,-5.8496,-5.6439,-5.4909,-5.3859,-5.2879,-5.2078,-5.1309,-5.0226,-4.9224,-4.8466,-4.5943,-4.365,-4.1751,-4.1485,-4.1648,-4.2801,-4.2288,-4.1114,-4.0538,-4.1007,-3.9891,-3.7365,-3.5788,-3.427,-3.257,-3.176,-3.0761,-3.0761,-3.0761,-3.0761,-3.0761,-3.0669,-3.0669,-2.9535,-2.756,-2.4916,-2.2557,-1.9808,-1.6673,-1.5528,-1.5528,-1.5528,-1.5528,-1.5528,-1.5528,-1.5528,-1.5528,-1.5528,-1.5528,-1.5528,-1.5528,-1.5528,-1.5528,-1.5528,-1.1414,-0.8393,-0.6838,0.0,0.0,0.0,0.0,0.0,0.0,0.0,0.0,0.0981,0.2546,0.4205,0.6348,0.8887,1.1326,-9.93,-9.809,-9.73,-9.6503,-9.5793,-9.5273,-9.4652,-9.4011,-9.3935,-9.3935,-9.3935,-9.3935,-9.3935,-9.3562,-9.2716,-9.215,-9.1948,-9.0299,-8.9444,-8.8315,-8.7254,-8.4955,-8.2983,-8.1573,-7.9896,-7.8367,-7.728,-7.6557,-7.5716,-7.4499,-7.269,-7.0694,-6.9463,-6.9271,-6.9049,-6.9049,-6.8986,-6.8986,-6.8986,-6.8576,-6.7592,-6.6011,-6.418,-6.2134,-5.9474,-5.6807,-5.4872,-5.3347,-5.2194,-5.1779,-5.1419,-5.1151,-5.0362,-4.9453,-4.7888,-4.6178,-4.4204,-4.1977,-4.1639,-4.2488,-4.2501,-4.1653,-4.2519,-4.2433,-4.1042,-3.9699,-3.8236,-3.64,-3.4542,-3.365,-3.2935,-3.0946,-3.0946,-3.0774,-3.0761,-3.0761,-3.0669,-3.0577,-2.8781,-2.5104,-2.2273,-1.9521,-1.6762,-1.6287,-1.5625,-1.5528,-1.5528,-1.5528,-1.5528,-1.5528,-1.5528,-1.5528,-1.5528,-1.5528,-1.5528,-1.5528,-1.5528,-1.5528,-1.2981,-0.9957,-0.8205,-0.5963,-0.3036,0.0,0.0,0.0,0.0,0.0,0.0,0.0,0.0,0.0,0.0,0.7127,0.9568,-9.9978,-9.8519,-9.772,-9.7106,-9.653,-9.5793,-9.5018,-9.4338,-9.4012,-9.3935,-9.3935,-9.3935,-9.3935,-9.3749,-9.3104,-9.2791,-9.2555,-9.1402,-9.0162,-8.9039,-8.7791,-8.5431,-8.3039,-8.1376,-8.0094,-7.8532,-7.7891,-7.7198,-7.632,-7.5526,-7.3983,-7.2202,-7.0724,-6.9835,-6.9679,-6.9112,-6.8986,-6.8986,-6.8986,-6.8923,-6.8761,-6.7081,-6.5423,-6.4262,-6.0543,-5.7997,-5.6507,-5.4114,-5.2854,-5.2268,-5.1583,-5.1468,-5.106,-5.0656,-4.9316,-4.7818,-4.5894,-4.3238,-4.2286,-4.1808,-4.2145,-4.2403,-4.2847,-4.3085,-4.2305,-4.1886,-4.0747,-3.903,-3.692,-3.5863,-3.5173,-3.3286,-3.2127,-3.1852,-3.1038,-3.0946,-3.0669,-3.0577,-2.9442,-2.5855,-2.303,-2.0476,-1.7909,-1.6962,-1.5908,-1.5528,-1.5528,-1.5528,-1.5528,-1.5528,-1.5528,-1.5528,-1.5528,-1.5528,-1.5528,-1.5528,-1.5528,-1.5225,-1.3368,-1.1206,-0.8876,-0.6451,0.0,0.0,0.0,0.0,0.0,0.0,0.0,0.0,0.0,0.0,0.0,0.6179,0.8411,-10.0127,-9.8574,-9.7779,-9.7395,-9.7228,-9.654,-9.5733,-9.4882,-9.4195,-9.3935,-9.3935,-9.3935,-9.3935,-9.3898,-9.3787,-9.36,-9.3334,-9.2595,-9.1446,-9.0047,-8.8463,-8.533,-8.2962,-8.1098,-7.9962,-7.8433,-7.7891,-7.7891,-7.7694,-7.666,-7.5186,-7.3488,-7.2058,-7.1085,-7.0965,-6.9711,-6.8986,-6.8986,-6.8986,-6.8986,-6.864,-6.7406,-6.6435,-6.5072,-6.2384,-5.9925,-5.8163,-5.5808,-5.4003,-5.3016,-5.2145,-5.173,-5.1535,-5.1218,-5.0453,-4.9041,-4.6933,-4.4871,-4.2993,-4.1886,-4.1561,-4.167,-4.2484,-4.3224,-4.3288,-4.2536,-4.144,-4.1494,-3.9382,-3.8148,-3.7188,-3.5952,-3.4722,-3.365,-3.2113,-3.1393,-3.0946,-3.0669,-2.9164,-2.6615,-2.4352,-2.2377,-1.9903,-1.7724,-1.6576,-1.5721,-1.5625,-1.5528,-1.5528,-1.5528,-1.5528,-1.5528,-1.5528,-1.5528,-1.5528,-1.5528,-1.5309,-1.4826,-1.3914,-1.2588,-1.0547,-0.7601,0.0,0.0,0.0,0.0,0.0,0.0,0.0,0.0,0.0,0.0,0.0,0.5606,0.7955,-10.1698,-10.0108,-9.8775,-9.7926,-9.7324,-9.6567,-9.5763,-9.4982,-9.4267,-9.3935,-9.3935,-9.3935,-9.3935,-9.3935,-9.3935,-9.3935,-9.3787,-9.3411,-9.2519,-9.121,-8.9428,-8.6967,-8.4258,-8.2051,-8.0245,-7.84,-7.7973,-7.7973,-7.7891,-7.748,-7.632,-7.4972,-7.3569,-7.2202,-7.1233,-6.9744,-6.8986,-6.8986,-6.8986,-6.8986,-6.8986,-6.8293,-6.7722,-6.5861,-6.4398,-6.2216,-5.9779,-5.7654,-5.5572,-5.4067,-5.2781,-5.2243,-5.1779,-5.1419,-5.1151,-5.0226,-4.8812,-4.6863,-4.4964,-4.3353,-4.205,-4.1466,-4.2012,-4.2593,-4.3268,-4.3344,-4.307,-4.3261,-4.1736,-4.0345,-4.0171,-3.8236,-3.6668,-3.4903,-3.3377,-3.1852,-3.1406,-3.0669,-2.9072,-2.7746,-2.6697,-2.5188,-2.2538,-1.9999,-1.8572,-1.6954,-1.6383,-1.5528,-1.5528,-1.5528,-1.5528,-1.5528,-1.5528,-1.5528,-1.5521,-1.5449,-1.539,-1.4898,-1.4542,-1.3529,-1.2094,-0.9059,0.0,0.0,0.0,0.0,0.0,0.0,0.0,0.0,0.0,0.0,0.0,0.4584,0.7074,-10.2986,-10.0818,-9.9903,-9.9165,-9.8635,-9.7252,-9.6394,-9.5822,-9.4818,-9.4302,-9.4338,-9.4012,-9.3935,-9.3935,-9.3935,-9.3935,-9.3935,-9.3935,-9.3104,-9.201,-9.0568,-8.8135,-8.5502,-8.2994,-8.1057,-7.9174,-7.817,-7.7973,-7.7973,-7.7793,-7.7147,-7.6371,-7.5026,-7.3538,-7.2027,-7.0754,-6.9649,-6.9271,-6.8986,-6.8986,-6.8986,-6.8952,-6.8449,-6.7053,-6.6017,-6.3869,-6.1808,-5.9422,-5.7366,-5.5528,-5.3836,-5.2991,-5.2316,-5.173,-5.1468,-5.1127,-4.9477,-4.8027,-4.6603,-4.5058,-4.3283,-4.2227,-4.1524,-4.1607,-4.2403,-4.3388,-4.3957,-4.3981,-4.3243,-4.2825,-4.2377,-4.0624,-3.8341,-3.6311,-3.4542,-3.2844,-3.1865,-3.0946,-2.9733,-2.9059,-2.82,-2.7152,-2.4718,-2.2178,-2.0094,-1.8101,-1.6673,-1.5528,-1.5528,-1.5528,-1.5528,-1.5528,-1.5528,-1.5528,-1.5508,-1.5397,-1.5279,-1.5207,-1.5128,-1.453,-1.3778,-1.0674,0.0,0.0,0.0,0.0,0.0,0.0,0.0,0.0,0.0,0.0,0.0,0.0,0.5159,-10.4091,-10.1229,-10.1117,-10.093,-10.0572,-9.8367,-9.7348,-9.7044,-9.5696,-9.5109,-9.5014,-9.4373,-9.4012,-9.3899,-9.3935,-9.3935,-9.3935,-9.3935,-9.3334,-9.2217,-9.0735,-8.8971,-8.6606,-8.3975,-8.1602,-8.0196,-7.8598,-7.8006,-7.7973,-7.7973,-7.7973,-7.7694,-7.6009,-7.4864,-7.3457,-7.1735,-7.036,-6.9649,-6.9049,-6.8986,-6.8986,-6.8986,-6.8923,-6.842,-6.7276,-6.6115,-6.5767,-6.2226,-5.9562,-5.8278,-5.5647,-5.3864,-5.28,-5.1999,-5.1535,-5.1285,-5.0022,-4.9316,-4.8466,-4.6933,-4.518,-4.3504,-4.2277,-4.162,-4.1724,-4.2801,-4.3502,-4.3684,-4.3943,-4.4197,-4.3958,-4.3016,-4.0712,-3.8518,-3.6489,-3.4888,-3.3726,-3.2374,-3.0577,-3.0195,-2.9245,-2.7828,-2.5667,-2.3021,-2.0848,-1.9243,-1.782,-1.5528,-1.5528,-1.5521,-1.5521,-1.5528,-1.5528,-1.5462,-1.5539,-1.5341,-1.5091,-1.4965,-1.4985,-1.488,-1.4584,-1.128,-0.7395,0.0,0.0,0.0,0.0,0.0,0.0,0.0,0.0,0.0,0.0,0.0,0.3165,-10.5474,-10.4577,-10.3305,-10.2014,-10.0667,-9.8367,-9.7432,-9.73,-9.6339,-9.594,-9.5733,-9.5112,-9.4408,-9.4048,-9.3899,-9.3935,-9.3935,-9.3935,-9.3676,-9.3186,-9.2102,-9.0598,-8.8408,-8.5442,-8.2977,-8.1538,-7.9334,-7.8104,-7.8006,-7.7973,-7.7973,-7.7842,-7.6557,-7.5558,-7.4421,-7.2804,-7.1174,-7.0421,-6.9617,-6.9112,-6.8986,-6.8986,-6.8986,-6.8859,-6.842,-6.7564,-6.6247,-6.4406,-6.1911,-6.0022,-5.7195,-5.5172,-5.3516,-5.236,-5.1681,-5.1352,-5.106,-5.0521,-4.9931,-4.8812,-4.7888,-4.6293,-4.4778,-4.2165,-4.1582,-4.1456,-4.2119,-4.3509,-4.3964,-4.4317,-4.4611,-4.4422,-4.2481,-4.0362,-3.8148,-3.7261,-3.5847,-3.2725,-3.0577,-3.0392,-2.9825,-2.849,-2.6989,-2.4153,-2.2083,-2.0476,-1.8292,-1.6004,-1.5521,-1.5611,-1.5618,-1.5528,-1.5436,-1.5341,-1.5255,-1.5071,-1.4787,-1.4642,-1.4741,-1.4565,-1.3902,-1.1324,-0.8083,-0.5294,0.0,0.0,0.0,0.0,0.0,0.0,0.0,0.0,0.0,0.0,0.1325,-10.6932,-10.6708,-10.4427,-10.2857,-10.1638,-9.9042,-9.7888,-9.772,-9.7069,-9.6726,-9.6593,-9.5911,-9.5112,-9.4444,-9.3975,-9.3899,-9.3935,-9.3935,-9.3899,-9.3602,-9.315,-9.2177,-9.0359,-8.7555,-8.4743,-8.2829,-8.0406,-7.8811,-7.8039,-7.7973,-7.7973,-7.7842,-7.7097,-7.6371,-7.5229,-7.3896,-7.2544,-7.1233,-7.0421,-6.9649,-6.9146,-6.8986,-6.8986,-6.8986,-6.8986,-6.842,-6.7434,-6.6726,-6.4501,-6.2647,-5.9164,-5.7119,-5.514,-5.3283,-5.1926,-5.1632,-5.1486,-5.1486,-5.1285,-4.9613,-4.8674,-4.7679,-4.5938,-4.3524,-4.2126,-4.1602,-4.1778,-4.2593,-4.3281,-4.3888,-4.4344,-4.4677,-4.3457,-4.1581,-3.8942,-3.7971,-3.6474,-3.3181,-3.0854,-3.0761,-3.0577,-3.0103,-2.9152,-2.6604,-2.4519,-2.2848,-2.0792,-1.8573,-1.7609,-1.6732,-1.6074,-1.591,-1.5591,-1.523,-1.4985,-1.4794,-1.4504,-1.4431,-1.4524,-1.4142,-1.3409,-1.1874,-0.8896,-0.6004,-0.3617,0.0,0.0,0.0,0.0,0.0,0.0,0.0,0.0,0.0,0.0,-10.8303,-10.7979,-10.4988,-10.3567,-10.2931,-10.0145,-9.8781,-9.848,-9.7786,-9.7525,-9.7479,-9.6699,-9.5999,-9.5301,-9.4583,-9.4012,-9.3899,-9.3935,-9.3935,-9.3935,-9.3749,-9.315,-9.1964,-8.9543,-8.6852,-8.4214,-8.1595,-7.9652,-7.8545,-7.8086,-7.7973,-7.7973,-7.7694,-7.7363,-7.6217,-7.5314,-7.4116,-7.188,-7.1203,-7.036,-6.93,-6.8986,-6.8986,-6.8986,-6.8986,-6.8859,-6.8513,-6.7499,-6.6247,-6.5334,-6.182,-5.9301,-5.7437,-5.4896,-5.3061,-5.2096,-5.1644,-5.1486,-5.1285,-5.0158,-4.9316,-4.8949,-4.7236,-4.5373,-4.3985,-4.2864,-4.1524,-4.1347,-4.2616,-4.3566,-4.3945,-4.445,-4.3798,-4.2135,-4.0258,-3.8942,-3.7365,-3.4241,-3.176,-3.1314,-3.0761,-3.0761,-3.0669,-2.8664,-2.6827,-2.515,-2.3311,-2.1495,-1.9988,-1.8242,-1.7274,-1.6748,-1.6391,-1.5243,-1.4741,-1.4497,-1.4299,-1.4234,-1.4148,-1.389,-1.3467,-1.2612,-0.9603,-0.734,-0.4973,0.0,0.0,0.0,0.0,0.0,0.0,0.0,0.0,0.0,0.0,-10.8463,-10.8129,-10.6222,-10.4651,-10.3231,-10.1229,-9.9716,-9.8707,-9.8366,-9.827,-9.8192,-9.7525,-9.7069,-9.6593,-9.555,-9.4479,-9.3935,-9.3899,-9.3935,-9.3935,-9.3898,-9.3825,-9.2831,-9.0809,-8.8196,-8.5585,-8.3071,-8.0814,-7.9482,-7.8488,-7.8086,-7.7973,-7.7973,-7.7694,-7.723,-7.6287,-7.4779,-7.3119,-7.1883,-7.0482,-6.9334,-6.8986,-6.8986,-6.8986,-6.8986,-6.8986,-6.8986,-6.8356,-6.7564,-6.6126,-6.4304,-6.2147,-5.946,-5.6771,-5.47,-5.3458,-5.2217,-5.1686,-5.1419,-5.0791,-5.0588,-5.0521,-4.9018,-4.8027,-4.6643,-4.4277,-4.2162,-4.158,-4.2294,-4.3034,-4.3623,-4.4374,-4.4451,-4.3549,-4.1927,-3.9979,-3.8148,-3.5593,-3.3027,-3.1827,-3.0946,-3.0669,-3.0459,-2.8918,-2.7741,-2.6061,-2.4307,-2.2608,-2.2089,-2.0249,-1.9234,-1.8346,-1.6496,-1.5245,-1.4517,-1.4293,-1.4135,-1.4082,-1.3963,-1.3792,-1.3534,-1.327,-1.1284,-0.9043,-0.6682,-0.4696,-0.2891,0.0,0.0,0.0,0.0,0.0,0.0,0.0,0.0,-10.8478,-10.8112,-10.6596,-10.4988,-10.3268,-10.1603,-10.0015,-9.8669,-9.852,-9.852,-9.8443,-9.8168,-9.7742,-9.7215,-9.6421,-9.5519,-9.4618,-9.4122,-9.3935,-9.3935,-9.3935,-9.3935,-9.3536,-9.197,-8.9415,-8.7029,-8.5366,-8.3543,-8.0846,-7.9435,-7.8502,-7.8102,-7.7973,-7.7973,-7.7661,-7.7047,-7.6009,-7.4562,-7.3062,-7.1589,-7.0177,-6.9271,-6.9049,-6.8986,-6.8986,-6.8986,-6.8986,-6.8986,-6.842,-6.745,-6.6077,-6.3918,-6.1725,-5.9591,-5.7883,-5.54,-5.3593,-5.2431,-5.1686,-5.1486,-5.1486,-5.1419,-5.0656,-4.9682,-4.8097,-4.6036,-4.363,-4.257,-4.2531,-4.2749,-4.3186,-4.4287,-4.4772,-4.4526,-4.2721,-4.1494,-4.0362,-3.6847,-3.4884,-3.356,-3.1907,-3.0669,-3.0367,-2.9665,-2.8477,-2.6992,-2.522,-2.4561,-2.4283,-2.3214,-2.2343,-2.0087,-1.6274,-1.5199,-1.4527,-1.4174,-1.3963,-1.3857,-1.3792,-1.3792,-1.362,-1.362,-1.2226,-1.0493,-0.8762,-0.6772,-0.4902,-0.2662,-0.1429,0.0,0.0,0.0,0.0,0.0,0.0,-10.8561,-10.8214,-10.6898,-10.5362,-10.3791,-10.2351,-10.0838,-9.9137,-9.9043,-9.8819,-9.8613,-9.852,-9.8131,-9.7698,-9.7502,-9.6699,-9.5519,-9.4582,-9.4122,-9.3899,-9.3935,-9.3935,-9.3787,-9.2746,-9.1009,-8.8883,-8.7825,-8.589,-8.2993,-8.0803,-7.9529,-7.8425,-7.8086,-7.7973,-7.7973,-7.7842,-7.6946,-7.5367,-7.4312,-7.2778,-7.1174,-7.0023,-6.9492,-6.8986,-6.8986,-6.8986,-6.8986,-6.8986,-6.8986,-6.8859,-6.7406,-6.5472,-6.3441,-6.2483,-6.0056,-5.6931,-5.4501,-5.2905,-5.1819,-5.1486,-5.1486,-5.1486,-5.1352,-5.0521,-4.9247,-4.7329,-4.5416,-4.3972,-4.3063,-4.2597,-4.2602,-4.4059,-4.4753,-4.4526,-4.3445,-4.2825,-4.2862,-3.9499,-3.5411,-3.4618,-3.246,-3.0656,-3.0396,-2.9916,-2.9082,-2.8006,-2.6701,-2.6129,-2.5811,-2.5301,-2.4421,-2.0867,-1.6683,-1.549,-1.4769,-1.447,-1.3963,-1.3963,-1.3792,-1.3792,-1.3792,-1.3792,-1.327,-1.1796,-1.0153,-0.8243,-0.6236,-0.4015,0.0,0.0,0.0,0.0,0.0,0.0,0.0,-10.8929,-10.8578,-10.8105,-10.7007,-10.5661,-10.5137,-10.3305,-10.0781,-10.0519,-9.9716,-9.8744,-9.852,-9.8444,-9.825,-9.772,-9.7348,-9.661,-9.5642,-9.4512,-9.4049,-9.3974,-9.3935,-9.3862,-9.3531,-9.2455,-9.1071,-9.0041,-8.7909,-8.4981,-8.2719,-8.0712,-7.9333,-7.8454,-7.7989,-7.7973,-7.7891,-7.728,-7.6029,-7.5314,-7.3983,-7.1794,-7.0935,-7.0084,-6.9367,-6.9112,-6.8986,-6.8986,-6.8986,-6.8986,-6.9015,-6.8732,-6.7159,-6.5119,-6.3319,-6.0767,-5.6776,-5.5133,-5.3593,-5.2365,-5.1728,-5.1619,-5.1486,-5.1486,-5.1218,-5.0656,-4.9018,-4.7144,-4.5474,-4.391,-4.2964,-4.2686,-4.3926,-4.4761,-4.48,-4.4715,-4.4526,-4.3965,-4.0619,-3.7065,-3.5653,-3.3286,-3.1142,-3.0619,-3.0008,-2.9658,-2.9155,-2.8288,-2.7614,-2.7275,-2.6664,-2.5086,-2.2136,-1.8517,-1.664,-1.6073,-1.5669,-1.4392,-1.4135,-1.3792,-1.3792,-1.3792,-1.3792,-1.362,-1.249,-1.1365,-0.928,-0.7253,-0.5371,0.0,0.0,0.0,0.0,0.0,0.0,0.0,-10.9158,-10.8653,-10.8551,-10.7489,-10.6092,-10.5923,-10.4539,-10.2388,-10.1304,-10.0444,-9.9753,-9.8838,-9.852,-9.8501,-9.8189,-9.7757,-9.7276,-9.6557,-9.5636,-9.4616,-9.4049,-9.3935,-9.3935,-9.3755,-9.3577,-9.2755,-9.1489,-8.9292,-8.6585,-8.41,-8.186,-7.9598,-7.8502,-7.8038,-7.7973,-7.794,-7.7463,-7.6812,-7.6113,-7.5101,-7.3395,-7.2113,-7.0664,-7.0238,-6.943,-6.8986,-6.8986,-6.8986,-6.8986,-6.8986,-6.8957,-6.7822,-6.5461,-6.4253,-6.1882,-5.8537,-5.6805,-5.5571,-5.3632,-5.2905,-5.2365,-5.1619,-5.1486,-5.1486,-5.106,-4.9726,-4.8166,-4.7074,-4.5574,-4.4221,-4.4059,-4.4483,-4.4496,-4.4734,-4.4885,-4.4904,-4.4326,-4.153,-3.8519,-3.669,-3.4024,-3.2067,-3.0342,-2.9395,-2.8918,-2.8775,-2.8021,-2.7608,-2.7385,-2.7139,-2.5679,-2.3839,-2.0188,-1.8317,-1.7791,-1.6685,-1.5569,-1.4728,-1.4221,-1.3792,-1.3792,-1.3792,-1.3792,-1.3534,-1.2926,-1.0751,-0.8638,-0.6854,0.0,0.0,0.0,0.0,0.0,0.0,0.0,-10.9331,-10.8864,-10.873,-10.7834,-10.6644,-10.6412,-10.5287,-10.3305,-10.1997,-10.1005,-10.0165,-9.908,-9.8557,-9.852,-9.8481,-9.825,-9.7757,-9.7324,-9.6699,-9.5273,-9.4374,-9.3937,-9.3935,-9.3935,-9.3864,-9.3541,-9.2542,-9.0783,-8.8471,-8.5939,-8.3115,-8.0644,-7.9395,-7.8232,-7.7989,-7.7973,-7.794,-7.7743,-7.6812,-7.6029,-7.5016,-7.3339,-7.1997,-7.0935,-7.0084,-6.943,-6.9112,-6.8986,-6.8986,-6.8986,-6.884,-6.7822,-6.5699,-6.5058,-6.2896,-5.9806,-5.8661,-5.7773,-5.5678,-5.4311,-5.319,-5.1752,-5.1486,-5.1486,-5.1352,-5.009,-4.9247,-4.8305,-4.7259,-4.6137,-4.565,-4.481,-4.4938,-4.5186,-4.5138,-4.4904,-4.4412,-4.2054,-3.9826,-3.8043,-3.5535,-3.2699,-3.0749,-2.953,-2.845,-2.8216,-2.7879,-2.7476,-2.7385,-2.7385,-2.6411,-2.536,-2.2792,-2.2091,-2.1065,-1.9026,-1.7426,-1.6003,-1.4643,-1.3792,-1.3792,-1.3792,-1.3792,-1.3792,-1.3792,-1.2324,-1.0071,-0.8138,-0.578,-0.3643,0.0,0.0,0.0,0.0,0.0,-10.9594,-10.9499,-10.8904,-10.8562,-10.8314,-10.8087,-10.6282,-10.3811,-10.3118,-10.1548,-9.9417,-9.8725,-9.852,-9.852,-9.852,-9.8501,-9.8366,-9.7779,-9.6906,-9.594,-9.4854,-9.3974,-9.3974,-9.3935,-9.3935,-9.3864,-9.3792,-9.2431,-9.0531,-8.8355,-8.5788,-8.3038,-8.0476,-7.9088,-7.8262,-7.7989,-7.794,-7.7891,-7.7562,-7.6946,-7.5873,-7.5069,-7.3619,-7.1997,-7.1204,-7.0451,-6.9492,-6.8986,-6.8986,-6.8986,-6.8986,-6.7648,-6.5583,-6.5118,-6.3045,-6.0016,-5.9072,-5.8751,-5.7478,-5.5482,-5.3425,-5.1952,-5.1552,-5.1486,-5.1419,-5.1151,-5.0318,-4.9041,-4.8466,-4.7824,-4.7046,-4.6639,-4.6434,-4.6106,-4.5501,-4.5045,-4.4326,-4.2142,-4.0168,-3.9816,-3.6054,-3.356,-3.1728,-2.9973,-2.819,-2.7957,-2.7723,-2.7437,-2.7385,-2.7385,-2.681,-2.6093,-2.582,-2.5453,-2.3404,-2.1119,-1.895,-1.677,-1.5071,-1.3792,-1.3792,-1.3792,-1.3792,-1.3792,-1.3792,-1.2754,-1.1041,-0.882,-0.6319,-0.4151,-0.17,0.0,0.0,0.0,0.0,-10.9752,-10.96,-10.9331,-10.9158,-10.8955,-10.8648,-10.7201,-10.5197,-10.3947,-10.2034,-10.009,-9.9006,-9.852,-9.852,-9.852,-9.852,-9.8557,-9.8229,-9.7631,-9.6778,-9.5733,-9.4753,-9.4049,-9.3935,-9.3935,-9.3935,-9.3899,-9.3006,-9.1504,-8.9896,-8.7399,-8.4646,-8.2159,-8.0281,-7.8881,-7.8311,-7.7973,-7.7973,-7.7891,-7.771,-7.6946,-7.6081,-7.4801,-7.4006,-7.2835,-7.1765,-7.039,-6.943,-6.8986,-6.8986,-6.8869,-6.7822,-6.5467,-6.5118,-6.3662,-6.0687,-6.0229,-6.0171,-5.9508,-5.7952,-5.5258,-5.2496,-5.2496,-5.2299,-5.1752,-5.1486,-5.1352,-5.0318,-5.0318,-4.9458,-4.8379,-4.8275,-4.7863,-4.6989,-4.6734,-4.571,-4.2925,-4.2747,-4.1906,-3.9414,-3.6547,-3.3807,-3.1821,-2.9375,-2.8134,-2.7697,-2.7528,-2.745,-2.7385,-2.7385,-2.7221,-2.6975,-2.6797,-2.5689,-2.3809,-2.1631,-1.9457,-1.7273,-1.5498,-1.3963,-1.3792,-1.3792,-1.3792,-1.3792,-1.3792,-1.3289,-1.1701,-0.9786,-0.7439,-0.4926,-0.197,0.0,0.0,0.0,0.0,-10.9901,-10.9738,-10.9664,-10.9506,-10.9269,-10.8943,-10.7833,-10.6169,-10.4298,-10.2487,-10.0763,-9.923,-9.852,-9.852,-9.852,-9.852,-9.852,-9.852,-9.8131,-9.7372,-9.6789,-9.5733,-9.4719,-9.4158,-9.3935,-9.3935,-9.3899,-9.3293,-9.2185,-9.0982,-8.8851,-8.5939,-8.392,-8.1803,-7.9699,-7.8767,-7.8262,-7.7989,-7.7973,-7.7891,-7.7743,-7.6761,-7.6081,-7.5631,-7.4562,-7.3345,-7.1824,-7.039,-6.9649,-7.0052,-6.957,-6.7848,-6.541,-6.471,-6.3489,-6.1516,-6.1166,-6.1166,-6.0884,-5.9624,-5.7048,-5.3425,-5.3464,-5.336,-5.2167,-5.1728,-5.1486,-5.1486,-5.1486,-5.0815,-4.9844,-4.988,-4.9326,-4.7927,-4.7815,-4.6515,-4.3466,-4.3259,-4.3111,-3.9991,-3.7423,-3.4851,-3.2533,-3.0073,-2.8245,-2.7671,-2.7398,-2.7385,-2.7385,-2.7385,-2.7385,-2.7385,-2.7208,-2.5924,-2.4318,-2.2049,-1.9878,-1.7612,-1.5833,-1.4307,-1.3878,-1.3878,-1.3792,-1.3792,-1.3792,-1.3792,-1.2394,-1.0259,-0.8773,-0.6816,0.0,0.0,0.0,0.0,0.0,-11.0024,-10.9984,-10.9742,-10.9649,-10.9583,-10.9316,-10.8125,-10.6259,-10.4476,-10.2679,-10.0821,-9.923,-9.852,-9.852,-9.852,-9.852,-9.852,-9.852,-9.8189,-9.7593,-9.7252,-9.6866,-9.5859,-9.4618,-9.4048,-9.3935,-9.3935,-9.3792,-9.3398,-9.218,-9.0138,-8.7718,-8.5915,-8.3395,-8.0607,-7.9497,-7.8874,-7.8199,-7.7989,-7.794,-7.7891,-7.7743,-7.7147,-7.582,-7.561,-7.4832,-7.3401,-7.2027,-7.1824,-7.2654,-7.0589,-6.8071,-6.5532,-6.3925,-6.2821,-6.1426,-6.1223,-6.1223,-6.0941,-5.997,-5.8012,-5.582,-5.4628,-5.3812,-5.336,-5.2233,-5.1486,-5.1486,-5.1486,-5.1419,-5.1261,-5.1254,-5.0685,-4.9684,-4.8405,-4.6717,-4.4062,-4.2939,-4.218,-4.0807,-3.9135,-3.6774,-3.3585,-3.1417,-2.9438,-2.8096,-2.7385,-2.7385,-2.7385,-2.7385,-2.7385,-2.7385,-2.7385,-2.6089,-2.4212,-2.2039,-1.9878,-1.7774,-1.6003,-1.4728,-1.3963,-1.3878,-1.3792,-1.3792,-1.3792,-1.3792,-1.2772,-1.0095,-0.8151,-0.6759,0.0,0.0,0.0,0.0,0.0,-11.0062,-10.9986,-10.9903,-10.9858,-10.9851,-10.9594,-10.8388,-10.6437,-10.4597,-10.2691,-10.0877,-9.9267,-9.852,-9.852,-9.852,-9.852,-9.852,-9.852,-9.8386,-9.811,-9.7676,-9.7276,-9.6804,-9.5332,-9.4408,-9.3975,-9.3935,-9.3935,-9.3864,-9.3256,-9.2038,-8.9992,-8.7904,-8.5512,-8.3326,-8.0826,-7.9407,-7.8888,-7.8344,-7.7973,-7.7973,-7.7973,-7.7661,-7.723,-7.7097,-7.632,-7.494,-7.4312,-7.4258,-7.4218,-7.2031,-6.8753,-6.5413,-6.3896,-6.2559,-6.1542,-6.1223,-6.1223,-6.1166,-6.0628,-5.9276,-5.6927,-5.582,-5.5096,-5.3786,-5.2431,-5.1552,-5.1486,-5.1486,-5.1486,-5.1486,-5.1486,-5.0933,-4.9844,-4.796,-4.6076,-4.4582,-4.2442,-4.1006,-4.0335,-3.8741,-3.6428,-3.4011,-3.1791,-2.9734,-2.7933,-2.7385,-2.7385,-2.7385,-2.7385,-2.7385,-2.7385,-2.7385,-2.6183,-2.4212,-2.2122,-1.9953,-1.8189,-1.6507,-1.5405,-1.4386,-1.4221,-1.3792,-1.3792,-1.3792,-1.3792,-1.3442,-1.0584,-0.8097,-0.6283,0.0,0.0,0.0,0.0,0.0,-11.0062,-11.0062,-11.0062,-11.0062,-10.9986,-10.9808,-10.8993,-10.745,-10.5064,-10.3223,-10.16,-9.9581,-9.8593,-9.8557,-9.852,-9.852,-9.852,-9.852,-9.852,-9.8425,-9.8048,-9.7653,-9.7167,-9.6056,-9.4982,-9.4338,-9.4012,-9.3935,-9.3935,-9.3899,-9.3077,-9.1435,-8.9246,-8.7237,-8.5087,-8.2272,-8.0088,-7.9554,-7.8781,-7.8214,-7.794,-7.7973,-7.7973,-7.7973,-7.794,-7.748,-7.6423,-7.6371,-7.6404,-7.632,-7.3896,-7.0462,-6.6473,-6.4129,-6.2588,-6.1426,-6.1223,-6.1223,-6.1223,-6.111,-6.02,-5.8456,-5.7439,-5.6376,-5.4755,-5.3255,-5.2101,-5.1552,-5.1486,-5.1486,-5.1486,-5.1486,-5.098,-4.9881,-4.7802,-4.6244,-4.4862,-4.254,-4.0811,-4.0013,-3.8803,-3.7081,-3.5029,-3.3852,-3.1791,-2.9276,-2.8491,-2.8096,-2.7618,-2.7385,-2.7385,-2.7385,-2.7126,-2.6525,-2.4814,-2.2872,-2.1129,-1.9616,-1.7774,-1.6344,-1.5413,-1.4814,-1.4135,-1.3792,-1.3792,-1.3706,-1.3356,-1.1726,-0.9324,-0.7227,-0.5089,0.0,0.0,0.0,0.0,-11.0062,-11.0062,-11.0062,-11.0062,-11.0024,-11.0024,-10.9816,-10.889,-10.5959,-10.4103,-10.3119,-10.0246,-9.879,-9.8594,-9.8557,-9.852,-9.852,-9.852,-9.852,-9.852,-9.8481,-9.8073,-9.7479,-9.662,-9.5793,-9.5047,-9.4303,-9.3937,-9.3935,-9.3864,-9.3221,-9.1615,-8.9974,-8.7903,-8.5489,-8.364,-8.1682,-8.0141,-7.9464,-7.8968,-7.8102,-7.794,-7.7973,-7.7973,-7.7973,-7.7891,-7.7842,-7.7793,-7.7743,-7.7612,-7.6184,-7.2968,-6.8121,-6.473,-6.2645,-6.1511,-6.1223,-6.1223,-6.1223,-6.1223,-6.1166,-6.0486,-5.9566,-5.798,-5.6349,-5.4654,-5.31,-5.1993,-5.1619,-5.1486,-5.1486,-5.1388,-5.085,-4.9808,-4.8486,-4.689,-4.522,-4.3505,-4.1882,-4.0379,-3.9808,-3.9031,-3.7483,-3.623,-3.4324,-3.1152,-3.0042,-2.9505,-2.7851,-2.7385,-2.7385,-2.7385,-2.7303,-2.6525,-2.5062,-2.3786,-2.2456,-2.1045,-1.9372,-1.7612,-1.6762,-1.6507,-1.5996,-1.3792,-1.3792,-1.3792,-1.3442,-1.276,-1.0369,-0.7568,-0.5488,0.0,0.0,0.0,0.0,-11.0062,-11.0062,-11.0062,-11.0062,-11.0062,-11.0062,-10.9858,-10.9242,-10.6056,-10.4386,-10.3438,-10.0462,-9.89,-9.8785,-9.8593,-9.852,-9.852,-9.852,-9.852,-9.852,-9.852,-9.8443,-9.8052,-9.7372,-9.662,-9.5822,-9.5047,-9.4373,-9.3974,-9.3935,-9.3577,-9.2935,-9.0439,-8.8763,-8.7549,-8.4626,-8.2727,-8.1756,-8.0306,-7.9373,-7.8981,-7.8311,-7.7973,-7.794,-7.7973,-7.7973,-7.7973,-7.7973,-7.7973,-7.7743,-7.6474,-7.3986,-7.0295,-6.5822,-6.2686,-6.1449,-6.1223,-6.1223,-6.1223,-6.1223,-6.1223,-6.1166,-5.9826,-5.8751,-5.8039,-5.5473,-5.385,-5.2995,-5.2233,-5.1486,-5.1364,-5.0777,-4.9629,-4.7978,-4.7368,-4.6502,-4.5092,-4.3953,-4.2427,-4.0623,-4.0109,-3.9088,-3.7406,-3.7098,-3.495,-3.1072,-3.0511,-2.9653,-2.7933,-2.7385,-2.7385,-2.7385,-2.7385,-2.6348,-2.498,-2.5322,-2.4921,-2.3476,-2.1872,-1.9869,-1.8697,-1.8772,-1.7842,-1.4978,-1.3792,-1.3792,-1.362,-1.319,-1.0925,-0.7783,-0.5503,-0.3372,0.0,0.0,0.0,-11.0062,-11.0062,-11.0062,-11.0062,-11.0062,-11.0062,-10.9942,-10.9414,-10.6153,-10.4577,-10.3727,-10.0651,-9.9081,-9.8943,-9.8758,-9.8666,-9.8538,-9.852,-9.852,-9.852,-9.852,-9.852,-9.8481,-9.7742,-9.7093,-9.654,-9.555,-9.4651,-9.3974,-9.3935,-9.3935,-9.34,-9.0795,-8.9226,-8.8549,-8.5455,-8.3358,-8.2838,-8.1114,-7.9911,-7.9418,-7.8469,-7.8183,-7.8469,-7.815,-7.7973,-7.7973,-7.7973,-7.7973,-7.7973,-7.7014,-7.5204,-7.2251,-6.8468,-6.5136,-6.2445,-6.2027,-6.178,-6.1335,-6.1223,-6.1223,-6.1166,-6.0229,-5.9566,-5.8633,-5.6988,-5.541,-5.4654,-5.3295,-5.2483,-5.2211,-5.0978,-4.9342,-4.7731,-4.6974,-4.6245,-4.5109,-4.4226,-4.3075,-4.144,-4.0589,-3.9916,-3.8579,-3.8097,-3.6677,-3.3521,-3.2095,-3.0846,-2.9114,-2.7769,-2.7385,-2.7385,-2.7385,-2.688,-2.5157,-2.6607,-2.7031,-2.5582,-2.4046,-2.1965,-2.0551,-2.0541,-1.8096,-1.5149,-1.3963,-1.3792,-1.3792,-1.3276,-1.1468,-0.8334,-0.5614,-0.334,-0.0798,0.0,0.0,-11.0062,-11.0062,-11.0062,-11.0062,-11.0062,-11.0062,-11.0024,-10.9759,-10.6418,-10.4849,-10.4178,-10.0963,-9.931,-9.8979,-9.8976,-9.8801,-9.8613,-9.8557,-9.852,-9.852,-9.852,-9.852,-9.8501,-9.7823,-9.7395,-9.7204,-9.5962,-9.4885,-9.4049,-9.3937,-9.3935,-9.3721,-9.076,-8.9226,-8.8798,-8.6088,-8.4036,-8.3173,-8.1957,-8.0863,-7.9778,-7.8753,-7.8626,-7.9224,-7.8564,-7.8038,-7.7973,-7.7973,-7.7973,-7.7973,-7.7759,-7.6415,-7.3689,-7.1999,-6.8729,-6.4308,-6.3449,-6.2731,-6.1585,-6.1279,-6.1223,-6.1223,-6.111,-6.0572,-5.9334,-5.872,-5.7833,-5.6595,-5.4897,-5.3894,-5.3846,-5.1569,-4.9641,-4.8537,-4.7365,-4.6085,-4.504,-4.4409,-4.3551,-4.2521,-4.1896,-4.1147,-4.0277,-4.011,-3.8708,-3.6755,-3.4794,-3.2682,-3.054,-2.8559,-2.7618,-2.7385,-2.7385,-2.7385,-2.7385,-2.7385,-2.7385,-2.6772,-2.5417,-2.3809,-2.2811,-2.139,-1.8189,-1.5569,-1.4471,-1.3792,-1.3792,-1.3018,-1.1548,-0.9639,-0.6949,-0.3396,-0.0703,0.0,0.0,-11.0062,-11.0062,-11.0062,-11.0062,-11.0062,-11.0062,-11.0062,-10.9607,-10.6456,-10.4936,-10.4472,-10.1083,-9.9447,-9.9349,-9.9252,-9.907,-9.8794,-9.861,-9.852,-9.852,-9.852,-9.852,-9.852,-9.829,-9.7968,-9.7432,-9.6906,-9.602,-9.4785,-9.4231,-9.3935,-9.3471,-9.076,-8.9226,-8.8905,-8.612,-8.4415,-8.4036,-8.3066,-8.2346,-8.1957,-8.0939,-8.0044,-7.9509,-7.9224,-7.8687,-7.7989,-7.7973,-7.7973,-7.794,-7.6953,-7.5545,-7.3706,-7.13,-6.889,-6.6384,-6.4481,-6.3213,-6.2839,-6.1807,-6.1223,-6.1223,-6.1223,-6.1054,-6.0486,-5.9508,-5.872,-5.7965,-5.606,-5.432,-5.3591,-5.0989,-4.8862,-4.7747,-4.6328,-4.5342,-4.504,-4.5593,-4.4948,-4.3079,-4.3086,-4.3028,-4.2028,-4.0897,-3.9429,-3.7312,-3.5123,-3.2904,-3.0846,-2.887,-2.7467,-2.7385,-2.7385,-2.7385,-2.7385,-2.7385,-2.7385,-2.7126,-2.7044,-2.5429,-2.3238,-2.2822,-2.0709,-1.5988,-1.4557,-1.3792,-1.3792,-1.3792,-1.2926,-1.1446,-0.8844,-0.5038,-0.0873,0.0,0.0,-10.9942,-11.0024,-11.0062,-11.0062,-11.0062,-11.0062,-10.9607,-10.8772,-10.6076,-10.4557,-10.3608,-10.0973,-9.961,-9.956,-9.9386,-9.9201,-9.8943,-9.8681,-9.852,-9.852,-9.852,-9.852,-9.852,-9.852,-9.8309,-9.7867,-9.7525,-9.6906,-9.597,-9.4918,-9.4195,-9.3615,-9.076,-8.9226,-8.8976,-8.6122,-8.4516,-8.4552,-8.354,-8.3247,-8.3432,-8.2539,-8.1397,-8.035,-7.9744,-7.8981,-7.8053,-7.7973,-7.7677,-7.7084,-7.6247,-7.4899,-7.2893,-7.1199,-6.9612,-6.8036,-6.5576,-6.3682,-6.2569,-6.1725,-6.1223,-6.1223,-6.1223,-6.1223,-6.1166,-5.9912,-5.8803,-5.8177,-5.6473,-5.5025,-5.4209,-5.1698,-4.9432,-4.8188,-4.6769,-4.5616,-4.5035,-4.5893,-4.6047,-4.4314,-4.4686,-4.4733,-4.303,-4.1826,-4.0353,-3.8479,-3.6385,-3.434,-3.211,-3.0218,-2.8721,-2.7782,-2.7385,-2.7385,-2.7385,-2.7385,-2.7385,-2.7385,-2.7385,-2.7126,-2.5264,-2.485,-2.2727,-1.6831,-1.4978,-1.3878,-1.3878,-1.3792,-1.3362,-1.1624,-0.9021,-0.5643,-0.096,0.0,0.0,-11.017,-11.0213,-11.0328,-11.0252,-11.029,-11.01,-10.9075,-10.7405,-10.5696,-10.3988,-10.2165,-10.0609,-9.98,-9.9541,-9.9417,-9.9218,-9.8976,-9.8712,-9.8576,-9.8538,-9.852,-9.852,-9.852,-9.852,-9.852,-9.8462,-9.783,-9.7442,-9.7167,-9.5815,-9.4751,-9.3692,-9.0796,-8.9119,-8.8655,-8.6049,-8.4516,-8.4552,-8.3612,-8.3576,-8.4449,-8.3647,-8.2574,-8.1314,-8.0219,-7.912,-7.7989,-7.7841,-7.715,-7.5951,-7.5524,-7.4175,-7.1919,-7.1348,-7.0657,-6.9211,-6.7007,-6.4552,-6.2158,-6.1412,-6.1099,-6.0932,-6.0758,-6.0758,-6.0699,-5.9624,-5.8458,-5.7387,-5.6138,-5.5302,-5.5266,-5.2985,-5.0887,-4.9638,-4.8217,-4.687,-4.5906,-4.6303,-4.6719,-4.6222,-4.6771,-4.6156,-4.3795,-4.2838,-4.19,-3.9959,-3.7867,-3.5902,-3.4167,-3.2349,-3.0393,-2.8491,-2.7782,-2.7782,-2.7385,-2.7385,-2.7385,-2.7385,-2.7385,-2.7208,-2.6962,-2.6538,-2.4921,-1.7842,-1.5576,-1.43,-1.4049,-1.3792,-1.3104,-1.1801,-0.9108,-0.5816,-0.2091,0.0,0.0,-11.2742,-11.1677,-11.1879,-11.1961,-11.1885,-11.0556,-10.9075,-10.7367,-10.5696,-10.3266,-10.0685,-10.0115,-9.9887,-9.9766,-9.9579,-9.9425,-9.9218,-9.8962,-9.8725,-9.8557,-9.852,-9.852,-9.852,-9.852,-9.852,-9.852,-9.8386,-9.7968,-9.7324,-9.6458,-9.555,-9.4493,-9.1078,-8.8619,-8.7406,-8.5515,-8.4516,-8.4516,-8.4313,-8.4313,-8.4516,-8.4347,-8.3252,-8.1438,-8.0955,-7.9979,-7.802,-7.6887,-7.6115,-7.5768,-7.3696,-7.2215,-7.1557,-7.0394,-6.9561,-6.9266,-6.8649,-6.7599,-6.5923,-6.3123,-6.056,-5.8564,-5.837,-5.837,-5.8254,-5.7149,-5.6276,-5.5956,-5.4872,-5.4145,-5.3938,-5.2569,-5.1349,-5.1017,-4.9487,-4.8404,-4.8393,-4.8744,-4.9257,-4.9931,-4.906,-4.7453,-4.5358,-4.3693,-4.2102,-4.0317,-3.8268,-3.6849,-3.598,-3.3379,-3.1327,-3.0137,-2.9828,-2.9195,-2.77,-2.7385,-2.7385,-2.7385,-2.7385,-2.7385,-2.7126,-2.5841,-2.2372,-1.7171,-1.5747,-1.5662,-1.4221,-1.3792,-1.3534,-1.284,-0.9625,-0.6682,-0.5038,-0.2525,0.0,-11.3903,-11.3306,-11.3585,-11.3707,-11.3631,-11.272,-11.0518,-10.7367,-10.4899,-10.2317,-10.0001,-9.9888,-9.9888,-9.9888,-9.9651,-9.9485,-9.9379,-9.9081,-9.884,-9.8729,-9.8594,-9.852,-9.852,-9.852,-9.852,-9.852,-9.852,-9.8309,-9.7867,-9.7155,-9.6339,-9.5472,-9.3157,-9.061,-8.7976,-8.5694,-8.4516,-8.4514,-8.2412,-8.1374,-8.1341,-8.0628,-7.9234,-7.7178,-7.8515,-7.7866,-7.5106,-7.4288,-7.3235,-7.1841,-7.0373,-6.9474,-6.9485,-6.8685,-6.852,-6.9134,-6.8029,-6.6802,-6.555,-6.232,-5.957,-5.7714,-5.7579,-5.7085,-5.5862,-5.5134,-5.4677,-5.4669,-5.4086,-5.3621,-5.3572,-5.295,-5.2196,-5.1583,-5.0471,-5.0048,-5.0603,-5.0279,-5.0264,-5.1224,-5.0588,-4.8812,-4.6015,-4.4778,-4.3204,-4.0486,-3.9201,-3.7926,-3.6926,-3.5201,-3.3379,-3.1392,-3.0686,-2.9653,-2.7851,-2.7385,-2.7385,-2.7385,-2.7385,-2.7385,-2.729,-2.6607,-2.2977,-1.7596,-1.6847,-1.6677,-1.4307,-1.3792,-1.3792,-1.3448,-1.0143,-0.7461,-0.6506,-0.3305,0.0,-11.4729,-11.4784,-11.5168,-11.5263,-11.5036,-11.4542,-11.1733,-10.7329,-10.4709,-10.2279,-10.0229,-10.0039,-9.9888,-9.9888,-9.9664,-9.9545,-9.9517,-9.9201,-9.8979,0.0,-9.8712,-9.8594,-9.8538,-9.852,-9.852,-9.852,-9.852,-9.852,-9.8444,-9.7482,-9.6674,-9.5935,-9.4688,-9.23,-8.9042,-8.6047,-8.4479,-8.4124,-8.0235,-7.834,-7.8523,-7.7239,-7.5243,-7.2648,-7.529,-7.4925,-7.0967,-7.0845,-6.9452,-6.635,-6.5758,-6.5569,-6.5569,-6.5199,-6.6054,-6.7679,-6.5801,-6.4135,-6.3297,-6.0758,-5.8816,-5.7896,-5.7293,-5.6008,-5.365,-5.3708,-5.3853,-5.365,-5.3883,-5.3853,-5.3679,-5.3804,-5.3424,-5.2365,-5.1943,-5.2054,-5.2917,-5.1604,-5.0786,-5.1455,-5.1486,-4.9999,-4.6933,-4.5851,-4.4273,-4.1345,-4.011,-3.9353,-3.8021,-3.7389,-3.5808,-3.2904,-3.1472,-3.0137,-2.8572,-2.77,-2.7385,-2.7385,-2.7385,-2.7385,-2.7385,-2.7208,-2.5429,-2.0625,-1.9279,-1.7604,-1.4471,-1.3792,-1.362,-1.2926,-0.9884,-0.6939,-0.6163,-0.2959,0.0,-11.7186,-11.6262,-11.6566,-11.6068,-11.4846,-11.2075,-10.9607,-10.7557,0.0,0.0,0.0,-10.0533,-9.9888,-9.9888,-9.9848,-9.9714,-9.9527,-9.948,-9.9271,-9.8958,-9.8885,-9.8758,-9.8538,-9.852,-9.852,-9.852,-9.852,-9.852,-9.8482,-9.6367,-9.524,-9.4753,-9.1063,-8.88,-8.7999,-8.5739,-8.3943,-8.2661,-8.1805,-8.2019,-8.3265,-8.3018,-7.9818,-7.3392,-7.5635,-7.3785,-6.7224,-6.7508,-6.5956,-6.1944,-5.9549,-5.8266,-5.8233,-5.7078,-5.8061,-6.1747,-6.1716,-6.1812,-6.2727,-6.0463,-5.896,-5.9005,-5.6093,-5.3679,-5.2194,-5.4008,-5.4822,-5.3708,-5.4589,-5.4793,-5.3766,-5.461,-5.5128,-5.4954,-5.5469,-5.5734,-5.5578,-5.4175,-5.2498,-5.1679,-5.1486,-5.0564,-4.8305,-4.6674,-4.4778,-4.2617,-4.0972,-3.9808,-3.9581,-3.9335,-3.825,-3.5513,-3.3852,-3.2269,-3.0298,-2.8721,-2.7454,-2.7467,-2.7385,-2.7385,-2.7385,-2.7385,-2.6962,-2.5098,-2.2561,-1.8772,-1.4892,-1.3792,-1.319,-1.1451,-0.8848,-0.6423,-0.4431,-0.1917,0.0,-11.702,0.0,-11.5798,-11.5283,0.0,-11.2997,-11.0378,-10.7303,-10.7402,-10.5582,-10.2355,-10.0685,-9.9888,-9.9888,-9.9888,-9.9847,-9.9712,-9.9595,-9.9411,-9.9205,-9.9019,-9.8893,-9.8763,-9.8612,-9.8127,-9.7323,-9.8146,-9.7716,-9.6052,-9.5596,-9.4433,-9.2397,-9.008,-8.6985,-8.3178,-8.3595,-8.3123,-8.1542,-8.042,-8.0235,-8.0981,-8.0267,-7.7826,-7.3836,0.0,0.0,0.0,0.0,0.0,0.0,0.0,0.0,0.0,0.0,0.0,-5.7013,-5.3199,-5.0835,-5.089,-4.9123,-4.902,-5.1317,-4.9393,-4.7767,-4.7123,-5.0494,-5.1827,-5.0011,-5.2747,-5.4872,-5.5542,-5.6182,-5.6567,-5.6522,-5.6038,-5.6627,-5.8028,-5.5196,-5.2431,-5.1619,-5.1486,-5.0791,-4.8812,-4.6885,-4.4922,-4.3037,-4.1177,-4.0053,-4.0072,-4.0072,-3.9656,-3.8174,-3.6445,-3.4167,-3.1217,-2.9505,-2.8721,-2.7618,-2.7385,-2.7385,-2.7385,-2.7385,-2.6525,-2.4246,-2.2227,-1.9185,-1.4978,-1.3792,-1.3098,-1.0848,-0.8585,-0.599,-0.2438,-0.0785,0.0,-11.5716,-11.5644,-11.4507,-11.3981,-11.3905,-11.364,-11.1257,-10.7497,-10.6409,-10.4975,-10.3266,-10.1292,-10.0191,-9.9926,-9.9584,-9.9318,-9.8976,-9.8758,-9.8639,-9.8574,-9.8287,-9.8101,-9.8003,-9.7791,-9.6891,-9.5715,-9.6912,-9.6201,-9.3491,-9.4594,-9.3491,-9.0273,-8.9773,-8.6247,-8.0085,0.0,0.0,0.0,-7.915,-7.8764,-7.8984,-7.7723,-7.5897,-7.3641,-7.4438,0.0,-6.9636,-6.7824,-6.584,-6.3424,-6.1879,0.0,0.0,0.0,0.0,0.0,0.0,0.0,0.0,0.0,0.0,0.0,-4.2519,-4.3115,-4.4887,-4.7211,-4.7406,-4.4585,-5.014,-5.4407,-5.5309,-5.6364,-5.7236,-5.7445,-5.598,-5.6276,-5.954,-5.5384,-5.1794,-5.1552,-5.1486,-5.0858,-4.9316,-4.7096,-4.5065,-4.3548,-4.14,-4.0129,-4.0072,-4.0072,-4.0072,-3.9902,-3.8574,-3.5963,-3.1776,-3.0751,-2.9572,-2.8014,-2.7385,-2.7385,-2.7385,-2.7126,-2.5252,-2.1641,-2.0205,-1.8612,-1.4643,-1.3792,-1.3012,-1.032,-0.8326,-0.5559,0.0,0.0,0.0,-11.3828,-11.4047,-11.3831,-11.3096,-11.1871,-11.0499,-10.9667,-10.9318,-10.937,-10.843,-10.6645,-10.3494,-10.1292,-9.985,-9.8483,-9.7078,-9.5711,-9.5634,-9.5503,-9.5274,-9.5239,-9.4958,-9.4526,-9.4508,-9.4238,-9.3846,-9.4033,-9.3921,-9.3472,-9.235,-9.1567,-9.0954,-8.8965,-8.676,-8.4353,-8.3339,-8.1137,-7.7776,-8.0853,-8.3128,-8.4472,-8.3797,-8.0061,-7.3488,-7.4966,-7.2209,-6.4492,-6.5659,-6.3773,-5.7878,-5.5991,-5.4228,-5.2105,-4.8738,-4.5629,0.0,-4.0862,0.0,0.0,0.0,0.0,0.0,0.0,0.0,0.0,-4.8355,-4.285,-3.7983,-4.8395,-5.3164,-4.7842,-5.2495,-5.6328,-5.7381,-5.6961,-5.6713,-5.6858,-5.497,-5.3035,-5.1686,-5.1486,-5.1486,-5.0968,-4.7935,-4.5708,-4.4993,-4.2189,-3.9824,-3.9939,-3.9882,-3.9883,-4.0072,-3.9808,-3.8021,-3.4307,-3.1871,-2.9895,-2.8014,-2.7467,-2.7385,-2.729,-2.5747,-2.356,-2.0961,-1.895,-1.6941,-1.43,-1.3792,-1.2312,-0.8326,-0.7112,-0.5383,0.0,0.0,0.0,-11.1998,-11.2027,-11.1089,-10.9865,-10.8352,-10.6863,-10.6366,-10.6644,-10.6884,-10.6141,-10.4595,-10.3077,-10.152,-9.985,-9.8293,-9.7154,-9.6395,-9.5484,-9.4987,-9.4894,-9.4735,-9.447,-9.4135,-9.3942,-9.3271,-9.2276,-9.3098,-9.2575,-9.0892,-9.1042,-9.0182,-8.8333,-8.7318,-8.3688,-7.7918,-8.1396,-8.2759,-8.1628,-8.3001,-8.4131,-8.4956,-8.4713,-8.2516,-7.8238,-7.7675,-7.4893,-6.9677,-6.9101,-6.6826,-6.2549,-6.0244,-5.7918,-5.5112,-4.5436,-4.0416,0.0,0.0,0.0,0.0,0.0,0.0,0.0,0.0,0.0,0.0,0.0,-3.3388,0.0,-4.9558,-5.3426,-4.5644,-4.9413,-5.2292,-5.2176,-4.8642,-4.7807,-5.1666,-4.9992,-4.9325,-5.1252,-5.0948,-5.0582,-5.0492,-4.8156,-4.626,-4.5714,-4.1165,-3.7505,-3.6596,-3.769,-3.873,-3.9017,-3.9657,-3.9277,-3.7619,-3.4464,-3.1487,-2.9586,-2.8164,-2.6785,-2.5181,-2.4306,-2.2278,-1.7935,-1.7103,-1.6166,-1.2742,-1.1974,-1.0407,-0.6509,-0.5038,-0.3827,-0.0698,0.096,0.1917,-11.0206,-10.9757,-10.4597,-10.267,-10.2896,-10.1907,-10.2464,-10.4087,-10.4379,-10.3655,-10.2312,-10.1933,-9.9734,-9.6167,-9.2598,-9.1687,-9.2788,-9.1877,-9.2332,-9.3775,-9.3672,-9.343,-9.3153,-9.2878,-9.2026,-9.0725,-9.1019,-9.0294,-8.8741,-8.8761,-8.6929,-8.334,-8.2779,-7.8816,-7.1885,-7.8031,-8.271,-8.5338,-8.5292,-8.5169,-8.5086,-8.4391,-8.3268,-8.1734,-7.9162,-7.6638,-7.416,-7.1652,-6.8973,-6.6219,-6.2609,-5.9081,-5.5665,-4.2757,0.0,0.0,0.0,0.0,0.0,0.0,0.0,0.0,0.0,-3.8648,-3.3102,0.0,-2.5489,0.0,-4.9064,-5.1296,-4.3927,-4.6376,0.0,0.0,-4.0562,-3.7924,-4.0908,-4.2272,-4.5195,-5.0818,-4.9784,-4.8612,-4.8612,-4.6709,-4.5078,-4.4185,-3.9918,-3.5937,-3.3673,-3.5346,-3.7165,-3.7879,-3.9167,-3.9581,-3.793,-3.4879,-3.1494,-2.921,-2.74,-2.5266,-2.2242,-2.158,-1.9782,-1.5213,-1.48,-1.3838,-1.0407,-0.963,-0.7634,-0.243,-0.0955,-0.0434,0.1307,0.3133,0.4346,-10.8486,-10.7156,-9.2051,-8.9135,-9.4406,-9.4644,-9.8099,-10.374,-10.4033,-10.3424,-10.1973,-10.0455,-9.4692,-8.5612,-7.6349,0.0,-7.9196,-8.0601,-8.4549,-9.0396,-9.0358,-9.0227,-8.9951,-8.9709,-8.9475,-8.9119,-8.6036,-8.5957,-8.8329,-8.42,-7.9563,-7.489,-7.3282,-7.2147,-7.1511,-7.3506,-7.8427,-8.5907,-8.7479,-8.7678,-8.6491,-8.3842,-8.1698,-8.0096,-7.7538,-7.5033,-7.2607,-7.0128,-6.7123,-6.3503,-5.6993,-5.0989,-4.5899,0.0,0.0,0.0,0.0,0.0,0.0,0.0,0.0,0.0,0.0,0.0,0.0,0.0,0.0,0.0,-4.4364,0.0,-4.0862,-4.2963,0.0,0.0,0.0,-3.0121,-2.1257,-3.1382,-4.2176,-5.0533,0.0,0.0,-4.5224,0.0,-4.034,-3.971,-3.9203,-3.7496,-3.3777,-3.4237,-3.5612,-3.6523,-3.8557,-3.8119,-3.3557,-3.0691,-2.7898,-2.4834,-2.3558,-2.1796,-1.8703,-1.6093,-1.4405,-1.3273,-1.1612,-0.9271,-0.7627,-0.667,-0.4503,0.4503,0.6067,0.6157,0.6243,0.6593,0.6849,-9.5304,-8.8404,-8.0909,-7.9863,-8.3035,-8.2182,-8.5668,-9.2021,-9.3033,-9.1061,-8.7048,-8.7385,-8.2119,-7.2628,-6.8718,0.0,0.0,0.0,-7.4564,-8.0981,-8.2006,-8.3969,-8.6551,-8.6569,-8.6346,-8.5922,-8.4539,-8.4506,-8.562,-8.3714,-7.3282,-5.5223,0.0,0.0,-5.5485,-6.6552,-7.4965,-8.0199,-8.5381,-8.7618,-8.6706,-8.4147,-8.1409,-7.8594,-7.6867,-7.4404,-7.1022,-6.8743,-6.4242,-5.7025,-5.172,-4.4592,0.0,0.0,0.0,0.0,0.0,0.0,0.0,0.0,0.0,0.0,0.0,-4.0106,0.0,0.0,0.0,0.0,-2.8706,-2.4891,-2.674,-3.288,0.0,0.0,0.0,0.0,0.0,0.0,0.0,-4.4677,-4.2116,-3.9487,-3.9182,-3.7351,-3.5742,-3.4961,-3.3789,-3.2191,-3.0108,0.0,-2.9984,-3.2291,-3.1899,-3.1004,-3.0038,-2.6709,-2.3459,-2.1405,-1.8957,-1.5985,-1.2141,-1.0334,-0.8573,-0.6239,-0.4611,-0.3014,-0.1036,0.2747,0.6846,1.0217,1.1001,1.0498,0.9236,1.0185,1.063,-7.8629,0.0,0.0,0.0,0.0,-6.9244,-7.2509,-7.8473,-8.0114,-7.7847,-7.289,-7.362,0.0,0.0,0.0,0.0,0.0,0.0,-6.7161,-7.3653,-7.7336,-8.0785,-8.4087,-8.4056,-8.38,-8.3301,-8.1854,-8.0592,-7.9414,-7.6236,-6.3038,-4.0941,0.0,0.0,0.0,0.0,-6.9244,-7.5062,-8.3074,-8.6813,-8.5972,-8.4313,-8.1602,-7.7662,-7.5469,-7.2767,-6.9562,-6.5305,-5.9248,-5.1133,-4.3391,0.0,0.0,0.0,0.0,0.0,0.0,0.0,0.0,0.0,0.0,0.0,0.0,0.0,0.0,0.0,0.0,0.0,0.0,0.0,-2.0073,-2.5726,-2.7296,0.0,0.0,0.0,0.0,0.0,0.0,0.0,0.0,0.0,-3.1379,-3.1315,-3.1657,0.0,0.0,-2.8847,-2.7043,-2.542,-2.4891,-2.6267,0.0,0.0,0.0,-2.0868,-1.8106,-1.6641,-1.3758,-1.0272,-0.6118,-0.3381,-0.1185,0.0712,0.2549,0.4794,0.811,1.2319,1.4677,1.4951,1.5099,1.4619,1.2779,1.4283,1.526,0.0,0.0,0.0,0.0,0.0,0.0,0.0,0.0,-6.6574,-6.5504,0.0,-6.0952,0.0,0.0,0.0,0.0,0.0,-5.6227,0.0,0.0,-7.7981,-8.2272,-8.2272,-8.2076,-8.2042,-8.1618,-7.6574,-7.2481,-6.8758,-5.8128,0.0,0.0,0.0,0.0,0.0,0.0,-6.0308,-7.1249,-8.1102,-8.553,-8.4297,-8.415,-8.2051,-7.7657,-7.2866,-6.9667,-6.7956,-5.9019,-5.1699,-4.683,-3.0759,0.0,0.0,0.0,0.0,0.0,0.0,0.0,0.0,0.0,0.0,0.0,0.0,0.0,0.0,0.0,0.0,0.0,0.0,0.0,0.0,-2.3867,0.0,0.0,0.0,0.0,0.0,0.0,0.0,0.0,0.0,0.0,-2.1877,-2.4678,-2.8141,-2.9566,0.0,0.0,0.0,0.0,-2.1326,-1.8757,-2.0527,-1.9932,-1.3682,-1.2488,-1.1629,-0.964,0.0,0.0,-0.1835,0.5094,0.8794,0.5579,0.8964,1.4191,1.9859,1.9127,1.8053,1.8031,1.8548,1.8555,1.7107,1.8494,1.9828,0.0,0.0,0.0,0.0,0.0,0.0,0.0,0.0,0.0,-5.4022,0.0,-4.9644,0.0,0.0,0.0,0.0,0.0,0.0,0.0,0.0,-6.1694,-6.5718,-6.7921,-6.9965,-6.9114,0.0,-6.3929,-5.7833,0.0,0.0,0.0,0.0,0.0,0.0,0.0,0.0,-5.7242,-6.3624,-7.732,-8.3968,-8.2731,-8.2622,-8.1031,-7.7657,-7.5192,-6.9405,-5.991,-5.2878,-4.57,0.0,0.0,0.0,0.0,0.0,0.0,0.0,0.0,0.0,0.0,0.0,0.0,0.0,0.0,0.0,0.0,0.0,0.0,0.0,0.0,0.0,0.0,0.0,-1.507,0.0,0.0,0.0,0.0,0.0,0.0,0.0,0.0,0.0,-1.8737,-2.45,-2.8254,-2.6248,-2.6519,-2.6104,-2.3797,0.0,0.0,0.0,0.0,0.0,0.0,0.0,-0.5314,-0.3871,-0.166,0.0637,0.2748,0.8629,1.2987,1.2648,0.0,0.0,1.9205,1.886,1.8507,1.8507,1.9594,1.977,1.714,1.7998,1.8257,0.0,0.0,0.0,0.0,0.0,0.0,0.0,0.0,0.0,-4.2591,-3.8309,0.0,0.0,0.0,0.0,0.0,0.0,0.0,0.0,0.0,0.0,0.0,-5.7592,-5.9716,0.0,0.0,0.0,0.0,0.0,0.0,0.0,0.0,0.0,0.0,0.0,0.0,-5.4438,-5.8813,-7.4502,-8.2592,-8.1863,-8.1815,-8.0688,-7.8407,-7.6335,-6.9351,-5.6731,0.0,0.0,0.0,0.0,0.0,0.0,0.0,0.0,0.0,0.0,0.0,0.0,0.0,0.0,0.0,0.0,0.0,0.0,0.0,0.0,0.0,0.0,0.0,0.0,0.0,-1.2024,0.0,0.0,0.0,0.0,0.0,0.0,0.0,0.0,0.0,0.0,0.0,-2.3928,-2.2335,-2.2848,-2.3015,-2.2194,-1.8976,-1.5483,0.0,0.0,0.0,0.0,0.0,0.0,0.0,0.0,0.0,0.0,0.0,0.0,0.0,0.0,2.0784,1.9271,1.8384,1.7897,1.7853,0.0,0.0,0.0,0.0,0.0,0.0,0.0,0.0,0.0,0.0,0.0,0.0,0.0,0.0,0.0,0.0,0.0,0.0,-2.9744,0.0,0.0,0.0,0.0,0.0,0.0,0.0,0.0,0.0,0.0,0.0,0.0,0.0,0.0,0.0,0.0,0.0,0.0,0.0,0.0,0.0,0.0,-5.1671,-5.6703,-7.2946,-8.1495,-8.1826,-8.1889,-8.127,-7.9736,-7.5911,-6.9085,-5.8956,0.0,0.0,0.0,0.0,0.0,0.0,0.0,0.0,0.0,0.0,0.0,0.0,0.0,0.0,0.0,0.0,0.0,0.0,0.0,0.0,0.0,0.0,0.0,0.0,0.0,0.0,-0.7258,-0.4698,-0.34,0.0,0.0,0.0,0.0,0.0,0.0,0.0,0.0,0.0,0.0,-1.9474,-2.0261,-2.016,-1.5627,-1.0782,-0.6609,-0.2662,0.0617,0.26,0.4629,0.6454,0.0,0.0,0.0,0.0,0.0,0.0,0.0,0.0,0.0,0.0,0.0,0.0,0.0,0.0,0.0,0.0,0.0,0.0,0.0,0.0,0.0,0.0,0.0,0.0,0.0,0.0,0.0,0.0,0.0,0.0,0.0,0.0,0.0,0.0,0.0,0.0,0.0,0.0,0.0,0.0,0.0,0.0,0.0,0.0,0.0,0.0,0.0,0.0,0.0,0.0,0.0,0.0,0.0,0.0,-5.1636,-5.6753,-7.2913,-8.1421,-8.1815,-8.2891,-8.1907,-7.8706,-7.4294,-6.6855,0.0,0.0,0.0,0.0,0.0,0.0,0.0,0.0,0.0,0.0,0.0,0.0,0.0,0.0,0.0,0.0,0.0,0.0,0.0,0.0,0.0,0.0,0.0,0.0,0.0,0.0,0.0,0.0,-0.4931,-0.2815,0.151,0.0,0.0,0.0,0.0,0.0,0.0,0.0,0.0,0.0,0.0,-1.3958,-1.2046,-1.0427,-0.755,-0.255,-0.0782,0.1134,0.4359,0.6174,0.7296,0.7448,0.0,0.0,0.0,0.0,0.0,0.0,0.0,0.0,0.0,0.0,0.0,0.0,0.0,0.0,0.0,0.0,0.0,0.0,0.0,0.0,0.0,0.0,0.0,0.0,0.0,0.0,0.0,0.0,0.0,0.0,0.0,0.0,0.0,0.0,0.0,0.0,0.0,0.0,0.0,0.0,0.0,0.0,0.0,0.0,0.0,0.0,0.0,0.0,0.0,0.0,0.0,0.0,0.0,-5.1066,-5.6848,-7.2266,-8.1123,-8.2707,-8.3698,-8.2845,-8.0078,-7.3746,-6.4718,0.0,0.0,0.0,0.0,0.0,0.0,0.0,0.0,0.0,0.0,0.0,0.0,0.0,0.0,0.0,0.0,0.0,0.0,0.0,0.0,0.0,0.0,0.0,0.0,0.0,0.0,0.0,0.0,-0.2119,0.0048,0.3855,0.0,0.0,0.0,0.0,0.0,0.0,0.0,0.0,0.0,0.0,-0.7544,-0.4451,-0.3489,0.0,0.0,0.3961,0.4912,0.6603,0.8331,0.9185,0.8223,0.925,0.0,0.0,0.0,0.0,0.0,0.0,0.0,0.0,0.0,0.0,0.0,0.0,0.0,0.0,0.0,0.0,0.0,0.0,0.0,0.0,0.0,0.0,0.0,0.0,0.0,0.0,0.0,0.0,0.0,0.0,0.0,0.0,0.0,0.0,0.0,0.0,0.0,0.0,0.0,0.0,0.0,0.0,0.0,0.0,0.0,0.0,0.0,0.0,0.0,0.0,0.0,0.0,0.0,-5.7149,-7.1408,-8.0695,-8.4162,-8.4283,-8.3736,-8.2638,-7.3565,-6.2405,0.0,0.0,0.0,0.0,0.0,0.0,0.0,0.0,0.0,0.0,0.0,0.0,0.0,0.0,0.0,0.0,0.0,0.0,0.0,0.0,0.0,0.0,0.0,0.0,0.0,0.0,0.0,0.0,0.0,0.0,0.0,0.0,0.0,0.0,0.0,0.0,0.0,0.0,0.0,0.0,0.0,-0.1039,0.2331,0.4787,0.6955,0.0,0.0,1.0683,0.903,1.068,1.1449,0.9408,0.0,0.0,0.0,0.0,0.0,0.0,0.0,0.0,0.0,0.0,0.0,0.0,0.0,0.0,0.0,0.0,0.0,0.0,0.0,0.0,0.0,0.0,0.0,0.0,0.0,0.0,0.0,0.0,0.0,0.0,0.0,0.0,0.0,0.0,0.0,0.0,0.0,0.0,0.0,0.0,0.0,0.0,0.0,0.0,0.0,0.0,0.0,0.0,0.0,0.0,0.0,0.0,0.0,0.0,-5.8714,-7.3229,-8.2465,-8.5887,-8.5218,-8.3299,-8.0075,-7.0262,0.0,0.0,0.0,0.0,0.0,0.0,0.0,0.0,0.0,0.0,0.0,0.0,0.0,0.0,0.0,0.0,0.0,0.0,0.0,0.0,0.0,0.0,0.0,0.0,0.0,0.0,0.0,0.0876,0.0,0.0,0.0,0.0,0.0,0.0,0.0,0.0,0.0,0.0,0.0,0.0,0.0,0.0,0.4919,0.7249,1.2819,1.5174,0.0,0.0,1.0912,0.9797,1.0358,1.0448,0.0,0.0,0.0,0.0,0.0,0.0,0.0,0.0,0.0,0.0,0.0,0.0,0.0,0.0,0.0,0.0,0.0,0.0,0.0,0.0,0.0,0.0,0.0,0.0,0.0,0.0,0.0,0.0,0.0,0.0,0.0,0.0,0.0,0.0,0.0,0.0,0.0,0.0,0.0,0.0,0.0,0.0,0.0,0.0,0.0,0.0,0.0,0.0,0.0,0.0,0.0,0.0,0.0,0.0,-4.7503,-5.918,-7.0369,-7.9501,-8.6328,-8.5562,-8.2809,-7.8342,-6.8727,-5.7612,0.0,0.0,0.0,0.0,0.0,0.0,0.0,0.0,0.0,0.0,0.0,0.0,0.0,0.0,0.0,0.0,0.0,0.0,0.0,0.0,0.0,0.0,0.0,0.0,0.0,0.0,0.0,0.0,0.0,0.0,0.0,0.0,0.0,0.0,0.0,0.0,0.0,0.0,0.0,0.0,0.0,0.0,1.1854,1.6574,0.0,0.0,0.0,1.1164,1.0884,0.0,0.0,0.0,0.0,0.0,0.0,0.0,0.0,0.0,0.0,0.0,0.0,0.0,0.0,0.0,0.0,0.0,0.0,0.0,0.0,0.0,0.0,0.0,0.0,0.0,0.0,0.0,0.0,0.0,0.0,0.0,0.0,0.0,0.0,0.0,0.0,0.0,0.0,0.0,0.0,0.0,0.0,0.0,0.0,0.0,0.0,0.0,0.0,0.0,0.0,0.0,0.0,0.0,0.0,0.0,0.0,0.0,-5.8531,-6.6166,-7.5282,-8.5679,-8.5151,-8.2046,-7.6975,-6.806,-5.7325,0.0,0.0,0.0,0.0,0.0,0.0,0.0,0.0,0.0,0.0,0.0,0.0,0.0,0.0,0.0,0.0,0.0,0.0,0.0,0.0,0.0,0.0,0.0,0.0,0.0,0.0,0.0,0.0,0.0,0.0,0.0,0.0,0.0,0.0,0.0,0.0,0.0,0.0,0.0,0.0,0.0,1.1169,1.5737,1.7894,1.8376,0.0,0.0,1.1644,1.1811,1.1882,0.0,0.0,0.0,0.0,0.0,0.0,0.0,0.0,0.0,0.0,0.0,0.0,0.0,0.0,0.0,0.0,0.0,0.0,0.0,0.0,0.0,0.0,0.0,0.0,0.0,0.0,0.0,0.0,0.0,0.0,0.0,0.0,0.0,0.0,0.0,0.0,0.0,0.0,0.0,0.0,0.0,0.0,0.0,0.0,0.0,0.0,0.0,0.0,0.0,0.0,0.0,0.0,0.0,0.0,0.0,0.0,-5.7246,-6.9117,-7.8297,-8.426,-8.2846,-7.9765,-7.5342,-6.6445,-5.5745,0.0,0.0,0.0,0.0,0.0,0.0,0.0,0.0,0.0,0.0,0.0,0.0,0.0,0.0,0.0,0.0,0.0,0.0,0.0,0.0,0.0,0.0,0.0,0.0,0.0,0.0,0.0,0.0,0.0,0.0,0.0,0.0,0.0,0.0,0.0,0.0,0.0,0.0,0.0,0.0,0.0,1.3131,1.7249,1.8987,0.0,0.0,0.0,0.0,1.1147,0.9696,0.0,0.0,0.0,0.0,0.0,0.0,0.0,0.0,0.0,0.0,0.0,0.0,0.0,0.0,0.0,0.0,0.0,0.0,0.0,0.0,0.0,0.0,0.0,0.0,0.0,0.0,0.0,0.0,0.0,0.0,0.0,0.0,0.0,0.0,0.0,0.0,0.0,0.0,0.0,0.0,0.0,0.0,0.0,0.0,0.0,0.0,0.0,0.0,0.0,0.0,0.0,0.0,0.0,0.0,0.0,0.0,-6.0068,-6.8085,-7.5996,-8.3866,-8.2159,-7.878,-7.3939,-6.5123,-5.4392,0.0,0.0,0.0,0.0,0.0,0.0,0.0,0.0,0.0,0.0,0.0,0.0,0.0,0.0,0.0,0.0,0.0,0.0,0.0,0.0,0.0,0.0,0.0,0.0,0.0,0.0,0.0,0.0,0.0,0.0,0.0,0.0,0.0,0.0,0.0,0.0,0.0,0.0,0.0,0.0,1.1482,1.3104,1.7563,0.0,0.0,0.0,0.0,0.0,0.0,0.9906,0.8258,0.0,0.0,0.0,0.0,0.0,0.0,0.0,0.0,0.0,0.0,0.0,0.0,0.0,0.0,0.0,0.0,0.0,0.0,0.0,0.0,0.0,0.0,0.0,0.0,0.0,0.0,0.0,0.0,0.0,0.0,0.0,0.0,0.0,0.0,0.0,0.0,0.0,0.0,0.0,0.0,0.0,0.0,0.0,0.0,0.0,0.0,0.0,0.0,0.0,0.0,0.0,0.0,0.0,0.0,0.0,-6.2379,-6.5175,-7.1884,-8.2831,-8.128,-7.7831,-7.2555,-6.3768,-5.3168,-4.0895,0.0,0.0,0.0,0.0,0.0,0.0,0.0,0.0,0.0,0.0,0.0,0.0,0.0,0.0,0.0,0.0,0.0,0.0,0.0,0.0,0.0,0.0,0.0,0.0,0.0,0.0,0.0,0.0,0.0,0.0,0.0,0.0,0.0,0.0,0.0,0.0,0.0,0.0,0.0,1.0501,1.2169,0.0,0.0,0.0,0.0,0.0,0.0,0.0,0.0,0.9013,0.0,0.0,0.0,0.0,0.0,0.0,0.0,0.0,0.0,0.0,0.0,0.0,0.0,0.0,0.0,0.0,0.0,0.0,0.0,0.0,0.0,0.0,0.0,0.0,0.0,0.0,0.0,0.0,0.0,0.0,0.0,0.0,0.0,0.0,0.0,0.0,0.0,0.0,0.0,0.0,0.0,0.0,0.0,0.0,0.0,0.0,0.0,0.0,0.0,0.0,0.0,0.0,0.0,0.0,0.0,0.0,-6.1157,-6.9109,-7.7756,-7.7621,-7.5242,-7.0955,-6.2236,-5.2067,-4.0674,0.0,0.0,0.0,0.0,0.0,0.0,0.0,0.0,0.0,0.0,0.0,0.0,0.0,0.0,0.0,0.0,0.0,0.0,0.0,0.0,0.0,0.0,0.0,0.0,0.0,0.0,0.0,0.0,0.0,0.0,0.0,0.0,0.0,0.0,0.0,0.0,0.0,0.0,0.3366,0.7242,0.0,0.0,0.0,0.0,0.0,0.0,0.0,0.0,0.8986,0.0,0.0,0.0,0.0,0.0,0.0,0.0,0.0,0.0,0.0,0.0,0.0,0.0,0.0,0.0,0.0,0.0,0.0,0.0,0.0,0.0,0.0,0.0,0.0,0.0,0.0,0.0,0.0,0.0,0.0,0.0,0.0,0.0,0.0,0.0,0.0,0.0,0.0,0.0,0.0,0.0,0.0,0.0,0.0,0.0,0.0,0.0,0.0,0.0,0.0,0.0,0.0,0.0,0.0,0.0,0.0,0.0,0.0,-6.8564,-7.6907,-7.6836,-7.4647,-7.0393,-5.9072,-4.9084,0.0,0.0,0.0,0.0,0.0,0.0,0.0,0.0,0.0,0.0,0.0,0.0,0.0,0.0,0.0,0.0,0.0,0.0,0.0,0.0,0.0,0.0,0.0,0.0,0.0,0.0,0.0,0.0,0.0,0.0,0.0,0.0,0.0,0.0,0.0,0.0,0.0,0.0,0.0,0.0,0.0,0.0,0.0,0.0,0.0,0.0,0.0,0.0,0.0,0.0,0.0,0.0,0.0,0.0,0.0,0.0,0.0,0.0,0.0,0.0,0.0,0.0,0.0,0.0,0.0,0.0,0.0,0.0,0.0,0.0,0.0,0.0,0.0,0.0,0.0,0.0,0.0,0.0,0.0,0.0,0.0,0.0,0.0,0.0,0.0,0.0,0.0,0.0,0.0,0.0,0.0,0.0,0.0,0.0,0.0,0.0,0.0,0.0,0.0,0.0,0.0,0.0,0.0,0.0,0.0,0.0,0.0,0.0,-6.7013,-7.5515,-7.5982,-7.4158,-7.0098,-5.6833,-4.6889,0.0,0.0,0.0,0.0,0.0,0.0,0.0,0.0,0.0,0.0,0.0,0.0,0.0,0.0,0.0,0.0,0.0,0.0,0.0,0.0,0.0,0.0,0.0,0.0,0.0,0.0,0.0,0.0,0.0,0.0,0.0,0.0,0.0,0.0,0.0,0.0,0.0,0.0,0.0,0.0,0.0,0.0,0.0,0.0,0.0,0.0,0.0,0.0,0.907,0.0,0.0,0.0,0.0,0.0,0.0,0.0,0.0,0.0,0.0,0.0,0.0,0.0,0.0,0.0,0.0,0.0,0.0,0.0,0.0,0.0,0.0,0.0,0.0,0.0,0.0,0.0,0.0,0.0,0.0,0.0,0.0,0.0,0.0,0.0,0.0,0.0,0.0,0.0,0.0,0.0,0.0,0.0,0.0,0.0,0.0,0.0,0.0,0.0,0.0,0.0,0.0,0.0,0.0,0.0,0.0,0.0,0.0,0.0,-6.2003,-7.0713,-7.3134,-7.245,-6.8363,-5.7421,-4.7669,0.0,0.0,0.0,0.0,0.0,0.0,0.0,0.0,0.0,0.0,0.0,0.0,0.0,0.0,0.0,0.0,0.0,0.0,0.0,0.0,0.0,0.0,0.0,0.0,0.0,0.0,0.0,0.0,0.0,0.0,0.0,0.0,0.0,0.0,0.0,0.0,0.0,0.0,0.0,0.0,0.0,0.0,0.0,0.0,0.0,0.0,0.0,0.0,0.0,0.0,0.0,0.0,0.0,0.0,0.0,0.0,0.0,0.0,0.0,0.0,0.0,0.0,0.0,0.0,0.0,0.0,0.0,0.0,0.0,0.0,0.0,0.0,0.0,0.0,0.0,0.0,0.0,0.0,0.0,0.0,0.0,0.0,0.0,0.0,0.0,0.0,0.0,0.0,0.0,0.0,0.0,0.0,0.0,0.0,0.0,0.0,0.0,0.0,0.0,0.0,0.0,0.0,0.0,0.0,0.0,0.0,0.0,0.0,-5.7862,-6.562,-7.0281,-6.9107,-6.1866,-5.1921,-4.4487,0.0,0.0,0.0,0.0,0.0,0.0,0.0,0.0,0.0,0.0,0.0,0.0,0.0,0.0,0.0,0.0,0.0,0.0,0.0,0.0,0.0,0.0,0.0,0.0,0.0,0.0,0.0,0.0,0.0,0.0,0.0,0.0,0.0,0.0,0.0,0.0,0.0,0.0,0.0,0.0,0.0,0.0,0.0,0.0,0.0,0.0,0.0,0.0,0.0,0.0,0.0,0.0,0.0,0.0,0.0,0.0,0.0,0.0,0.0,0.0,0.0,0.0,0.0,0.0,0.0,0.0,0.0,0.0,0.0,0.0,0.0,0.0,0.0,0.0,0.0,0.0,0.0,0.0,0.0,0.0,0.0,0.0,0.0,0.0,0.0,0.0,0.0,0.0,0.0,0.0,0.0,0.0,0.0,0.0,0.0,0.0,0.0,0.0,0.0,0.0,0.0,0.0,0.0,0.0,0.0,0.0,0.0,0.0,0.0,-5.9473,-6.6174,-6.5285,-5.6185,-4.7401,-4.1173,0.0,0.0,0.0,0.0,0.0,0.0,0.0,0.0,0.0,0.0,0.0,0.0,0.0,0.0,0.0,0.0,0.0,0.0,0.0,0.0,0.0,0.0,0.0,0.0,0.0,0.0,0.0,0.0,0.0,0.0,0.0,0.0,0.0,0.0,0.0,0.0,0.0,0.0,0.0,0.0,0.0,0.0,0.0,0.0,0.0,0.0,0.0,0.0,0.0,0.0,0.0,0.0,0.0,0.0,0.0,0.0,0.0,0.0,0.0,0.0,0.0,0.0,0.0,0.0,0.0,0.0,0.0,0.0,0.0,0.0,0.0,0.0,0.0,0.0,0.0,0.0,0.0,0.0,0.0,0.0,0.0,0.0,0.0,0.0,0.0,0.0,0.0,0.0,0.0,0.0,0.0,0.0,0.0,0.0,0.0,0.0,0.0,0.0,0.0,0.0,0.0,0.0,0.0,0.0,0.0,0.0,0.0,0.0,0.0,-5.1415,-6.0108,-6.0956,-5.3312,-4.5982,-3.8777,0.0,0.0,0.0,0.0,0.0,0.0,0.0,0.0,0.0,0.0,0.0,0.0,0.0,0.0,0.0,0.0,0.0,0.0,0.0,0.0,0.0,0.0,0.0,0.0,0.0,0.0,0.0,0.0,0.0,0.0,0.0,0.0,0.0,0.0,0.0,0.0,0.0,0.0,0.0,0.0,0.0,0.0,0.0,0.0,0.0,0.0,0.0,0.0,0.0,0.0,0.0,0.0,0.0,0.0,0.0,0.0,0.0,0.0,0.0,0.0,0.0,0.0,0.0,0.0,0.0,0.0,0.0,0.0,0.0,0.0,0.0,0.0,0.0,0.0,0.0,0.0,0.0,0.0,0.0,0.0,0.0,0.0,0.0,0.0,0.0,0.0,0.0,0.0,0.0,0.0,0.0,0.0,0.0,0.0,0.0,0.0,0.0,0.0,0.0,0.0,0.0,0.0,0.0,0.0,0.0,0.0,0.0,0.0,0.0,-3.7977,-4.6164,-4.8588,-4.3784,-3.8329,-3.4673,-3.2923,0.0,0.0,0.0,0.0,0.0,0.0,0.0,0.0,0.0,0.0,0.0,0.0,0.0,0.0,0.0,0.0,0.0,0.0,0.0,0.0,0.0,0.0,0.0,0.0,0.0,0.0,0.0,0.0,0.0,0.0,0.0,0.0,0.0,0.0,0.0,0.0,0.0,0.0,0.0,0.0,0.0,0.0,0.0,0.0,0.0,0.0,0.0,0.0,0.0,0.0,0.0,0.0,0.0,0.0,0.0,0.0,0.0,0.0,0.0,0.0,0.0,0.0,0.0,0.0,0.0,0.0,0.0,0.0,0.0,0.0,0.0,0.0,0.0,0.0,0.0,0.0,0.0,0.0,0.0,0.0,0.0,0.0,0.0,0.0,0.0,0.0,0.0,0.0,0.0,0.0,0.0,0.0,0.0,0.0,0.0,0.0,0.0,0.0,0.0,0.0,0.0,0.0,0.0,0.0,0.0,0.0,0.0,0.0,-3.1233,-3.906,-4.1425,-3.7383,-3.3636,-3.1266,0.0,0.0,0.0,0.0,0.0,0.0,0.0,0.0,0.0,0.0,0.0,0.0,0.0,0.0,0.0,0.0,0.0,0.0,0.0,0.0,0.0,0.0,0.0,0.0,0.0,0.0,0.0,0.0,0.0,0.0,0.0,0.0,0.0,0.0,0.0,0.0,0.0,0.0,0.0,0.0,0.0,0.0,0.0,0.0,0.0,0.0,0.0,0.0,0.0,0.0,0.0,0.0,0.0,0.0,0.0,0.0,0.0,0.0,0.0,0.0,0.0,0.0,0.0,0.0,0.0,0.0,0.0,0.0,0.0,0.0,0.0,0.0,0.0,0.0,0.0,0.0,0.0,0.0,0.0,0.0,0.0,0.0,0.0,0.0,0.0,0.0,0.0,0.0,0.0,0.0,0.0,0.0,0.0,0.0,0.0,0.0,0.0,0.0,0.0,0.0,0.0,0.0,0.0,0.0,0.0,0.0,0.0,0.0,-2.7898,-3.427,-4.0485,-4.0878,-3.5631,-3.3042,-2.8684,0.0,0.0,0.0,0.0,0.0,0.0,0.0,0.0,0.0,0.0,0.0,0.0,0.0,0.0,0.0,0.0,0.0,0.0,0.0,0.0,0.0,0.0,0.0,0.0,0.0,0.0,0.0,0.0,0.0,0.0,0.0,0.0,0.0,0.0,0.0,0.0,0.0,0.0,0.0,0.0,0.0,0.0,0.0,0.0,0.0,0.0,0.0,0.0,0.0,0.0,0.0,0.0,0.0,0.0,0.0,0.0,0.0,0.0,0.0,0.0,0.0,0.0,0.0,0.0,0.0,0.0,0.0,0.0,0.0,0.0,0.0,0.0,0.0,0.0,0.0,0.0,0.0,0.0,0.0,0.0,0.0,0.0,0.0,0.0,0.0,0.0,0.0,0.0,0.0,0.0,0.0,0.0,0.0,0.0,0.0,0.0,0.0,0.0,0.0,0.0,0.0,0.0,0.0,0.0,0.0,0.0,0.0,0.0,0.0,-2.5976,0.0,-3.178,0.0,-2.92,-2.6919,0.0,0.0,0.0,0.0,0.0,0.0,0.0,0.0,0.0,0.0,0.0,0.0,0.0,0.0,0.0,0.0,0.0,0.0,0.0,0.0,0.0,0.0,0.0,0.0,0.0,0.0,0.0,0.0,0.0,0.0,0.0,0.0,0.0,0.0,0.0,0.0,0.0,0.0,0.0,0.0,0.0,0.0,0.0,0.0,0.0,0.0,0.0,0.0,0.0,0.0,0.0,0.0,0.0,0.0,0.0,0.0,0.0,0.0,0.0,0.0,0.0,0.0,0.0,0.0,0.0,0.0,0.0,0.0,0.0,0.0,0.0,0.0,0.0,0.0,0.0,0.0,0.0,0.0,0.0,0.0,0.0,0.0,0.0,0.0,0.0,0.0,0.0,0.0,0.0,0.0,0.0,0.0,0.0,0.0,0.0,0.0,0.0,0.0,0.0,0.0,0.0,0.0,0.0,0.0,0.0,0.0,0.0,0.0,0.0,-2.3692,-2.4296,-2.642,-2.9898,-2.7239,-2.5824,0.0,0.0,0.0,0.0,0.0,0.0,0.0,0.0,0.0,0.0,0.0,0.0,0.0,0.0,0.0,0.0,0.0,0.0,0.0,0.0,0.0,0.0,0.0,0.0,0.0,0.0,0.0,0.0,0.0,0.0,0.0,0.0,0.0,0.0,0.0,0.0,0.0,0.0,0.0,0.0,0.0,0.0,0.0,0.0,0.0,0.0,0.0,0.0,0.0,0.0,0.0,0.0,0.0,0.0,0.0,0.0,0.0,0.0,0.0,0.0,0.0,0.0,0.0,0.0,0.0,0.0,0.0,0.0,0.0,0.0,0.0,0.0,0.0,0.0,0.0,0.0,0.0,0.0,0.0,0.0,0.0,0.0,0.0,0.0,0.0,0.0,0.0,0.0,0.0,0.0,0.0,0.0,0.0,0.0,0.0,0.0,0.0,0.0,0.0,0.0,0.0,0.0,0.0,0.0,0.0,0.0,0.0,0.0,0.0,0.0,-2.4875,-2.5214,-2.7969,-2.7083,-2.5321,0.0,0.0,0.0,0.0,0.0,0.0,0.0,0.0,0.0,0.0,0.0,0.0,0.0,0.0,0.0,0.0,0.0,0.0,0.0,0.0,0.0,0.0,0.0,0.0,0.0,0.0,0.0,0.0,0.0,0.0,0.0,0.0,0.0,0.0,0.0,0.0,0.0,0.0,0.0,0.0,0.0,0.0,0.0,0.0,0.0,0.0,0.0,0.0,0.0,0.0,0.0,0.0,0.0,0.0,0.0,0.0,0.0,0.0,0.0,0.0,0.0,0.0,0.0,0.0,0.0,0.0,0.0,0.0,0.0,0.0,0.0,0.0,0.0,0.0,0.0,0.0,0.0,0.0,0.0,0.0,0.0,0.0,0.0,0.0,0.0,0.0,0.0,0.0,0.0,0.0,0.0,0.0,0.0,0.0,0.0,0.0,0.0,0.0,0.0,0.0,0.0,0.0,0.0,0.0,0.0,0.0,0.0,0.0,0.0,0.0,-2.2507,0.0,-2.643,-2.5906,-2.4598,-2.2632,0.0,0.0,0.0,0.0,0.0,0.0,0.0,0.0,0.0,0.0,0.0,0.0,0.0,0.0,0.0,0.0,0.0,0.0,0.0,0.0,0.0,0.0,0.0,0.0,0.0,0.0,0.0,0.0,0.0,0.0,0.0,0.0,0.0,0.0,0.0,0.0,0.0,0.0,0.0,0.0,0.0,0.0,0.0,0.0,0.0,0.0,0.0,0.0,0.0,0.0,0.0,0.0,0.0,0.0,0.0,0.0,0.0,0.0,0.0,0.0,0.0,0.0,0.0,0.0,0.0,0.0,0.0,0.0,0.0,0.0,0.0,0.0,0.0,0.0,0.0,0.0,0.0,0.0,0.0,0.0,0.0,0.0,0.0,0.0,0.0,0.0,0.0,0.0,0.0,0.0,0.0,0.0,0.0,0.0,0.0,0.0,0.0,0.0,0.0,0.0,0.0,0.0,0.0,0.0,0.0,0.0,0.0,0.0,0.0,0.0,0.0,-2.5691,-2.5351,-2.458,0.0,0.0,0.0,0.0,0.0,0.0,0.0,0.0,0.0,0.0,0.0,0.0,0.0,0.0,0.0,0.0,0.0,0.0,0.0,0.0,0.0,0.0,0.0,0.0,0.0,0.0,0.0,0.0,0.0,0.0,0.0,0.0,0.0,0.0,0.0,0.0,0.0,0.0,0.0,0.0,0.0,0.0,0.0,0.0,0.0,0.0,0.0,0.0,0.0,0.0,0.0,0.0,0.0,0.0,0.0,0.0,0.0,0.0,0.0,0.0,0.0,0.0,0.0,0.0,0.0,0.0,0.0,0.0,0.0,0.0,0.0,0.0,0.0,0.0,0.0,0.0,0.0,0.0,0.0,0.0,0.0,0.0,0.0,0.0,0.0,0.0,0.0,0.0,0.0,0.0,0.0,0.0,0.0,0.0,0.0,0.0,0.0,0.0,0.0,0.0,0.0,0.0,0.0,0.0,0.0,0.0,0.0,0.0,0.0,0.0,0.0,-2.1884,-2.4949,-2.5362,0.0,-2.4163,0.0,0.0,0.0,0.0,0.0,0.0,0.0,0.0,0.0,0.0,0.0,0.0,0.0,0.0,0.0,0.0,0.0,0.0,0.0,0.0,0.0,0.0,0.0,0.0,0.0,0.0,0.0,0.0,0.0,0.0,0.0,0.0,0.0,0.0,0.0,0.0,0.0,0.0,0.0,0.0,0.0,0.0,0.0,0.0,0.0,0.0,0.0,0.0,0.0,0.0,0.0,0.0,0.0,0.0,0.0,0.0,0.0,0.0,0.0,0.0,0.0,0.0,0.0,0.0,0.0,0.0,0.0,0.0,0.0,0.0,0.0,0.0,0.0,0.0,0.0,0.0,0.0,0.0,0.0,0.0,0.0,0.0,0.0,0.0,0.0,0.0,0.0,0.0,0.0,0.0,0.0,0.0,0.0,0.0,0.0,0.0,0.0,0.0,0.0,0.0,0.0,0.0,0.0,0.0,0.0,0.0,0.0,0.0,0.0,0.0,0.0,0.0,-2.5898,-2.573,-2.2684,0.0,0.0,0.0,0.0,0.0,0.0,0.0,0.0,0.0,0.0,0.0,0.0,0.0,0.0,0.0,0.0,0.0,0.0,0.0,0.0,0.0,0.0,0.0,0.0,0.0,0.0,0.0,0.0,0.0,0.0,0.0,0.0,0.0,0.0,0.0,0.0,0.0,0.0,0.0,0.0,0.0,0.0,0.0,0.0,0.0,0.0,0.0,0.0,0.0,0.0,0.0,0.0,0.0,0.0,0.0,0.0,0.0,0.0,0.0,0.0,0.0,0.0,0.0,0.0,0.0,0.0,0.0,0.0,0.0,0.0,0.0,0.0,0.0,0.0,0.0,0.0,0.0,0.0,0.0,0.0,0.0,0.0,0.0,0.0,0.0,0.0,0.0,0.0,0.0,0.0,0.0,0.0,0.0,0.0,0.0,0.0,0.0,0.0,0.0,0.0,0.0,0.0,0.0,0.0,0.0,0.0,0.0,0.0,0.0,0.0,-2.411,-2.3695,-2.5748,-2.5599,-2.2878,0.0,0.0,0.0,0.0,0.0,0.0,0.0,0.0,0.0,0.0,0.0,0.0,0.0,0.0,0.0,0.0,0.0,0.0,0.0,0.0,0.0,0.0,0.0,0.0,0.0,0.0,0.0,0.0,0.0,0.0,0.0,0.0,0.0,0.0,0.0,0.0,0.0,0.0,0.0,0.0,0.0,0.0,0.0,0.0,0.0,0.0,0.0,0.0,0.0,0.0,0.0,0.0,0.0,0.0,0.0,0.0,0.0,0.0,0.0,0.0,0.0,0.0,0.0,0.0,0.0,0.0,0.0,0.0,0.0,0.0,0.0,0.0,0.0,0.0,0.0,0.0,0.0,0.0,0.0,0.0,0.0,0.0,0.0,0.0,0.0,0.0,0.0,0.0,0.0,0.0,0.0,0.0,0.0,0.0,0.0,0.0,0.0,0.0,0.0,0.0,0.0,0.0,0.0,0.0,0.0,0.0,0.0,0.0,0.0,0.0,0.0,0.0,0.0,0.0,-2.4576,0.0,0.0,0.0,0.0,0.0,0.0,0.0,0.0,0.0,0.0,0.0,0.0,0.0,0.0,0.0,0.0,0.0,0.0,0.0,0.0,0.0,0.0,0.0,0.0,0.0,0.0,0.0,0.0,0.0,0.0,0.0,0.0,0.0,0.0,0.0,0.0,0.0,0.0,0.0,0.0,0.0,0.0,0.0,0.0,0.0,0.0,0.0,0.0,0.0,0.0,0.0,0.0,0.0,0.0,0.0,0.0,0.0,0.0,0.0,0.0,0.0,0.0,0.0,0.0,0.0,0.0,0.0,0.0,0.0,0.0,0.0,0.0,0.0,0.0,0.0,0.0,0.0,0.0,0.0,0.0,0.0,0.0,0.0,0.0,0.0,0.0,0.0,0.0,0.0,0.0,0.0,0.0,0.0,0.0,0.0,0.0,0.0,0.0,0.0,0.0,0.0,0.0,0.0,0.0,0.0,0.0,0.0,0.0,0.0,0.0,0.0,0.0,0.0,0.0,0.0,0.0,0.0,0.0,0.0,0.0,0.0,0.0,0.0,0.0,0.0,0.0,0.0,0.0,0.0,0.0,0.0,0.0,0.0,0.0,0.0,0.0,0.0,0.0,0.0,0.0,0.0,0.0,0.0,0.0,0.0,0.0,0.0,0.0,0.0,0.0,0.0,0.0,0.0,0.0,0.0,0.0,0.0,0.0,0.0,0.0,0.0,0.0,0.0,0.0,0.0,0.0,0.0,0.0,0.0,0.0,0.0,0.0,0.0,0.0,0.0,0.0,0.0,0.0,0.0,0.0,0.0,0.0,0.0,0.0,0.0,0.0,0.0,0.0,0.0,0.0,0.0,0.0,0.0,0.0,0.0,0.0,0.0,0.0,0.0,0.0,0.0,0.0,0.0,0.0,0.0,0.0,0.0,0.0,0.0,0.0,0.0,0.0,0.0,0.0,0.0,0.0,0.0,0.0,0.0,0.0,0.0,0.0,0.0,0.0,0.0,0.0,0.0,0.0,0.0,0.0,0.0,0.0,0.0,0.0,0.0,0.0,0.0,0.0,0.0,0.0,0.0,0.0,0.0,0.0,0.0,0.0,0.0,0.0,0.0,0.0,0.0,0.0,0.0,0.0,0.0,0.0,0.0,0.0,0.0,0.0,0.0,0.0,0.0,0.0,0.0,0.0,0.0,0.0,0.0,0.0,0.0,0.0,0.0,0.0,0.0,0.0,0.0,0.0,0.0,0.0,0.0,0.0,0.0,0.0,0.0,0.0,0.0,0.0,0.0,0.0,0.0,0.0,0.0,0.0,0.0,0.0,0.0,0.0,0.0,0.0,0.0,0.0,0.0,0.0,0.0,0.0,0.0,0.0,0.0,0.0,0.0,0.0,0.0,0.0,0.0,0.0,0.0,0.0,0.0,0.0,0.0,0.0,0.0,0.0,0.0,0.0,0.0,0.0,0.0,0.0,0.0,0.0,0.0,0.0,0.0,0.0,0.0,0.0,0.0,0.0,0.0,0.0,0.0,0.0,0.0,0.0,0.0,0.0,0.0,0.0,0.0,0.0,0.0,0.0,0.0,0.0,0.0,0.0,0.0,0.0,0.0,0.0,0.0,0.0,0.0,0.0,0.0,0.0,0.0,0.0,0.0,0.0,0.0,0.0,0.0,0.0,0.0,0.0,0.0,0.0,0.0,0.0,0.0,0.0,0.0,0.0,0.0,0.0,0.0,0.0,0.0,0.0,0.0,0.0,0.0,0.0,0.0,0.0,0.0,0.0,0.0,0.0,0.0,0.0,0.0,0.0,0.0,0.0,0.0,0.0,0.0,0.0,0.0,0.0,0.0,0.0,0.0,0.0,0.0,0.0,0.0,0.0,0.0,0.0,0.0,0.0,0.0,0.0,0.0,0.0,0.0,0.0,0.0,0.0,0.0,0.0,0.0,0.0,0.0,0.0,0.0,0.0,0.0,0.0,0.0,0.0,0.0,0.0,0.0,0.0,0.0,0.0,0.0,0.0,0.0,0.0,0.0,0.0,0.0,0.0,0.0,0.0,0.0,0.0,0.0,0.0,0.0,0.0,0.0,0.0,0.0,0.0,0.0,0.0,0.0,0.0,0.0,0.0,0.0,0.0,0.0,0.0,0.0,0.0,0.0,0.0,0.0,0.0,0.0,0.0,0.0,0.0,0.0,0.0,0.0,0.0,0.0,0.0,0.0,0.0,0.0,0.0,0.0,0.0,0.0,0.0,0.0,0.0,0.0,0.0,0.0,0.0,0.0,0.0,0.0,0.0,0.0,0.0,0.0,0.0,0.0,0.0,0.0,0.0,0.0,0.0,0.0,0.0,0.0,0.0,0.0,0.0,0.0,0.0,0.0,0.0,0.0,0.0,0.0,0.0,0.0,0.0,0.0,0.0,0.0,0.0,0.0,0.0,0.0,0.0,0.0,0.0,0.0,0.0,0.0,0.0,0.0,0.0,0.0,0.0,0.0,0.0,0.0,0.0,0.0,0.0,0.0,0.0,0.0,0.0,0.0,0.0,0.0,0.0,0.0,0.0,0.0,0.0,0.0,0.0,0.0,0.0,0.0,0.0,0.0,0.0,0.0,0.0,0.0,0.0,0.0,0.0,0.0,0.0,0.0,0.0,0.0,0.0,0.0,0.0,0.0,0.0,0.0,0.0,0.0,0.0,0.0,0.0,0.0,0.0,0.0,0.0,0.0,0.0,0.0,0.0,0.0,0.0,0.0,0.0,0.0,0.0,0.0,0.0,0.0,0.0,0.0,0.0,0.0,0.0,0.0,0.0,0.0,0.0,0.0,0.0,0.0,0.0,0.0,0.0,0.0,0.0,0.0,0.0,0.0,0.0,0.0,0.0,0.0,0.0,0.0,0.0,0.0,0.0,0.0,0.0,0.0,0.0,0.0,0.0,0.0,0.0,0.0,0.0,0.0,0.0,0.0,0.0,0.0,0.0,0.0,0.0,0.0,0.0,0.0,0.0,0.0,0.0,0.0,0.0,0.0,0.0,0.0,0.0,0.0,0.0,0.0,0.0,0.0,0.0,0.0,0.0,0.0,0.0,0.0,0.0,0.0,0.0,0.0,0.0,0.0,0.0,0.0,0.0,0.0,0.0,0.0,0.0,0.0,0.0,0.0,0.0,0.0,0.0,0.0,0.0,0.0,0.0,0.0,0.0,0.0,0.0,0.0,0.0,0.0,0.0,0.0,0.0,0.0,0.0,0.0,0.0,0.0,0.0,0.0,0.0,0.0,0.0,0.0,0.0,0.0,0.0,0.0,0.0,0.0,0.0,0.0,0.0,0.0,0.0,0.0,0.0,0.0,0.0,0.0,0.0,0.0,0.0,0.0,0.0,0.0,0.0,0.0,0.0,0.0,0.0,0.0,0.0,0.0,0.0,0.0,0.0,0.0,0.0,0.0,0.0,0.0,0.0,0.0,0.0,0.0,0.0,0.0,0.0,0.0,0.0,0.0,0.0,0.0,0.0,0.0,0.0,0.0,0.0,0.0,0.0,0.0,0.0,0.0,0.0,0.0,0.0,0.0,0.0,0.0,0.0,0.0,0.0,0.0,0.0,0.0,0.0,0.0,0.0,0.0,0.0,0.0,0.0,0.0,0.0,0.0,0.0,0.0,0.0,0.0,0.0,0.0,0.0,0.0,0.0,0.0,0.0,0.0,0.0,0.0,0.0,0.0,0.0,0.0,0.0,0.0,0.0,0.0,0.0,0.0,0.0,0.0,0.0,0.0,0.0,0.0,0.0,0.0,0.0,0.0,0.0,0.0,0.0,0.0,0.0,0.0,0.0,0.0,0.0,0.0,0.0,0.0,0.0,0.0,0.0,0.0,0.0,0.0,0.0,0.0,0.0,0.0,0.0,0.0,0.0,0.0,0.0,0.0,0.0,0.0,0.0,0.0,0.0,0.0,0.0,0.0,0.0,0.0,0.0,0.0,0.0,0.0,0.0,0.0,0.0,0.0,0.0,0.0,0.0,0.0,0.0,0.0,0.0,0.0,0.0,0.0,0.0,0.0,0.0,0.0,0.0,0.0,0.0,0.0,0.0,0.0,0.0,0.0,0.0,0.0,0.0,0.0,0.0,0.0,0.0,0.0,0.0,0.0,0.0,0.0,0.0,0.0,0.0,0.0,0.0,0.0,0.0,0.0,0.0,0.0,0.0,0.0,0.0,0.0,0.0,0.0,0.0,0.0,0.0,0.0,0.0,0.0,0.0,0.0,0.0,0.0,0.0,0.0,0.0,0.0,0.0,0.0,0.0,0.0,0.0,0.0,0.0,0.0,0.0,0.0,0.0,0.0,0.0,0.0,0.0,0.0,0.0,0.0,0.0,0.0,0.0,0.0,0.0]}],[{"header":{"parameterUnit":"kt","parameterCategory":2,"dx":1,"dy":1,"la1":29.587661999999998,"la2":31.0,"lo1":-88.76705300000003,"lo2":-86.6583820000003,"nx":115,"ny":88,"refTime":"2022-10-21T06:00:00:Z","depth":0,"parameterNumber":2,"parameterNumberName":"V-component_of_WINDS"},"data":[3.419,3.419,3.419,3.4292,3.4675,3.7073,3.934,4.1692,4.4662,4.7147,4.8635,4.9129,4.9641,4.9925,4.9925,4.9679,4.9052,4.8235,4.7305,4.6432,4.6094,4.6492,4.7767,4.9637,5.3048,5.5558,5.7258,5.766,5.7886,5.7886,5.7886,5.7886,5.7886,5.866,6.0345,6.1773,6.3425,6.5249,6.6951,6.8484,6.7853,6.7502,6.5903,6.4507,6.3082,6.2881,6.3297,6.5178,6.626,6.7288,6.8212,6.9025,6.9791,7.0878,7.2686,7.4604,7.614,7.7415,7.9025,8.1031,8.2536,8.3684,8.4483,8.4516,8.4516,8.4516,8.4516,8.4516,8.4516,8.4516,8.4614,8.505,8.5436,8.587,8.6201,8.6794,8.7623,8.8195,8.8577,8.8629,8.8629,8.8629,8.8629,8.8629,8.8629,8.8629,8.8629,8.8629,8.8629,8.8629,8.8629,8.8781,8.8906,8.8945,8.9045,8.9102,8.9194,8.947,8.9685,8.9807,8.9941,8.9979,8.9979,8.9979,8.9979,8.9979,8.9865,8.9763,8.9514,8.9307,8.9131,8.8955,8.8749,8.8629,8.8629,3.4074,3.419,3.419,3.419,3.4586,3.6972,3.8354,3.9425,4.3769,4.6149,4.6342,4.6552,4.8045,4.9224,4.9925,4.9849,4.947,4.8691,4.7989,4.7191,4.6356,4.6113,4.6732,4.7789,5.0469,5.3149,5.6042,5.7158,5.7886,5.7886,5.7886,5.7886,5.7986,5.8061,5.871,6.0153,6.1941,6.3728,6.5878,6.737,6.8206,6.8637,6.6979,6.5728,6.4594,6.3489,6.2952,6.3651,6.5178,6.6356,6.7677,6.8605,6.9616,7.0427,7.2189,7.3588,7.5127,7.6397,7.7952,8.0049,8.1716,8.2916,8.4001,8.4519,8.4516,8.4516,8.4516,8.4516,8.4516,8.4516,8.4516,8.4743,8.5086,8.5442,8.5728,8.6083,8.7174,8.8176,8.8397,8.8629,8.8629,8.8629,8.8629,8.8629,8.8629,8.8629,8.8629,8.8629,8.8629,8.8629,8.8629,8.8696,8.8788,8.8901,8.8995,8.9058,8.9102,8.9367,8.9525,8.9744,8.9903,8.9941,8.9979,8.9979,8.9979,8.9979,8.9903,8.9827,8.9562,8.9307,8.9163,8.8996,8.8789,8.8629,8.8629,3.1853,3.2071,3.3536,3.419,3.4381,3.5376,3.677,3.8354,4.052,4.1609,4.1905,4.4662,4.6631,4.753,4.9414,4.9887,4.9736,4.9109,4.8368,4.7495,4.6565,4.5843,4.6192,4.7311,4.9189,5.1617,5.466,5.683,5.7735,5.7886,5.7886,5.7886,5.7886,5.7986,5.8261,5.9668,6.1184,6.2011,6.4913,6.6369,6.7053,6.7549,6.7008,6.6223,6.5059,6.3751,6.3176,6.3537,6.4325,6.5008,6.6723,6.7998,6.9221,6.9956,7.1019,7.2433,7.388,7.5129,7.6824,7.9079,8.1635,8.2692,8.3755,8.4485,8.4519,8.4516,8.4516,8.4516,8.4516,8.4516,8.4516,8.4516,8.484,8.4996,8.5211,8.5328,8.6028,8.731,8.8195,8.8415,8.8612,8.8612,8.8629,8.8629,8.8629,8.8629,8.8629,8.8629,8.8629,8.8629,8.8629,8.8658,8.867,8.8765,8.8848,8.8939,8.9046,8.9163,8.9329,8.9536,8.9751,8.9865,8.9979,8.9979,8.9979,8.9979,8.9979,8.9941,8.9703,8.9374,8.9205,8.9044,8.8811,8.8629,8.8629,2.9346,3.0176,3.2277,3.3651,3.4177,3.419,3.5478,3.716,3.716,3.765,3.8755,4.2102,4.4354,4.5341,4.753,4.8635,4.9055,4.8739,4.8485,4.7837,4.702,4.628,4.5893,4.6609,4.8347,5.0712,5.289,5.4893,5.6501,5.756,5.7886,5.7886,5.7886,5.7886,5.8036,5.8883,6.0226,6.1086,6.3148,6.4343,6.549,6.6117,6.6998,6.6543,6.6223,6.4971,6.3427,6.366,6.3628,6.3554,6.5477,6.7054,6.8649,6.9068,7.0021,7.1414,7.3025,7.434,7.6134,7.8589,8.081,8.212,8.3177,8.3966,8.4485,8.4516,8.4516,8.4516,8.4516,8.4516,8.4516,8.4516,8.4583,8.4583,8.465,8.4617,8.4647,8.6191,8.7769,8.8195,8.8488,8.8594,8.8612,8.8629,8.8629,8.8629,8.8629,8.8629,8.8629,8.8629,8.8629,8.8629,8.8629,8.8629,8.8662,8.8734,8.8883,8.9058,8.9186,8.9398,8.96,8.9789,8.9979,8.9979,8.9979,8.9979,8.9979,8.9979,8.9847,8.9487,8.9266,8.912,8.8891,8.8707,8.8641,2.7564,2.9761,3.0176,3.1853,3.3972,3.4177,3.4381,3.4471,3.4777,3.5885,3.7765,3.8654,4.0504,4.2774,4.5649,4.6841,4.7344,4.8943,4.9241,4.8596,4.7704,4.6812,4.6014,4.573,4.7261,4.882,5.0771,5.3026,5.4947,5.683,5.7886,5.7886,5.7886,5.7886,5.7886,5.8461,5.9129,6.0128,6.1301,6.2451,6.3715,6.5229,6.6465,6.701,6.7124,6.6804,6.4274,6.337,6.3647,6.346,6.4047,6.5109,6.6865,6.8245,6.9778,7.1204,7.2531,7.3847,7.5664,7.7893,7.9796,8.1245,8.2423,8.3467,8.4072,8.4245,8.4415,8.4483,8.4516,8.4516,8.4516,8.4516,8.4516,8.4516,8.4516,8.4516,8.468,8.5502,8.6903,8.7723,8.8062,8.8612,8.8629,8.8629,8.8629,8.8629,8.8629,8.8629,8.8629,8.8629,8.8629,8.8629,8.8629,8.8629,8.8629,8.8695,8.8796,8.8955,8.9098,8.9315,8.9574,8.9789,8.9979,8.9979,8.9979,8.9979,8.9979,8.9979,8.9894,8.9572,8.9338,8.9186,8.902,8.8834,8.8718,2.389,2.5259,2.8502,3.0498,3.1853,3.3446,3.419,3.419,3.419,3.4675,3.5871,3.7362,3.864,4.0306,4.3769,4.586,4.6035,4.8199,4.9321,4.8696,4.8349,4.74,4.6584,4.6055,4.6649,4.7828,4.9474,5.1253,5.4536,5.6654,5.791,5.791,5.7886,5.7886,5.7886,5.7961,5.8461,5.9129,6.0055,6.0943,6.2591,6.456,6.5721,6.6423,6.6263,6.584,6.4449,6.2501,6.2291,6.2064,6.316,6.3995,6.4736,6.696,6.8686,7.0109,7.1599,7.3123,7.4625,7.6818,7.861,8.0215,8.1882,8.2879,8.3431,8.3754,8.4036,8.4381,8.4449,8.4516,8.4516,8.4516,8.4516,8.4516,8.4516,8.4516,8.484,8.5175,8.601,8.6964,8.7665,8.8307,8.8629,8.8629,8.8629,8.8629,8.8629,8.8629,8.8629,8.8629,8.8629,8.8629,8.8629,8.8629,8.8629,8.8662,8.8707,8.8766,8.9027,8.9299,8.9601,8.9789,8.9941,8.9979,8.9979,8.9979,8.9979,8.9979,8.9938,8.9644,8.9381,8.9258,8.9125,8.8931,8.8826,2.0851,2.2011,2.6727,2.9242,3.0187,3.2174,3.3548,3.4177,3.419,3.419,3.4279,3.6162,3.677,3.7362,4.1708,4.3182,4.4954,4.6752,4.7872,4.8495,4.8287,4.7689,4.6963,4.6368,4.658,4.7256,4.8182,4.9881,5.2687,5.5741,5.6906,5.776,5.7886,5.7886,5.7886,5.7886,5.7961,5.8362,5.9104,6.008,6.1444,6.359,6.5155,6.6322,6.6606,6.6101,6.5176,6.3431,6.2152,6.1626,6.2272,6.3107,6.3267,6.5059,6.7101,6.851,7.0458,7.1919,7.3228,7.5467,7.748,7.893,8.0631,8.1778,8.2268,8.2578,8.3394,8.3896,8.421,8.4449,8.4516,8.4516,8.4516,8.4516,8.4516,8.455,8.465,8.5028,8.5648,8.6543,8.7165,8.7806,8.8577,8.8629,8.8629,8.8629,8.8629,8.8629,8.8629,8.8629,8.8629,8.8629,8.8629,8.8629,8.8629,8.8629,8.8629,8.8653,8.8981,8.9299,8.9489,8.9713,8.9903,8.9979,8.9979,8.9979,8.9979,8.9979,8.9979,8.9703,8.9552,8.9381,8.9241,8.9091,8.8939,1.9067,2.1799,2.4733,2.7459,2.9657,3.0176,3.1853,3.419,3.419,3.419,3.419,3.4484,3.4879,3.5172,3.7362,3.894,4.0023,4.4176,4.5738,4.6729,4.7747,4.776,4.7221,4.666,4.6228,4.6192,4.6831,4.812,4.8902,5.2291,5.5511,5.7082,5.7636,5.7886,5.7886,5.7886,5.7886,5.7886,5.8436,5.9129,6.02,6.2337,6.407,6.5439,6.6409,6.6082,6.5438,6.4187,6.2879,6.2064,6.142,6.2162,6.2862,6.3449,6.5159,6.7216,6.9831,7.0958,7.2137,7.4321,7.6094,7.7122,7.871,7.9408,8.0229,8.1519,8.2307,8.2991,8.3755,8.4106,8.4516,8.4516,8.4516,8.4516,8.4516,8.455,8.455,8.4872,8.5454,8.6183,8.6831,8.7538,8.8343,8.8629,8.8629,8.8629,8.8629,8.8629,8.8629,8.8629,8.8629,8.8629,8.8629,8.8629,8.8629,8.8629,8.8629,8.8629,8.8945,8.9205,8.9376,8.9523,8.9789,8.9979,8.9979,8.9979,8.9979,8.9979,8.9941,8.9897,8.9753,8.9576,8.9374,8.9233,8.9033,1.818,1.9067,2.1905,2.4733,2.7355,2.9242,3.1555,3.3869,3.419,3.419,3.419,3.419,3.419,3.4981,3.6756,3.8052,3.8439,4.1987,4.3867,4.6097,4.6883,4.7212,4.7309,4.7096,4.6128,4.536,4.5863,4.6914,4.812,4.9778,5.245,5.5357,5.7133,5.7485,5.7811,5.7811,5.7886,5.7886,5.7886,5.8312,5.9277,6.0753,6.2521,6.3921,6.4763,6.5062,6.4674,6.3576,6.2065,6.1571,6.1279,6.1502,6.2053,6.2731,6.3839,6.5039,6.7262,6.9518,7.122,7.3406,7.4362,7.5144,7.6313,7.7748,7.9475,8.0281,8.1073,8.1996,8.2879,8.3286,8.3612,8.4449,8.4449,8.4552,8.4516,8.4516,8.455,8.4583,8.5091,8.6129,8.6904,8.7602,8.8288,8.8415,8.8612,8.8629,8.8629,8.8629,8.8629,8.8629,8.8629,8.8629,8.8629,8.8629,8.8629,8.8629,8.8629,8.8629,8.8845,8.912,8.9299,8.9476,8.9737,8.9941,8.9979,8.9979,8.9979,8.9865,8.9713,8.9637,8.9561,8.9485,8.9485,8.9315,8.9163,1.7629,1.7593,2.0326,2.2754,2.4628,2.7355,3.0187,3.2598,3.3754,3.419,3.419,3.419,3.419,3.4586,3.5972,3.6668,3.716,3.9624,4.2283,4.4514,4.5458,4.6265,4.6981,4.6982,4.6242,4.5226,4.497,4.5928,4.7228,4.8347,5.061,5.3183,5.538,5.6678,5.693,5.7735,5.7886,5.7886,5.7886,5.7961,5.8211,5.9741,6.1275,6.2328,6.366,6.4412,6.4719,6.3922,6.285,6.2152,6.1339,6.1337,6.1529,6.1862,6.2839,6.3891,6.524,6.7707,6.9686,7.1869,7.2814,7.363,7.4776,7.6736,7.812,7.8776,7.9755,8.0693,8.1722,8.2233,8.2613,8.3432,8.3966,8.4071,8.4415,8.4449,8.455,8.4583,8.4905,8.5906,8.6706,8.7384,8.8023,8.8288,8.8523,8.8629,8.8629,8.8629,8.8629,8.8629,8.8629,8.8629,8.8629,8.8629,8.8629,8.8629,8.8629,8.8604,8.8788,8.8857,8.912,8.9443,8.9675,8.9941,8.9979,8.9979,8.9979,8.9941,8.9599,8.9029,8.8764,8.8612,8.8422,8.8358,8.8364,1.7655,1.7714,2.0227,2.1481,2.2224,2.4742,2.7564,3.0486,3.301,3.419,3.419,3.419,3.419,3.4292,3.4484,3.4879,3.5478,3.7059,3.9525,4.199,4.3625,4.549,4.6342,4.6704,4.6166,4.5169,4.497,4.497,4.531,4.6747,4.8943,5.1457,5.3442,5.4792,5.4947,5.683,5.7886,5.7886,5.7886,5.7886,5.8237,5.9374,6.0345,6.1482,6.2931,6.3982,6.4314,6.3918,6.3369,6.2763,6.2007,6.1513,6.1281,6.1447,6.2027,6.3053,6.445,6.5902,6.7323,6.9883,7.1266,7.1993,7.3584,7.5435,7.6317,7.7735,7.9183,7.9497,8.0522,8.1114,8.1601,8.2194,8.2803,8.3286,8.3931,8.4244,8.4449,8.455,8.5001,8.5714,8.6345,8.6916,8.7516,8.8099,8.8361,8.8594,8.8612,8.8629,8.8629,8.8629,8.8629,8.8629,8.8629,8.8629,8.8629,8.8629,8.8513,8.8595,8.8474,8.8173,8.8288,8.9123,8.9675,8.9941,8.9789,8.9409,8.9599,8.9713,8.827,8.6941,8.7131,8.7359,8.7207,8.6989,8.6577,1.7932,1.7764,1.8307,1.9701,2.1799,2.4637,2.7459,3.0176,3.2919,3.419,3.419,3.419,3.419,3.419,3.419,3.419,3.4484,3.5274,3.7146,3.9305,4.1701,4.3479,4.4919,4.5716,4.598,4.5151,4.4904,4.4904,4.497,4.5525,4.7228,4.9271,5.1275,5.3183,5.4536,5.673,5.7886,5.7886,5.7886,5.7886,5.7886,5.8586,5.9129,6.0748,6.0978,6.208,6.3547,6.3751,6.3368,6.3165,6.2763,6.2123,6.1571,6.1279,6.1502,6.2162,6.3183,6.4501,6.5885,6.7724,6.9296,7.0925,7.2584,7.3959,7.5322,7.6416,7.7701,7.8246,7.9327,8.0044,8.0132,8.1073,8.1877,8.2727,8.3396,8.4071,8.4279,8.455,8.5032,8.5394,8.5648,8.6065,8.6757,8.7494,8.7847,8.8251,8.8397,8.8629,8.8629,8.8629,8.8629,8.8629,8.8629,8.8629,8.8591,8.818,8.7843,8.7851,8.7487,8.7266,8.7438,8.8987,8.9675,8.9143,8.8764,8.8764,8.8118,8.7055,8.5954,8.4891,8.5271,8.5688,8.5575,8.568,8.5129,1.8275,1.789,1.7616,1.8491,2.0404,2.3124,2.5154,2.7251,3.0808,3.2586,3.2598,3.3754,3.419,3.419,3.419,3.419,3.419,3.419,3.5972,3.7994,3.9733,4.1685,4.3683,4.4945,4.5626,4.5481,4.5018,4.4904,4.4904,4.514,4.6012,4.7145,4.9189,5.1253,5.3419,5.5279,5.6906,5.7485,5.7886,5.7886,5.7886,5.7986,5.8461,5.9716,5.9052,6.0874,6.2486,6.2892,6.3294,6.3457,6.3312,6.2734,6.221,6.1513,6.1337,6.1473,6.2761,6.3734,6.4736,6.5867,6.7453,6.9588,7.1024,7.2248,7.363,7.5341,7.6328,7.7145,7.8213,7.8874,7.9073,7.9945,8.1065,8.2036,8.2879,8.3648,8.4107,8.4449,8.4844,8.4996,8.5205,8.5465,8.6201,8.6928,8.7472,8.7984,8.8343,8.8629,8.8629,8.8629,8.8629,8.8629,8.8629,8.8629,8.8516,8.7881,8.7207,8.6796,8.6347,8.568,8.5189,8.6934,8.7739,8.7739,8.7359,8.7093,8.622,8.4663,8.3562,8.2879,8.3069,8.379,8.4208,8.4436,8.4354,1.8354,1.7963,1.7943,1.791,1.8186,2.0572,2.1693,2.2851,2.7553,2.9646,3.0072,3.238,3.3754,3.4177,3.419,3.419,3.419,3.419,3.5478,3.6674,3.77,3.9962,4.189,4.325,4.3847,4.5142,4.5264,4.4923,4.4904,4.4904,4.4904,4.531,4.7727,4.9434,5.1435,5.3811,5.5842,5.6906,5.7811,5.7886,5.7886,5.7886,5.7961,5.8436,5.9521,6.0583,6.0794,6.2499,6.3594,6.4159,6.3453,6.2789,6.2647,6.1833,6.1281,6.1391,6.2327,6.2839,6.3449,6.445,6.5737,6.7311,6.9158,7.1011,7.2268,7.4321,7.5538,7.6046,7.7079,7.7721,7.8292,7.8814,7.9901,8.0981,8.1957,8.2692,8.3214,8.379,8.4583,8.468,8.4933,8.5328,8.5963,8.667,8.7257,8.7703,8.808,8.8629,8.8629,8.8591,8.8591,8.8629,8.8629,8.8255,8.8125,8.7004,8.5583,8.4873,8.4985,8.4387,8.3244,8.3564,8.453,8.4663,8.4967,8.5081,8.4739,8.3145,8.1778,8.0943,8.0905,8.1892,8.2461,8.2613,8.2857,1.8598,1.844,1.8216,1.8103,1.809,2.0572,2.1489,2.1905,2.5364,2.6832,2.7564,2.9761,3.2277,3.3767,3.4177,3.419,3.419,3.419,3.4675,3.5654,3.6861,3.8223,3.9825,4.2367,4.3195,4.3241,4.4429,4.498,4.4923,4.4904,4.4904,4.5055,4.6914,4.8368,4.9962,5.2291,5.4614,5.5765,5.7006,5.7735,5.7886,5.7886,5.7886,5.8036,5.8436,5.9252,6.0439,6.1521,6.2864,6.3527,6.3244,6.2911,6.2936,6.2124,6.1455,6.1335,6.1529,6.1972,6.2351,6.3183,6.3839,6.5051,6.6699,6.9315,7.0946,7.1985,7.3136,7.5359,7.6148,7.6953,7.766,7.8117,7.9061,8.0078,8.1114,8.1525,8.2198,8.3613,8.4583,8.465,8.4811,8.5149,8.5597,8.6361,8.6952,8.7384,8.7944,8.8505,8.8591,8.8537,8.8574,8.8629,8.8105,8.7004,8.6518,8.5471,8.3863,8.3041,8.3601,8.3131,8.1435,8.122,8.2064,8.2139,8.2234,8.2613,8.3221,8.1588,8.0107,8.0221,8.0411,8.0753,8.0829,8.0677,8.097,1.8855,1.8815,1.8413,1.8136,1.8265,1.914,1.9693,2.0326,2.2745,2.4004,2.4532,2.6937,2.9761,3.2174,3.3856,3.4177,3.419,3.419,3.4177,3.4764,3.564,3.6775,3.8007,4.0595,4.283,4.3233,4.4455,4.5044,4.4942,4.4904,4.4904,4.5055,4.6096,4.7145,4.8738,5.0669,5.2586,5.4536,5.5765,5.6906,5.7636,5.7886,5.7886,5.7886,5.7886,5.8436,5.9399,6.008,6.1477,6.2239,6.3446,6.3159,6.2737,6.2387,6.1746,6.1397,6.1223,6.1223,6.1391,6.2653,6.329,6.3995,6.5302,6.7343,6.925,7.0802,7.2544,7.3959,7.4965,7.6017,7.6806,7.7578,7.8398,7.9452,8.0736,8.1197,8.1922,8.3433,8.4483,8.4516,8.4583,8.4713,8.4965,8.5677,8.6218,8.6401,8.6606,8.6915,8.7038,8.7095,8.7258,8.7982,8.7307,8.5828,8.4985,8.3901,8.2255,8.1844,8.2368,8.124,7.9593,7.9453,8.0414,8.0796,8.0824,8.0981,8.1246,8.0753,8.0335,8.0183,8.0107,8.0259,8.0449,8.0183,8.0335,1.8731,1.904,1.8512,1.8262,1.815,1.7771,1.7418,1.7808,2.0006,2.1063,2.1276,2.411,2.6623,2.9023,3.1762,3.3754,3.4177,3.419,3.419,3.419,3.4586,3.564,3.7506,3.9517,4.0846,4.2447,4.4418,4.518,4.4438,4.463,4.4904,4.4904,4.531,4.5798,4.7394,4.8676,5.0346,5.3554,5.4513,5.5842,5.7509,5.7886,5.7886,5.7886,5.7886,5.8036,5.8386,5.9326,6.0439,6.0925,6.2634,6.2901,6.2407,6.2597,6.2127,6.1403,6.1139,6.1223,6.1391,6.2217,6.2839,6.3077,6.4275,6.5558,6.7088,6.893,7.0847,7.1434,7.3814,7.5458,7.6115,7.7183,7.8208,7.9245,8.0088,8.0736,8.1519,8.2921,8.4106,8.4313,8.4516,8.4516,8.455,8.505,8.5409,8.5245,8.5136,8.5026,8.4886,8.4462,8.4433,8.6667,8.6851,8.4823,8.3601,8.2218,8.1096,8.0723,8.0236,7.928,7.889,7.907,7.9645,7.9885,7.9877,8.0032,8.0639,8.0829,8.0601,8.0639,8.0943,8.0715,8.0335,8.007,8.0107,1.6815,1.9066,1.873,1.8453,1.8202,1.7963,1.7583,1.7405,1.8009,1.8324,1.8531,2.1063,2.2745,2.4532,2.819,3.2071,3.419,3.4177,3.419,3.419,3.4292,3.4381,3.5518,3.692,3.8807,4.0593,4.2099,4.2743,4.2819,4.3843,4.463,4.4904,4.4904,4.531,4.5947,4.7208,4.9495,5.1915,5.3677,5.5688,5.7409,5.7886,5.7886,5.7886,5.7886,5.7886,5.7886,5.8511,5.9252,6.0065,6.0359,6.0146,6.0375,6.0746,6.0484,5.9763,6.06,6.1054,6.1279,6.1751,6.1917,6.1972,6.3023,6.3734,6.4941,6.6895,6.914,7.1299,7.3255,7.4537,7.5556,7.7052,7.797,7.8564,7.927,8.0185,8.1114,8.235,8.3576,8.4283,8.4449,8.455,8.4545,8.4884,8.4437,8.4256,8.3395,8.3282,8.1023,8.0837,8.2489,8.4945,8.5865,8.3781,8.233,8.1059,8.0162,7.9863,7.919,7.8719,7.8763,7.877,7.904,7.9366,7.9371,7.9627,8.0283,8.0715,8.1095,8.1474,8.1778,8.1778,8.1474,8.1208,8.0981,1.6212,1.8941,1.8796,1.8512,1.8209,1.803,1.7635,1.7398,1.7372,1.7372,1.7801,1.886,2.0219,2.2109,2.5049,2.8294,3.1659,3.333,3.419,3.419,3.419,3.419,3.4507,3.6576,3.7609,3.8067,3.8904,3.9848,4.1862,4.2906,4.3739,4.4526,4.4904,4.4904,4.5291,4.618,4.7727,4.9821,5.1995,5.4069,5.6072,5.7485,5.7811,5.7886,5.7886,5.7886,5.7886,5.7886,5.8436,5.9152,5.9496,5.9214,5.8831,5.8688,5.8518,5.8125,5.9131,6.0315,6.1054,6.1223,6.1223,6.1279,6.1862,6.2598,6.3682,6.514,6.7184,6.9468,7.1488,7.4044,7.48,7.6707,7.7742,7.8102,7.8888,7.9497,8.0078,8.1797,8.3188,8.4385,8.4496,8.455,8.4578,8.4063,8.3591,8.2765,8.1853,7.9712,7.7015,7.8057,7.9889,8.248,8.4709,8.3018,8.1866,8.0386,7.919,7.9093,7.8719,7.8719,7.8749,7.8749,7.8862,7.9034,7.9207,7.9402,8.0148,8.1317,8.1841,8.2309,8.2917,8.3259,8.2803,8.2385,8.2196,1.5378,1.8352,1.8609,1.8578,1.8301,1.8162,1.778,1.7369,1.7464,1.7424,1.7277,1.7372,1.8853,2.0432,2.117,2.411,2.8294,3.1647,3.3446,3.4177,3.419,3.419,3.4484,3.5951,3.6424,3.5911,3.6491,3.8016,4.0031,4.1616,4.2732,4.4032,4.463,4.4904,4.4904,4.5055,4.6348,4.8594,5.0124,5.2392,5.4614,5.6325,5.7158,5.7886,5.7886,5.7886,5.7886,5.7886,5.7886,5.8036,5.9374,5.8693,5.7374,5.713,5.7116,5.7056,5.819,5.9798,6.0941,6.1223,6.1223,6.1223,6.1335,6.1972,6.2892,6.4254,6.562,6.755,7.0101,7.2859,7.3603,7.6313,7.771,7.8102,7.8578,7.8874,7.8941,8.0761,8.3172,8.3834,8.4286,8.4514,8.4084,8.3611,8.2698,8.1625,8.0383,7.8092,7.6036,7.6727,7.8046,8.0327,8.2926,8.2076,8.1167,7.9523,7.8688,7.8688,7.8719,7.8719,7.8719,7.8719,7.877,7.8927,7.9117,7.9262,8.0359,8.1717,8.2537,8.3486,8.417,8.4815,8.4246,8.3638,8.3448,1.217,1.526,1.7848,1.8868,1.8631,1.8539,1.8216,1.7884,1.7837,1.7583,1.7411,1.7372,1.758,1.8431,2.0326,2.1693,2.4312,2.7877,3.1853,3.3536,3.3972,3.419,3.4279,3.4738,3.4798,3.4163,3.5468,3.6188,3.7725,3.9899,4.1792,4.2293,4.3824,4.48,4.4904,4.497,4.5863,4.7623,4.8676,5.061,5.3733,5.4924,5.6248,5.7309,5.7735,5.7886,5.7886,5.7886,5.7886,5.791,5.8186,5.7106,5.5987,5.6144,5.6915,5.6405,5.7592,5.9131,6.0372,6.0968,6.111,6.1223,6.1223,6.1447,6.1862,6.3023,6.4296,6.5857,6.7454,6.9939,7.3379,7.6082,7.7529,7.7989,7.8038,7.8102,7.8506,8.0586,8.2281,8.2985,8.3432,8.3851,8.3558,8.2447,8.1484,8.0374,7.879,7.7176,7.5967,7.5821,7.6638,7.8488,7.981,7.9563,7.9447,7.8328,7.8611,7.8658,7.8719,7.8719,7.8719,7.8719,7.8749,7.8859,7.899,7.9148,7.9893,8.1944,8.3562,8.4625,8.5347,8.5954,8.5612,8.4929,8.4094,0.991,1.4425,1.5981,1.7385,1.8588,1.8677,1.8433,1.8169,1.7977,1.7824,1.7589,1.7317,1.7372,1.7479,1.8753,2.0334,2.2011,2.4522,2.7762,3.1543,3.3651,3.419,3.419,3.424,3.4175,3.3989,3.4776,3.5398,3.6308,3.866,4.0703,4.1547,4.3739,4.4715,4.4904,4.4885,4.5629,4.6496,4.7561,4.9004,5.1392,5.3239,5.5333,5.5995,5.7233,5.7886,5.7886,5.7886,5.7886,5.7886,5.7861,5.691,5.5294,5.5364,5.5474,5.5186,5.5944,5.717,5.9044,5.9798,6.0372,6.111,6.1223,6.1223,6.1529,6.2514,6.3629,6.4347,6.5695,6.7932,7.2074,7.5141,7.7069,7.7677,7.794,7.7973,7.8346,8.0206,8.1904,8.2408,8.2395,8.2728,8.2244,8.0489,7.945,7.9058,7.7514,7.6371,7.5241,7.533,7.592,7.6478,7.7365,7.779,7.7834,7.8079,7.827,7.851,7.8642,7.8719,7.8719,7.8719,7.8719,7.8763,7.8827,7.9,7.9679,8.2481,8.4436,8.5347,8.6182,8.6941,8.7245,8.7131,8.6258,0.7765,1.2404,1.3832,1.5635,1.7607,1.8524,1.8565,1.8216,1.7985,1.7924,1.7662,1.7471,1.7378,1.7372,1.7587,1.8431,2.0334,2.1799,2.411,2.9242,3.2495,3.4074,3.419,3.419,3.4164,3.4162,3.3797,3.4281,3.5408,3.7145,3.8978,4.0758,4.266,4.4374,4.48,4.4904,4.4885,4.5225,4.6496,4.7623,4.9065,5.1472,5.3397,5.4924,5.6248,5.7233,5.7735,5.7886,5.7886,5.7886,5.7764,5.691,5.5128,5.4711,5.4554,5.4205,5.4107,5.4944,5.6906,5.8369,5.9595,6.0997,6.1223,6.1223,6.1335,6.2272,6.2892,6.3524,6.4306,6.6506,7.0127,7.3483,7.5534,7.671,7.7399,7.7973,7.8298,7.9932,8.0981,8.1121,8.076,8.0681,8.116,7.8982,7.8166,7.7524,7.6596,7.549,7.5241,7.5241,7.5629,7.6068,7.6638,7.6725,7.6934,7.7385,7.78,7.8221,7.8526,7.8719,7.8719,7.8719,7.8719,7.8719,7.8719,7.8923,7.9166,8.1715,8.3971,8.5573,8.6827,8.7245,8.7852,8.9143,8.884,0.5264,0.6338,1.2047,1.4534,1.5223,1.7724,1.8382,1.8188,1.8183,1.7906,1.753,1.7297,1.7372,1.7372,1.7372,1.7479,1.8009,2.0227,2.3265,2.6832,3.082,3.3972,3.3972,3.419,3.419,3.4164,3.4138,3.41,3.4412,3.5698,3.7302,3.9053,4.1005,4.283,4.4166,4.48,4.4885,4.497,4.546,4.6348,4.7872,4.8984,5.1071,5.3397,5.4637,5.5788,5.7158,5.7886,5.7886,5.7886,5.7886,5.6763,5.5031,5.464,5.4323,5.3802,5.3657,5.3953,5.5143,5.7203,5.9334,6.0828,6.1166,6.1223,6.1279,6.1502,6.2137,6.3053,6.3449,6.4927,6.7816,7.1476,7.3593,7.4871,7.648,7.7628,7.8346,7.9886,8.0345,7.8354,7.9572,7.9544,7.9026,7.8083,7.7453,7.681,7.6168,7.5383,7.5241,7.5241,7.5448,7.5779,7.5792,7.5796,7.6255,7.6801,7.7443,7.8061,7.8445,7.8719,7.8719,7.8719,7.8719,7.8719,7.8719,7.8855,7.919,8.0537,8.26,8.4486,8.6583,8.7245,8.7739,8.8991,8.9485,0.3114,0.5145,0.7765,0.991,1.1933,1.5028,1.6021,1.6074,1.7395,1.7991,1.7649,1.7457,1.7372,1.7372,1.7372,1.7372,1.7378,1.8538,2.0752,2.3793,2.7564,3.113,3.3651,3.419,3.419,3.419,3.4177,3.3966,3.3871,3.5524,3.6426,3.7355,4.0183,4.2126,4.3052,4.4081,4.4904,4.4904,4.497,4.5206,4.6348,4.7541,4.9392,5.0507,5.2313,5.3834,5.5865,5.7233,5.7886,5.7886,5.7788,5.691,5.4933,5.464,5.3894,5.2523,5.2472,5.2537,5.323,5.4755,5.7472,6.0257,6.0257,6.0429,6.0997,6.1223,6.1335,6.2137,6.2137,6.3161,6.5083,6.7368,7.0296,7.2878,7.3358,7.333,7.4162,7.7316,7.799,7.694,7.6621,7.6833,7.7061,7.6524,7.626,7.6097,7.5633,7.5419,7.5241,7.5241,7.53,7.5389,7.5412,7.5676,7.609,7.6698,7.7317,7.7912,7.8362,7.8688,7.8719,7.8719,7.8719,7.8719,7.8719,7.8882,7.9479,8.0425,8.1935,8.3531,8.597,8.7245,8.7852,8.8802,8.8764,0.1439,0.3592,0.4548,0.6218,0.86,1.1691,1.336,1.4095,1.617,1.715,1.7767,1.7497,1.7372,1.7372,1.7372,1.7372,1.7372,1.7372,1.8853,2.1587,2.3908,2.7564,3.1234,3.3343,3.419,3.419,3.4177,3.3956,3.378,3.5039,3.5786,3.5487,3.8688,4.0563,4.1599,4.3101,4.4166,4.48,4.4904,4.497,4.5225,4.658,4.7541,4.8182,4.9821,5.1595,5.3756,5.5865,5.6906,5.6349,5.6462,5.5929,5.4764,5.4299,5.3392,5.1962,5.1552,5.1552,5.1885,5.31,5.5696,5.9334,5.9247,5.9392,6.0543,6.0968,6.1223,6.1223,6.1223,6.178,6.2663,6.3844,6.6508,7.039,6.9408,6.8962,7.1279,7.4363,7.6199,7.4623,7.4246,7.4525,7.4821,7.4903,7.5044,7.5258,7.5276,7.5241,7.5241,7.5241,7.5241,7.5241,7.5265,7.5556,7.5969,7.6579,7.721,7.7836,7.8256,7.8627,7.8704,7.8704,7.8719,7.8719,7.8719,7.8719,7.9373,7.9945,8.0924,8.2027,8.4436,8.6713,8.7473,8.8004,8.7966,0.0,0.072,0.3473,0.4907,0.5503,0.8483,1.1126,1.34,1.387,1.546,1.7437,1.7497,1.7372,1.7372,1.7372,1.7372,1.7372,1.7372,1.8753,2.0744,2.2118,2.3591,2.7261,3.1659,3.3767,3.419,3.419,3.4138,3.411,3.4121,3.4375,3.5552,3.6137,3.7457,4.0409,4.1494,4.2825,4.4355,4.48,4.4885,4.497,4.5225,4.6012,4.7955,4.8285,4.9413,5.1515,5.3419,5.3756,5.2304,5.3314,5.4267,5.4381,5.364,5.283,5.1657,5.1486,5.1486,5.1819,5.2824,5.4691,5.6927,5.8071,5.8983,5.9392,6.0486,6.1223,6.1223,6.1223,6.1279,6.1362,6.1763,6.3012,6.5337,6.4969,6.5495,6.9163,7.1996,7.3058,7.2311,7.2454,7.2958,7.2852,7.3566,7.4257,7.4897,7.5241,7.5241,7.5241,7.5241,7.5241,7.5241,7.5241,7.5499,7.5923,7.6542,7.721,7.776,7.8221,7.851,7.8688,7.8704,7.8719,7.8719,7.8719,7.8719,7.8967,7.9354,8.0073,8.1346,8.3183,8.5309,8.6486,8.6979,8.7055,0.0,0.0,0.1319,0.1798,0.2157,0.5264,0.8174,1.0835,1.2611,1.5118,1.7334,1.7504,1.7372,1.7372,1.7372,1.7372,1.7372,1.7372,1.7902,1.896,2.0539,2.2011,2.3688,2.8919,3.2277,3.3856,3.419,3.419,3.4164,3.4058,3.4069,3.4545,3.5293,3.6408,3.7426,3.9969,4.1667,4.2721,4.4099,4.4904,4.4904,4.4904,4.5291,4.5947,4.6096,4.7228,4.925,5.0124,5.0205,5.0061,5.2453,5.4079,5.4524,5.3615,5.261,5.1754,5.1486,5.1486,5.1552,5.2126,5.3489,5.582,5.6927,5.768,5.8955,6.0315,6.1166,6.1223,6.1223,6.1223,6.1223,6.1223,6.124,6.169,6.1248,6.0593,6.0525,6.6143,6.9963,7.0571,7.0983,7.1687,7.2319,7.3115,7.4058,7.4958,7.5241,7.5241,7.5241,7.5241,7.5241,7.5241,7.5241,7.5507,7.5923,7.6518,7.7152,7.7625,7.8078,7.8341,7.8574,7.8642,7.8719,7.8719,7.8719,7.8719,7.8741,7.906,7.9545,8.0965,8.2461,8.4056,8.5271,8.5802,8.5688,0.0,0.0,0.0,0.0,0.0,0.2396,0.5116,0.7985,0.9654,1.2903,1.5978,1.6106,1.6499,1.7157,1.7372,1.7372,1.7372,1.7372,1.7372,1.7687,1.9281,2.0645,2.2321,2.6413,3.0176,3.2598,3.3754,3.419,3.419,3.4177,3.3992,3.3619,3.437,3.4915,3.5462,3.7819,4.0258,4.1303,4.2997,4.4251,4.4885,4.4904,4.4904,4.4904,4.4885,4.5525,4.7061,4.7145,4.7165,4.7228,5.0669,5.2977,5.3469,5.3336,5.2634,5.1657,5.1486,5.1486,5.1486,5.1619,5.2562,5.4273,5.5347,5.6376,5.7952,5.9537,6.06,6.1166,6.1223,6.1223,6.1223,6.1223,6.0755,5.9446,5.8899,5.7619,5.6147,6.1608,6.6761,6.8784,6.9822,7.0666,7.1621,7.2184,7.3115,7.4321,7.4707,7.4897,7.5115,7.5241,7.5241,7.5241,7.5294,7.5428,7.5808,7.6297,7.6838,7.7238,7.776,7.8151,7.8379,7.8494,7.8658,7.8719,7.8719,7.8734,7.8755,7.9053,7.9525,8.0581,8.1734,8.2803,8.3828,8.4056,8.3904,0.0,0.0,0.0,0.0,0.0,0.0,0.2037,0.4873,0.4974,0.8422,1.3118,1.342,1.4764,1.672,1.7157,1.7372,1.7372,1.7372,1.7372,1.7372,1.7587,1.8952,2.1276,2.4426,2.7355,2.9968,3.2701,3.4074,3.419,3.4164,3.393,3.3458,3.3082,3.3523,3.5084,3.5181,3.7009,4.0066,4.1476,4.2653,4.4526,4.4885,4.4904,4.4904,4.4904,4.497,4.5055,4.514,4.5225,4.5375,4.7374,4.9333,5.11,5.2184,5.2449,5.1614,5.1486,5.1486,5.1486,5.1486,5.1552,5.2233,5.3165,5.4781,5.6349,5.8099,5.9624,6.0742,6.111,6.1223,6.1223,6.1106,6.0467,5.9359,5.804,5.6504,5.5223,5.8393,6.3427,6.8041,6.9298,6.9695,7.0496,7.1106,7.1961,7.339,7.3892,7.419,7.4989,7.5241,7.5241,7.5241,7.5271,7.5428,7.5726,7.6017,7.6421,7.6861,7.7338,7.7836,7.8023,7.8078,7.8184,7.8719,7.8719,7.8719,7.8741,7.8892,7.9433,8.0436,8.1023,8.2082,8.2537,8.2689,8.2347,0.0,0.0,0.0,0.0,0.0,0.0,0.1798,0.465,0.4515,0.6613,1.0302,1.2335,1.346,1.4543,1.6499,1.7372,1.7372,1.7372,1.7372,1.7372,1.7372,1.7801,1.9059,2.1587,2.4426,2.7251,2.9968,3.238,3.3972,3.419,3.4175,3.394,3.2917,3.2746,3.3388,3.4084,3.4903,3.6936,3.9821,4.165,4.2549,4.4081,4.4904,4.4885,4.4904,4.4904,4.4904,4.4904,4.4904,4.5225,4.6978,4.7933,4.7526,4.904,5.0423,5.1334,5.1486,5.1486,5.1486,5.1486,5.1486,5.1552,5.293,5.3953,5.4717,5.7318,5.8896,5.9769,6.0486,6.1223,6.1077,6.038,5.9014,5.7178,5.6451,5.5542,5.4097,5.6766,6.1732,6.7275,6.8948,6.9619,7.0537,7.0699,7.1659,7.3424,7.3659,7.409,7.4958,7.5241,7.5241,7.5241,7.5241,7.5449,7.5753,7.568,7.5853,7.6193,7.659,7.7173,7.7505,7.7447,7.7667,7.8424,7.8719,7.8719,7.8749,7.8822,7.9627,8.0835,8.125,8.129,8.155,8.155,8.1246,0.0,0.0,0.0,0.0,0.0,0.0,0.1199,0.2985,0.278,0.4452,0.7367,0.9138,1.107,1.3136,1.498,1.629,1.7264,1.7372,1.7372,1.7372,1.7372,1.7372,1.7587,2.0219,2.2639,2.4742,2.819,3.144,3.3972,3.419,3.419,3.3995,3.3047,3.2476,3.2558,3.291,3.3573,3.4737,3.8148,4.0607,4.1563,4.372,4.446,4.372,4.4441,4.4904,4.4904,4.4904,4.4904,4.4904,4.6161,4.6651,4.614,4.6837,4.8308,5.0117,5.0453,5.0815,5.1352,5.1486,5.1486,5.1552,5.2472,5.3165,5.4081,5.5758,5.7379,5.8099,5.945,5.9714,5.9144,5.8257,5.7013,5.5395,5.5243,5.5113,5.4479,5.5974,5.9697,6.4891,6.7385,6.8445,6.9599,7.0166,7.0833,7.2297,7.2941,7.356,7.4385,7.5019,7.5241,7.5241,7.5241,7.5383,7.5735,7.5399,7.5288,7.5632,7.5975,7.6603,7.7034,7.6997,7.7608,7.8391,7.8688,7.8719,7.8719,7.8807,7.9091,8.0131,8.0291,8.0532,8.1318,8.0867,8.0449,0.0,0.0,0.0,0.0,0.0,0.0,0.0,0.0,0.0,0.1601,0.3979,0.4519,0.738,1.2263,1.2591,1.4435,1.6834,1.7157,1.7372,1.7372,1.7372,1.7372,1.7479,2.0014,2.1481,2.233,2.6613,3.0601,3.3651,3.4074,3.419,3.4112,3.3034,3.2476,3.232,3.144,3.1943,3.4027,3.6489,3.8678,4.0868,4.3206,4.3359,4.2013,4.3549,4.4715,4.4904,4.4904,4.4904,4.4904,4.4894,4.5462,4.6494,4.5758,4.6249,4.8021,4.8466,4.9453,5.0992,5.1419,5.1486,5.1486,5.1619,5.2192,5.3425,5.4043,5.4881,5.6103,5.7346,5.7041,5.5034,5.5059,5.477,5.367,5.4607,5.4801,5.3795,5.5829,5.8454,6.1437,6.4054,6.6331,6.8718,6.9123,6.9831,7.0793,7.1735,7.2763,7.3729,7.4641,7.5115,7.5241,7.5241,7.5241,7.5241,7.5241,7.5241,7.534,7.5688,7.609,7.6395,7.6805,7.7625,7.827,7.8558,7.8719,7.8719,7.885,7.904,7.9219,7.9424,7.9769,8.0522,8.0183,8.007,0.0,0.0,0.0,0.0,0.0,0.0,0.0,0.0,0.0,0.0458,0.1368,0.3419,0.5212,0.6838,0.9011,1.1507,1.4214,1.6391,1.7372,1.7372,1.7372,1.7372,1.7372,1.8217,1.9487,2.1489,2.3265,2.6403,3.0912,3.3022,3.419,3.4021,3.3034,3.2476,3.2359,3.1239,3.1038,3.1943,3.4089,3.5698,3.6489,3.8606,4.0345,4.139,4.2013,4.3169,4.48,4.4904,4.4904,4.4885,4.4317,4.3946,4.3851,4.4229,4.4418,4.4566,4.6956,4.8835,4.9316,5.0723,5.1486,5.1486,5.1486,5.1686,5.2233,5.323,5.4043,5.4409,5.3549,5.2456,5.0967,5.257,5.3323,5.2336,5.3295,5.4037,5.3795,5.5064,5.7531,6.0814,6.2984,6.4854,6.7259,6.8572,6.9514,7.0544,7.1617,7.2621,7.356,7.448,7.5211,7.5241,7.5241,7.5241,7.5241,7.5241,7.5241,7.5294,7.5324,7.5724,7.6306,7.6431,7.6952,7.8147,7.8542,7.8719,7.8719,7.8719,7.8827,7.894,7.9159,7.953,7.9989,8.007,8.007,-0.1199,0.0,0.0,0.0,0.0,0.0,0.0,0.0,0.0,0.0,0.0,0.1762,0.3152,0.4456,0.7386,1.0317,1.3136,1.5961,1.7372,1.7372,1.7372,1.7372,1.7372,1.7372,1.811,1.98,2.1063,2.3265,2.6727,3.0498,3.3125,3.3958,3.3034,3.2476,3.2385,3.1346,3.0761,3.0774,3.3118,3.3846,3.3286,3.5249,3.7632,3.9733,4.0851,4.2549,4.4611,4.4904,4.4734,4.4393,4.4021,4.3243,4.2085,4.257,4.2554,4.2,4.528,4.8097,4.9658,5.0882,5.1486,5.1486,5.1486,5.1486,5.1552,5.1852,5.2024,5.1471,5.0073,4.8789,4.8277,4.9706,5.0854,5.089,5.1942,5.3057,5.3552,5.4814,5.763,6.2126,6.2793,6.3737,6.6577,6.792,6.8849,6.9957,7.1026,7.1995,7.2976,7.3862,7.4578,7.5055,7.5241,7.5241,7.5241,7.5241,7.5241,7.5241,7.5241,7.5294,7.5779,7.5916,7.642,7.7931,7.8424,7.8704,7.8704,7.8719,7.8793,7.8953,7.9178,7.9452,7.9988,8.007,8.007,-0.3125,-0.0601,0.0,0.0,0.0,0.0,0.0,0.0,0.0,0.0,0.0,0.0,0.1524,0.402,0.6952,0.9772,1.2591,1.5524,1.7049,1.7264,1.7372,1.7372,1.7372,1.7372,1.7372,1.7694,1.9793,2.1268,2.2321,2.7136,3.1015,3.3408,3.2935,3.2437,3.2268,3.1213,3.0761,3.0774,3.2935,3.3027,3.0946,3.2949,3.5263,3.781,3.9996,4.229,4.48,4.4828,4.4431,4.385,4.3604,4.2825,4.1418,4.1193,4.0794,4.0261,4.3204,4.6792,5.0111,5.0963,5.1042,5.1241,5.1095,5.1095,5.1046,5.0142,4.9052,4.826,4.7209,4.661,4.6476,4.7083,4.808,4.9099,5.081,5.2055,5.3159,5.4816,5.8211,6.4355,6.292,6.2949,6.6167,6.7242,6.7875,6.9211,7.0291,7.1229,7.2036,7.287,7.3831,7.4707,7.5055,7.5055,7.5241,7.5241,7.5241,7.5241,7.5241,7.5265,7.5353,7.5463,7.5853,7.7667,7.8308,7.8589,7.8673,7.8719,7.8836,7.8965,7.9168,7.9439,7.9852,8.007,8.007,-0.4553,-0.3534,-0.1098,0.0,0.0,0.0,0.0,0.0,0.0,0.0,0.0,0.0,0.0327,0.1197,0.4021,0.6843,0.9772,1.2699,1.5195,1.7157,1.7372,1.7372,1.7372,1.7372,1.7372,1.7372,1.7902,1.9487,2.1799,2.5058,2.819,3.0703,3.1917,3.2255,3.1813,3.1125,3.0761,3.0761,3.1314,3.1314,3.0761,3.1222,3.353,3.7543,3.8397,4.0642,4.4592,4.4279,4.3945,4.3635,4.2441,4.1589,4.121,4.0642,4.0263,4.0091,4.0842,4.2343,4.457,4.6815,4.828,4.8924,4.8978,4.8978,4.8881,4.7954,4.7221,4.6953,4.5941,4.5332,4.546,4.6407,4.7363,4.7887,5.08,5.2248,5.1219,5.5216,5.9621,6.1522,6.2653,6.3548,6.5383,6.6644,6.7705,6.8959,7.0116,7.0787,7.119,7.2404,7.3357,7.3895,7.4061,7.4353,7.5085,7.5241,7.5241,7.5241,7.5241,7.5241,7.5294,7.5584,7.6445,7.7857,7.8273,7.8291,7.8642,7.8719,7.8763,7.8841,7.9106,7.9371,7.953,7.9802,8.007,-0.6468,-0.4699,-0.1363,0.0,0.0,0.0,0.0,0.0,0.0,0.0,0.0,0.0,0.0,0.0,0.3045,0.5214,0.6949,1.107,1.3891,1.5416,1.672,1.7372,1.7372,1.7372,1.7372,1.7372,1.7372,1.811,1.98,2.2542,2.5364,2.8054,3.0269,3.1531,3.1912,3.119,3.0761,3.0656,2.9995,2.9517,2.9606,2.9346,3.1411,3.5989,3.6716,3.8929,4.3035,4.2782,4.2176,4.1477,4.0527,4.0111,4.0016,3.9655,3.956,4.0015,4.0473,4.154,4.3284,4.5278,4.6962,4.8107,4.8208,4.7794,4.677,4.6161,4.5879,4.5771,4.5283,4.4893,4.4952,4.5624,4.6485,4.7164,5.0361,5.2053,5.1833,5.6086,5.977,6.1046,6.1917,6.3183,6.5109,6.592,6.7007,6.8904,6.9642,7.0216,7.0747,7.1578,7.2404,7.3288,7.3627,7.409,7.4989,7.5241,7.5241,7.5241,7.5241,7.5241,7.5235,7.5399,7.6345,7.7762,7.8005,7.8042,7.8627,7.8719,7.8719,7.8778,7.9042,7.9302,7.9348,7.9697,8.0032,-0.8903,-0.5639,-0.2136,-0.0503,0.0,0.0,0.0,0.0,0.0,0.0,0.0,0.0,0.0,0.0,0.261,0.3911,0.4563,0.9552,1.2263,0.0,1.5524,1.6942,1.7264,1.7372,1.7372,1.7372,1.7372,1.7372,1.758,2.0165,2.2764,2.5258,2.816,3.0324,3.1641,3.1106,3.0643,3.0619,2.9203,2.8417,2.858,2.8113,2.9734,3.3395,3.5008,3.7254,4.0253,4.0697,3.9997,3.8307,3.7966,3.7761,3.7761,3.7643,3.8136,3.9271,4.0126,4.1352,4.2896,4.3941,4.5336,4.6988,4.7544,4.6892,4.4918,4.4967,4.5088,4.4918,4.5113,4.5088,4.4942,4.5147,4.583,4.715,4.9725,5.2054,5.3498,5.6936,5.9726,6.105,6.1223,6.2297,6.445,6.5178,6.626,6.8303,6.9123,6.9557,7.0208,7.0503,7.1234,7.2621,7.3253,7.3895,7.4676,7.5085,7.5241,7.5241,7.5241,7.5241,7.5241,7.5265,7.5724,7.6974,7.7323,7.7799,7.8558,7.8719,7.8749,7.8827,7.9074,7.9311,7.9413,7.9749,8.007,-1.2446,-0.8767,-0.5727,-0.2659,0.0,0.0,0.0,0.0,0.0,0.0,0.0,0.0,0.0,0.0,0.0545,0.2067,0.4345,0.5322,0.8358,1.3028,1.3568,1.498,1.7264,1.7372,1.7372,1.7372,1.7372,1.7372,1.7365,1.9935,2.1551,2.2311,2.6219,2.8318,2.8699,3.0047,3.0449,3.0086,2.9775,2.9853,3.0203,3.0216,3.0539,3.1437,3.4071,3.5788,3.6594,3.8194,3.808,3.5764,3.4294,3.3555,3.3536,3.2954,3.3606,3.565,3.6082,3.6592,3.7504,3.8427,3.9956,4.2282,4.432,4.4942,4.3699,4.5318,4.6001,4.4967,4.5806,4.5977,4.5015,4.5722,4.6463,4.6728,4.9944,5.3121,5.5456,5.7716,5.96,6.091,6.1223,6.1888,6.3524,6.4685,6.592,6.7382,6.8527,6.9298,6.9428,6.9524,7.0083,7.1424,7.2184,7.2906,7.3829,7.4578,7.5175,7.5211,7.5241,7.5241,7.5241,7.5241,7.5353,7.5834,7.6469,7.7447,7.8441,7.8719,7.8822,7.8978,7.9197,7.9393,7.9567,7.9857,8.007,-1.4239,0.0,-0.8859,-0.5537,0.0,-0.2466,-0.2408,-0.2341,-0.0703,0.0,0.0,0.0,0.0,0.0,0.0,0.0762,0.2176,0.3587,0.5863,0.8679,1.161,1.3789,1.5201,1.6613,1.7192,1.7161,1.7306,1.712,1.6937,1.8366,1.9535,2.0695,2.2877,2.4737,2.6326,2.7869,2.8318,2.7779,2.8577,2.9203,2.9375,2.9116,2.9583,3.0678,0.0,0.0,0.0,0.0,0.0,0.0,0.0,0.0,0.0,0.0,0.0,3.2916,3.0714,2.9795,3.1033,3.1144,3.2831,3.652,3.859,3.9463,3.8931,4.2182,4.3488,4.1871,4.4162,4.5941,4.6502,4.7038,4.7465,4.7638,5.1125,5.3503,5.423,5.7532,6.0315,6.111,6.1223,6.1751,6.3183,6.4532,6.5822,6.7069,6.836,6.92,6.9233,6.9233,6.9384,7.0125,7.0953,7.2036,7.3321,7.419,7.4578,7.5115,7.5241,7.5241,7.5241,7.5241,7.5428,7.6031,7.6567,7.7307,7.8424,7.8719,7.8799,7.9063,7.9188,7.9426,7.9804,7.999,8.007,-1.5748,-1.484,-1.1783,-0.872,-0.572,-0.5707,-0.5466,-0.4576,-0.1393,0.0,0.0,0.0,0.0,0.0,0.0,0.0,0.0,0.237,0.3768,0.4412,0.9139,1.1937,1.3011,1.527,1.654,1.6877,1.7088,1.6963,1.659,1.6679,1.7644,1.9394,1.9902,2.1304,2.3722,0.0,0.0,0.0,2.6675,2.7795,2.797,2.8001,2.8566,2.9753,3.2463,0.0,3.5099,3.6921,3.7441,3.6618,3.5726,0.0,0.0,0.0,0.0,0.0,0.0,0.0,0.0,0.0,0.0,0.0,3.3145,3.4836,3.6026,3.9004,3.9778,3.7411,4.2072,4.5551,4.6307,4.7295,4.8027,4.8309,5.1861,5.3873,5.2909,5.7351,6.0912,6.1166,6.1223,6.1696,6.2839,6.4378,6.5724,6.6739,6.8225,6.9156,6.9233,6.9233,6.9233,6.9287,6.9949,7.1156,7.308,7.3559,7.4122,7.4928,7.5241,7.5241,7.5241,7.5294,7.5743,7.6734,7.7086,7.7525,7.8526,7.8719,7.8813,7.9057,7.9216,7.9496,7.9994,8.007,8.007,-1.7647,-1.4761,-1.4355,-1.2136,-0.8927,-0.8939,-0.7308,-0.4653,-0.1432,0.0,0.0,0.0,0.0,0.0,0.0,0.0,0.0,0.0417,0.1875,0.4264,0.4991,0.7995,1.2654,1.3072,1.4399,1.6548,1.6581,1.6561,1.6482,1.6284,1.6352,1.6755,1.8606,1.9632,1.9765,1.9432,1.9667,2.0567,2.4334,2.6609,2.7141,2.9161,2.9239,2.7202,2.9814,3.121,3.0847,3.3455,3.4356,3.3164,3.2408,3.2262,3.3035,3.09,2.9209,0.0,2.6791,0.0,0.0,0.0,0.0,0.0,0.0,0.0,0.0,3.8983,3.5876,3.1871,4.0608,4.461,4.0144,4.4049,4.716,4.8149,5.0839,5.3467,5.551,5.78,5.9682,6.1054,6.1223,6.1223,6.1555,6.3756,6.5278,6.5773,6.7516,6.8631,6.9003,6.8904,6.9079,6.9233,6.9298,7.0208,7.1927,7.308,7.3993,7.4928,7.5211,7.5241,7.5235,7.5576,7.6167,7.6884,7.7443,7.8024,7.8589,7.8719,7.8848,7.9216,7.9296,7.947,7.9956,8.007,8.007,-1.8742,-1.7368,-1.7222,-1.6175,-1.4385,-1.253,-1.0008,-0.699,-0.3732,-0.1505,0.0,0.0,0.0,0.0,0.0,0.0,0.0,0.0,0.0725,0.1967,0.3515,0.6399,1.0206,1.1847,1.3939,1.6271,1.6416,1.6323,1.6027,1.6053,1.5901,1.5675,1.6578,1.6552,1.5587,1.6006,1.7308,1.9409,2.2629,2.5822,2.8942,3.0103,2.9931,2.8476,3.0499,3.1887,3.2491,3.4641,3.5813,3.5931,3.6109,3.5841,3.5026,2.9647,2.7325,0.0,0.0,0.0,0.0,0.0,0.0,0.0,0.0,0.0,0.0,0.0,3.5415,0.0,4.1584,4.483,3.8215,4.1462,4.3878,4.378,4.351,4.5865,5.2119,5.3727,5.6121,6.0675,6.0583,6.0147,6.0173,6.1914,6.3672,6.5135,6.5559,6.4797,6.291,6.4953,6.7421,6.8962,6.9209,6.96,7.0381,7.1852,7.3288,7.4158,7.4831,7.5376,7.5807,7.5932,7.6433,7.7684,7.795,7.8149,7.878,7.8939,7.9046,7.9385,7.953,7.9674,7.9991,7.9988,7.9857,-1.9308,-1.923,-1.8326,-1.8103,-1.7912,-1.4436,-1.1901,-0.9908,-0.6727,-0.3733,-0.1004,-0.1001,-0.0653,0.0,0.0,0.0,0.0,0.0,0.0,0.0,0.2248,0.4692,0.7229,1.0172,1.2729,1.4979,1.5742,1.5921,1.5548,1.5651,1.5328,1.4695,1.4596,1.3897,1.2756,1.3759,1.5609,1.8139,2.0084,2.362,2.8676,2.9988,3.0307,2.9749,3.1283,3.2827,3.4286,3.5822,3.7352,3.8909,3.8649,3.7911,3.6757,3.0148,0.0,0.0,0.0,0.0,0.0,0.0,0.0,0.0,0.0,3.088,2.6508,0.0,3.1972,0.0,4.1169,4.3234,3.76,3.9174,0.0,0.0,3.7331,3.7349,4.1719,4.6538,5.2568,6.0295,5.933,5.7934,5.7934,5.9383,6.1338,6.3841,6.3114,6.1008,5.7451,6.0914,6.4861,6.7293,6.8527,6.9078,6.8959,7.034,7.2002,7.3449,7.4022,7.4697,7.5692,7.5884,7.649,7.8263,7.8419,7.8479,7.9046,7.9144,7.9285,7.9539,7.9608,7.9651,7.9869,7.9742,7.9609,-1.9007,-1.8895,-1.6231,-1.5717,-1.6434,-1.3196,-1.2262,-1.2738,-0.9674,-0.6779,-0.4007,-0.3947,-0.248,0.0,0.0,0.0,0.0,0.0,0.0,0.0,0.0197,0.1772,0.4321,0.6962,0.9503,1.2129,1.4012,1.5157,1.5476,1.4847,1.4029,1.3205,1.2922,1.2803,1.269,1.2961,1.3917,1.5438,1.5917,1.8637,2.3682,2.785,2.9736,2.9252,3.0641,3.2043,3.3664,3.4965,3.7016,3.9585,3.596,3.4393,3.5539,0.0,0.0,0.0,0.0,0.0,0.0,0.0,0.0,0.0,0.0,0.0,0.0,0.0,0.0,0.0,3.7143,0.0,3.7116,3.7265,0.0,0.0,0.0,3.0121,2.0889,3.5549,5.0152,6.0089,0.0,0.0,5.4136,0.0,5.8422,6.0857,6.1094,6.0152,5.7918,5.945,6.1681,6.3741,6.6951,6.8769,6.786,6.833,6.9926,7.2639,7.2504,7.2419,7.3983,7.4905,7.633,7.8269,7.8878,7.9072,7.921,7.922,7.9296,7.9296,7.9306,7.9337,7.9331,7.934,7.9281,-1.6805,-1.5489,-1.4267,-1.4082,-1.4455,-1.3108,-1.2135,-1.1605,-1.0497,-0.7667,-0.3801,-0.3911,-0.2509,0.0,0.0,0.0,0.0,0.0,0.0,0.0,0.0,0.1374,0.3873,0.501,0.7554,1.1407,1.2258,1.3479,1.5097,1.4761,1.2922,0.9737,0.0,0.0,0.9784,1.1735,1.3218,1.4141,1.6596,1.9625,2.303,2.6028,2.7932,2.8606,3.0376,3.1774,3.293,3.5595,3.6718,3.598,3.5546,3.4062,0.0,0.0,0.0,0.0,0.0,0.0,0.0,0.0,0.0,0.0,0.0,3.3653,0.0,0.0,0.0,0.0,2.766,2.5944,2.51,3.0261,0.0,0.0,0.0,0.0,0.0,0.0,0.0,5.3009,5.1778,5.0089,5.0377,5.2729,5.4515,5.4614,5.6234,5.6466,5.3762,0.0,5.7753,6.0572,6.6134,6.923,6.6876,6.5083,6.5114,6.8408,6.9835,7.1003,7.2068,7.4113,7.5981,7.7122,7.8187,7.8911,7.9152,7.8655,7.8252,7.8266,7.8275,7.8421,7.8771,7.8692,7.8748,-1.3864,0.0,0.0,0.0,0.0,-1.221,-1.1565,-1.068,-1.0725,-0.8268,-0.4139,-0.4019,0.0,0.0,0.0,0.0,0.0,0.0,0.0,0.0,0.0,0.0969,0.2753,0.3578,0.6044,1.0044,1.0595,1.1955,1.4003,1.3442,1.1115,0.7219,0.0,0.0,0.0,0.0,1.221,1.332,1.6524,1.9743,2.2835,2.4276,2.6023,2.8171,3.0396,3.2113,3.318,3.5274,3.5776,3.4247,3.307,0.0,0.0,0.0,0.0,0.0,0.0,0.0,0.0,0.0,0.0,0.0,0.0,0.0,0.0,0.0,0.0,0.0,0.0,0.0,1.9384,2.5225,2.7415,0.0,0.0,0.0,0.0,0.0,0.0,0.0,0.0,0.0,4.4815,4.8336,5.1533,0.0,0.0,5.5563,5.3076,5.4669,5.6906,5.8996,0.0,0.0,0.0,6.1476,6.0881,6.3773,6.7249,6.9251,6.8216,7.0383,7.2391,7.2511,7.5357,7.6997,7.5573,7.3617,7.2137,7.2275,7.2593,7.3079,7.3885,7.5233,7.628,0.0,0.0,0.0,0.0,0.0,0.0,0.0,0.0,-1.0693,-0.8551,0.0,-0.4596,0.0,0.0,0.0,0.0,0.0,0.0,0.0,0.0,0.0,0.0,0.0,0.2687,0.5018,0.7141,0.9063,1.0751,1.2124,1.0315,0.0,0.0,0.0,0.0,0.0,0.0,1.0634,1.2643,1.4483,1.7596,2.2193,2.245,2.4304,2.8073,3.093,3.3136,3.4719,3.3307,3.3735,3.6259,2.7514,0.0,0.0,0.0,0.0,0.0,0.0,0.0,0.0,0.0,0.0,0.0,0.0,0.0,0.0,0.0,0.0,0.0,0.0,0.0,0.0,2.3972,0.0,0.0,0.0,0.0,0.0,0.0,0.0,0.0,0.0,0.0,3.6772,4.2743,5.012,5.6344,0.0,0.0,0.0,0.0,6.0433,5.949,6.0469,6.0668,5.8677,5.8128,5.8461,6.0014,0.0,0.0,6.2275,6.2969,6.4093,6.3766,6.9853,7.3008,6.6776,6.2318,5.9748,5.9675,6.0907,6.1896,6.302,6.697,7.0895,0.0,0.0,0.0,0.0,0.0,0.0,0.0,0.0,0.0,-0.7052,0.0,-0.4071,0.0,0.0,0.0,0.0,0.0,0.0,0.0,0.0,0.0,0.0,0.0,0.0916,0.2867,0.0,0.6296,0.7486,0.0,0.0,0.0,0.0,0.0,0.0,0.0,0.0,1.0093,1.129,1.3634,1.7274,2.1878,2.2138,2.4003,2.8073,3.0475,3.1447,3.0938,3.1929,3.2298,0.0,0.0,0.0,0.0,0.0,0.0,0.0,0.0,0.0,0.0,0.0,0.0,0.0,0.0,0.0,0.0,0.0,0.0,0.0,0.0,0.0,0.0,0.0,2.4294,0.0,0.0,0.0,0.0,0.0,0.0,0.0,0.0,0.0,3.3543,4.3194,5.084,5.2074,5.4524,5.7446,6.0606,0.0,0.0,0.0,0.0,0.0,0.0,0.0,5.4564,5.6246,5.4341,5.3072,5.4715,5.6061,5.7396,5.887,0.0,0.0,5.3491,5.095,5.0675,5.0675,5.2581,5.4135,5.395,5.6226,5.8573,0.0,0.0,0.0,0.0,0.0,0.0,0.0,0.0,0.0,-0.4476,-0.2385,0.0,0.0,0.0,0.0,0.0,0.0,0.0,0.0,0.0,0.0,0.0,0.044,0.0717,0.0,0.0,0.0,0.0,0.0,0.0,0.0,0.0,0.0,0.0,0.0,0.0,0.9599,1.037,1.322,1.6991,2.1744,2.1922,2.4092,2.8344,3.0069,2.9975,2.8054,0.0,0.0,0.0,0.0,0.0,0.0,0.0,0.0,0.0,0.0,0.0,0.0,0.0,0.0,0.0,0.0,0.0,0.0,0.0,0.0,0.0,0.0,0.0,0.0,0.0,2.5139,0.0,0.0,0.0,0.0,0.0,0.0,0.0,0.0,0.0,0.0,0.0,4.524,4.7897,5.2081,5.6257,5.9958,6.28,6.4493,0.0,0.0,0.0,0.0,0.0,0.0,0.0,0.0,0.0,0.0,0.0,0.0,0.0,0.0,5.3794,4.341,4.0812,4.0198,4.0217,0.0,0.0,0.0,0.0,0.0,0.0,0.0,0.0,0.0,0.0,0.0,0.0,0.0,0.0,0.0,0.0,0.0,0.0,0.2406,0.0,0.0,0.0,0.0,0.0,0.0,0.0,0.0,0.0,0.0,0.0,0.0,0.0,0.0,0.0,0.0,0.0,0.0,0.0,0.0,0.0,0.0,0.9111,0.9871,1.2862,1.6858,2.1734,2.1942,2.4266,2.9021,2.9902,2.9147,2.6635,0.0,0.0,0.0,0.0,0.0,0.0,0.0,0.0,0.0,0.0,0.0,0.0,0.0,0.0,0.0,0.0,0.0,0.0,0.0,0.0,0.0,0.0,0.0,0.0,0.0,0.0,2.0145,2.5193,2.8729,0.0,0.0,0.0,0.0,0.0,0.0,0.0,0.0,0.0,0.0,5.1572,5.5855,5.6537,6.356,6.7598,6.4927,5.9471,5.6527,5.9549,5.9654,5.8339,0.0,0.0,0.0,0.0,0.0,0.0,0.0,0.0,0.0,0.0,0.0,0.0,0.0,0.0,0.0,0.0,0.0,0.0,0.0,0.0,0.0,0.0,0.0,0.0,0.0,0.0,0.0,0.0,0.0,0.0,0.0,0.0,0.0,0.0,0.0,0.0,0.0,0.0,0.0,0.0,0.0,0.0,0.0,0.0,0.0,0.0,0.0,0.0,0.0,0.0,0.0,0.0,0.0,0.0,0.8873,0.9116,1.2611,1.6843,2.1922,2.2308,2.5433,3.1301,3.2884,3.1978,0.0,0.0,0.0,0.0,0.0,0.0,0.0,0.0,0.0,0.0,0.0,0.0,0.0,0.0,0.0,0.0,0.0,0.0,0.0,0.0,0.0,0.0,0.0,0.0,0.0,0.0,0.0,0.0,3.4272,3.7328,4.1925,0.0,0.0,0.0,0.0,0.0,0.0,0.0,0.0,0.0,0.0,5.3251,5.7911,6.2732,6.5627,6.4909,6.5182,6.4949,6.3329,6.1995,5.9961,5.6574,0.0,0.0,0.0,0.0,0.0,0.0,0.0,0.0,0.0,0.0,0.0,0.0,0.0,0.0,0.0,0.0,0.0,0.0,0.0,0.0,0.0,0.0,0.0,0.0,0.0,0.0,0.0,0.0,0.0,0.0,0.0,0.0,0.0,0.0,0.0,0.0,0.0,0.0,0.0,0.0,0.0,0.0,0.0,0.0,0.0,0.0,0.0,0.0,0.0,0.0,0.0,0.0,0.0,0.8603,0.875,1.2336,1.6781,2.1968,2.2525,2.6121,3.3169,3.4095,3.2709,0.0,0.0,0.0,0.0,0.0,0.0,0.0,0.0,0.0,0.0,0.0,0.0,0.0,0.0,0.0,0.0,0.0,0.0,0.0,0.0,0.0,0.0,0.0,0.0,0.0,0.0,0.0,0.0,3.8059,4.4458,4.8976,0.0,0.0,0.0,0.0,0.0,0.0,0.0,0.0,0.0,0.0,4.866,5.1517,5.9162,0.0,0.0,6.4762,6.7095,6.5577,6.492,6.2388,5.5853,5.1801,0.0,0.0,0.0,0.0,0.0,0.0,0.0,0.0,0.0,0.0,0.0,0.0,0.0,0.0,0.0,0.0,0.0,0.0,0.0,0.0,0.0,0.0,0.0,0.0,0.0,0.0,0.0,0.0,0.0,0.0,0.0,0.0,0.0,0.0,0.0,0.0,0.0,0.0,0.0,0.0,0.0,0.0,0.0,0.0,0.0,0.0,0.0,0.0,0.0,0.0,0.0,0.0,0.0,0.8796,1.195,1.6601,2.2551,2.2978,2.6703,3.423,3.4304,3.2313,0.0,0.0,0.0,0.0,0.0,0.0,0.0,0.0,0.0,0.0,0.0,0.0,0.0,0.0,0.0,0.0,0.0,0.0,0.0,0.0,0.0,0.0,0.0,0.0,0.0,0.0,0.0,0.0,0.0,0.0,0.0,0.0,0.0,0.0,0.0,0.0,0.0,0.0,0.0,0.0,0.0,4.3306,4.1051,5.4041,6.1645,0.0,0.0,6.4267,6.5287,6.696,6.4521,5.3354,0.0,0.0,0.0,0.0,0.0,0.0,0.0,0.0,0.0,0.0,0.0,0.0,0.0,0.0,0.0,0.0,0.0,0.0,0.0,0.0,0.0,0.0,0.0,0.0,0.0,0.0,0.0,0.0,0.0,0.0,0.0,0.0,0.0,0.0,0.0,0.0,0.0,0.0,0.0,0.0,0.0,0.0,0.0,0.0,0.0,0.0,0.0,0.0,0.0,0.0,0.0,0.0,0.0,0.0,0.8056,1.0618,1.547,2.2712,2.4839,2.9089,3.5861,3.6869,0.0,0.0,0.0,0.0,0.0,0.0,0.0,0.0,0.0,0.0,0.0,0.0,0.0,0.0,0.0,0.0,0.0,0.0,0.0,0.0,0.0,0.0,0.0,0.0,0.0,0.0,0.0,0.628,0.0,0.0,0.0,0.0,0.0,0.0,0.0,0.0,0.0,0.0,0.0,0.0,0.0,0.0,4.5369,4.9242,5.4707,5.6385,0.0,0.0,6.1493,5.4519,5.8005,5.8876,0.0,0.0,0.0,0.0,0.0,0.0,0.0,0.0,0.0,0.0,0.0,0.0,0.0,0.0,0.0,0.0,0.0,0.0,0.0,0.0,0.0,0.0,0.0,0.0,0.0,0.0,0.0,0.0,0.0,0.0,0.0,0.0,0.0,0.0,0.0,0.0,0.0,0.0,0.0,0.0,0.0,0.0,0.0,0.0,0.0,0.0,0.0,0.0,0.0,0.0,0.0,0.0,0.0,0.0,0.5307,0.7726,0.9968,1.5004,2.2829,2.5548,3.0345,3.7788,3.8194,3.6614,0.0,0.0,0.0,0.0,0.0,0.0,0.0,0.0,0.0,0.0,0.0,0.0,0.0,0.0,0.0,0.0,0.0,0.0,0.0,0.0,0.0,0.0,0.0,0.0,0.0,0.0,0.0,0.0,0.0,0.0,0.0,0.0,0.0,0.0,0.0,0.0,0.0,0.0,0.0,0.0,0.0,0.0,4.5835,5.0821,0.0,0.0,0.0,5.5805,5.1482,0.0,0.0,0.0,0.0,0.0,0.0,0.0,0.0,0.0,0.0,0.0,0.0,0.0,0.0,0.0,0.0,0.0,0.0,0.0,0.0,0.0,0.0,0.0,0.0,0.0,0.0,0.0,0.0,0.0,0.0,0.0,0.0,0.0,0.0,0.0,0.0,0.0,0.0,0.0,0.0,0.0,0.0,0.0,0.0,0.0,0.0,0.0,0.0,0.0,0.0,0.0,0.0,0.0,0.0,0.0,0.0,0.0,0.7706,0.9594,1.4633,2.2757,2.5729,3.0982,3.901,3.9294,3.8032,0.0,0.0,0.0,0.0,0.0,0.0,0.0,0.0,0.0,0.0,0.0,0.0,0.0,0.0,0.0,0.0,0.0,0.0,0.0,0.0,0.0,0.0,0.0,0.0,0.0,0.0,0.0,0.0,0.0,0.0,0.0,0.0,0.0,0.0,0.0,0.0,0.0,0.0,0.0,0.0,0.0,4.1501,3.8109,4.4569,4.695,0.0,0.0,4.9211,5.1161,5.278,0.0,0.0,0.0,0.0,0.0,0.0,0.0,0.0,0.0,0.0,0.0,0.0,0.0,0.0,0.0,0.0,0.0,0.0,0.0,0.0,0.0,0.0,0.0,0.0,0.0,0.0,0.0,0.0,0.0,0.0,0.0,0.0,0.0,0.0,0.0,0.0,0.0,0.0,0.0,0.0,0.0,0.0,0.0,0.0,0.0,0.0,0.0,0.0,0.0,0.0,0.0,0.0,0.0,0.0,0.0,0.0,0.7283,0.8104,1.3102,2.2479,2.6619,3.1823,3.8285,4.2534,4.1532,0.0,0.0,0.0,0.0,0.0,0.0,0.0,0.0,0.0,0.0,0.0,0.0,0.0,0.0,0.0,0.0,0.0,0.0,0.0,0.0,0.0,0.0,0.0,0.0,0.0,0.0,0.0,0.0,0.0,0.0,0.0,0.0,0.0,0.0,0.0,0.0,0.0,0.0,0.0,0.0,0.0,3.8001,4.1387,3.9695,0.0,0.0,0.0,0.0,4.1782,4.0777,0.0,0.0,0.0,0.0,0.0,0.0,0.0,0.0,0.0,0.0,0.0,0.0,0.0,0.0,0.0,0.0,0.0,0.0,0.0,0.0,0.0,0.0,0.0,0.0,0.0,0.0,0.0,0.0,0.0,0.0,0.0,0.0,0.0,0.0,0.0,0.0,0.0,0.0,0.0,0.0,0.0,0.0,0.0,0.0,0.0,0.0,0.0,0.0,0.0,0.0,0.0,0.0,0.0,0.0,0.0,0.0,0.5586,0.7081,1.2122,2.0813,2.6398,3.2531,3.9418,4.3309,4.2305,0.0,0.0,0.0,0.0,0.0,0.0,0.0,0.0,0.0,0.0,0.0,0.0,0.0,0.0,0.0,0.0,0.0,0.0,0.0,0.0,0.0,0.0,0.0,0.0,0.0,0.0,0.0,0.0,0.0,0.0,0.0,0.0,0.0,0.0,0.0,0.0,0.0,0.0,0.0,0.0,3.547,3.7005,4.1502,0.0,0.0,0.0,0.0,0.0,0.0,3.6178,3.507,0.0,0.0,0.0,0.0,0.0,0.0,0.0,0.0,0.0,0.0,0.0,0.0,0.0,0.0,0.0,0.0,0.0,0.0,0.0,0.0,0.0,0.0,0.0,0.0,0.0,0.0,0.0,0.0,0.0,0.0,0.0,0.0,0.0,0.0,0.0,0.0,0.0,0.0,0.0,0.0,0.0,0.0,0.0,0.0,0.0,0.0,0.0,0.0,0.0,0.0,0.0,0.0,0.0,0.0,0.0,0.3747,0.6419,1.1385,1.8933,2.553,3.2737,4.0529,4.3418,4.2387,3.7473,0.0,0.0,0.0,0.0,0.0,0.0,0.0,0.0,0.0,0.0,0.0,0.0,0.0,0.0,0.0,0.0,0.0,0.0,0.0,0.0,0.0,0.0,0.0,0.0,0.0,0.0,0.0,0.0,0.0,0.0,0.0,0.0,0.0,0.0,0.0,0.0,0.0,0.0,0.0,3.3949,3.5722,0.0,0.0,0.0,0.0,0.0,0.0,0.0,0.0,3.2919,0.0,0.0,0.0,0.0,0.0,0.0,0.0,0.0,0.0,0.0,0.0,0.0,0.0,0.0,0.0,0.0,0.0,0.0,0.0,0.0,0.0,0.0,0.0,0.0,0.0,0.0,0.0,0.0,0.0,0.0,0.0,0.0,0.0,0.0,0.0,0.0,0.0,0.0,0.0,0.0,0.0,0.0,0.0,0.0,0.0,0.0,0.0,0.0,0.0,0.0,0.0,0.0,0.0,0.0,0.0,0.0,0.6158,1.0946,1.813,2.4381,3.1745,4.0042,4.429,4.3496,3.7434,0.0,0.0,0.0,0.0,0.0,0.0,0.0,0.0,0.0,0.0,0.0,0.0,0.0,0.0,0.0,0.0,0.0,0.0,0.0,0.0,0.0,0.0,0.0,0.0,0.0,0.0,0.0,0.0,0.0,0.0,0.0,0.0,0.0,0.0,0.0,0.0,0.0,0.0,2.3949,2.7145,0.0,0.0,0.0,0.0,0.0,0.0,0.0,0.0,3.1468,0.0,0.0,0.0,0.0,0.0,0.0,0.0,0.0,0.0,0.0,0.0,0.0,0.0,0.0,0.0,0.0,0.0,0.0,0.0,0.0,0.0,0.0,0.0,0.0,0.0,0.0,0.0,0.0,0.0,0.0,0.0,0.0,0.0,0.0,0.0,0.0,0.0,0.0,0.0,0.0,0.0,0.0,0.0,0.0,0.0,0.0,0.0,0.0,0.0,0.0,0.0,0.0,0.0,0.0,0.0,0.0,0.0,0.0,1.0247,1.6172,2.3583,3.1494,3.9725,4.1267,4.0193,0.0,0.0,0.0,0.0,0.0,0.0,0.0,0.0,0.0,0.0,0.0,0.0,0.0,0.0,0.0,0.0,0.0,0.0,0.0,0.0,0.0,0.0,0.0,0.0,0.0,0.0,0.0,0.0,0.0,0.0,0.0,0.0,0.0,0.0,0.0,0.0,0.0,0.0,0.0,0.0,0.0,0.0,0.0,0.0,0.0,0.0,0.0,0.0,0.0,0.0,0.0,0.0,0.0,0.0,0.0,0.0,0.0,0.0,0.0,0.0,0.0,0.0,0.0,0.0,0.0,0.0,0.0,0.0,0.0,0.0,0.0,0.0,0.0,0.0,0.0,0.0,0.0,0.0,0.0,0.0,0.0,0.0,0.0,0.0,0.0,0.0,0.0,0.0,0.0,0.0,0.0,0.0,0.0,0.0,0.0,0.0,0.0,0.0,0.0,0.0,0.0,0.0,0.0,0.0,0.0,0.0,0.0,0.0,0.9567,1.4422,2.2868,3.1383,3.9862,3.8425,3.7047,0.0,0.0,0.0,0.0,0.0,0.0,0.0,0.0,0.0,0.0,0.0,0.0,0.0,0.0,0.0,0.0,0.0,0.0,0.0,0.0,0.0,0.0,0.0,0.0,0.0,0.0,0.0,0.0,0.0,0.0,0.0,0.0,0.0,0.0,0.0,0.0,0.0,0.0,0.0,0.0,0.0,0.0,0.0,0.0,0.0,0.0,0.0,0.0,2.8987,0.0,0.0,0.0,0.0,0.0,0.0,0.0,0.0,0.0,0.0,0.0,0.0,0.0,0.0,0.0,0.0,0.0,0.0,0.0,0.0,0.0,0.0,0.0,0.0,0.0,0.0,0.0,0.0,0.0,0.0,0.0,0.0,0.0,0.0,0.0,0.0,0.0,0.0,0.0,0.0,0.0,0.0,0.0,0.0,0.0,0.0,0.0,0.0,0.0,0.0,0.0,0.0,0.0,0.0,0.0,0.0,0.0,0.0,0.0,0.9197,1.3665,2.2446,3.1033,3.9072,3.864,3.7159,0.0,0.0,0.0,0.0,0.0,0.0,0.0,0.0,0.0,0.0,0.0,0.0,0.0,0.0,0.0,0.0,0.0,0.0,0.0,0.0,0.0,0.0,0.0,0.0,0.0,0.0,0.0,0.0,0.0,0.0,0.0,0.0,0.0,0.0,0.0,0.0,0.0,0.0,0.0,0.0,0.0,0.0,0.0,0.0,0.0,0.0,0.0,0.0,0.0,0.0,0.0,0.0,0.0,0.0,0.0,0.0,0.0,0.0,0.0,0.0,0.0,0.0,0.0,0.0,0.0,0.0,0.0,0.0,0.0,0.0,0.0,0.0,0.0,0.0,0.0,0.0,0.0,0.0,0.0,0.0,0.0,0.0,0.0,0.0,0.0,0.0,0.0,0.0,0.0,0.0,0.0,0.0,0.0,0.0,0.0,0.0,0.0,0.0,0.0,0.0,0.0,0.0,0.0,0.0,0.0,0.0,0.0,0.0,0.8906,1.3574,2.2159,2.9869,3.6351,3.4366,3.3447,0.0,0.0,0.0,0.0,0.0,0.0,0.0,0.0,0.0,0.0,0.0,0.0,0.0,0.0,0.0,0.0,0.0,0.0,0.0,0.0,0.0,0.0,0.0,0.0,0.0,0.0,0.0,0.0,0.0,0.0,0.0,0.0,0.0,0.0,0.0,0.0,0.0,0.0,0.0,0.0,0.0,0.0,0.0,0.0,0.0,0.0,0.0,0.0,0.0,0.0,0.0,0.0,0.0,0.0,0.0,0.0,0.0,0.0,0.0,0.0,0.0,0.0,0.0,0.0,0.0,0.0,0.0,0.0,0.0,0.0,0.0,0.0,0.0,0.0,0.0,0.0,0.0,0.0,0.0,0.0,0.0,0.0,0.0,0.0,0.0,0.0,0.0,0.0,0.0,0.0,0.0,0.0,0.0,0.0,0.0,0.0,0.0,0.0,0.0,0.0,0.0,0.0,0.0,0.0,0.0,0.0,0.0,0.0,0.0,1.2913,2.2383,2.9409,3.3427,3.1151,3.0397,0.0,0.0,0.0,0.0,0.0,0.0,0.0,0.0,0.0,0.0,0.0,0.0,0.0,0.0,0.0,0.0,0.0,0.0,0.0,0.0,0.0,0.0,0.0,0.0,0.0,0.0,0.0,0.0,0.0,0.0,0.0,0.0,0.0,0.0,0.0,0.0,0.0,0.0,0.0,0.0,0.0,0.0,0.0,0.0,0.0,0.0,0.0,0.0,0.0,0.0,0.0,0.0,0.0,0.0,0.0,0.0,0.0,0.0,0.0,0.0,0.0,0.0,0.0,0.0,0.0,0.0,0.0,0.0,0.0,0.0,0.0,0.0,0.0,0.0,0.0,0.0,0.0,0.0,0.0,0.0,0.0,0.0,0.0,0.0,0.0,0.0,0.0,0.0,0.0,0.0,0.0,0.0,0.0,0.0,0.0,0.0,0.0,0.0,0.0,0.0,0.0,0.0,0.0,0.0,0.0,0.0,0.0,0.0,0.0,1.0461,2.3299,3.0558,3.1796,3.1089,2.9353,0.0,0.0,0.0,0.0,0.0,0.0,0.0,0.0,0.0,0.0,0.0,0.0,0.0,0.0,0.0,0.0,0.0,0.0,0.0,0.0,0.0,0.0,0.0,0.0,0.0,0.0,0.0,0.0,0.0,0.0,0.0,0.0,0.0,0.0,0.0,0.0,0.0,0.0,0.0,0.0,0.0,0.0,0.0,0.0,0.0,0.0,0.0,0.0,0.0,0.0,0.0,0.0,0.0,0.0,0.0,0.0,0.0,0.0,0.0,0.0,0.0,0.0,0.0,0.0,0.0,0.0,0.0,0.0,0.0,0.0,0.0,0.0,0.0,0.0,0.0,0.0,0.0,0.0,0.0,0.0,0.0,0.0,0.0,0.0,0.0,0.0,0.0,0.0,0.0,0.0,0.0,0.0,0.0,0.0,0.0,0.0,0.0,0.0,0.0,0.0,0.0,0.0,0.0,0.0,0.0,0.0,0.0,0.0,0.0,1.1611,2.0553,2.6519,2.9049,2.753,2.6968,2.7565,0.0,0.0,0.0,0.0,0.0,0.0,0.0,0.0,0.0,0.0,0.0,0.0,0.0,0.0,0.0,0.0,0.0,0.0,0.0,0.0,0.0,0.0,0.0,0.0,0.0,0.0,0.0,0.0,0.0,0.0,0.0,0.0,0.0,0.0,0.0,0.0,0.0,0.0,0.0,0.0,0.0,0.0,0.0,0.0,0.0,0.0,0.0,0.0,0.0,0.0,0.0,0.0,0.0,0.0,0.0,0.0,0.0,0.0,0.0,0.0,0.0,0.0,0.0,0.0,0.0,0.0,0.0,0.0,0.0,0.0,0.0,0.0,0.0,0.0,0.0,0.0,0.0,0.0,0.0,0.0,0.0,0.0,0.0,0.0,0.0,0.0,0.0,0.0,0.0,0.0,0.0,0.0,0.0,0.0,0.0,0.0,0.0,0.0,0.0,0.0,0.0,0.0,0.0,0.0,0.0,0.0,0.0,0.0,1.6302,2.2779,2.6902,2.8427,2.7116,2.641,0.0,0.0,0.0,0.0,0.0,0.0,0.0,0.0,0.0,0.0,0.0,0.0,0.0,0.0,0.0,0.0,0.0,0.0,0.0,0.0,0.0,0.0,0.0,0.0,0.0,0.0,0.0,0.0,0.0,0.0,0.0,0.0,0.0,0.0,0.0,0.0,0.0,0.0,0.0,0.0,0.0,0.0,0.0,0.0,0.0,0.0,0.0,0.0,0.0,0.0,0.0,0.0,0.0,0.0,0.0,0.0,0.0,0.0,0.0,0.0,0.0,0.0,0.0,0.0,0.0,0.0,0.0,0.0,0.0,0.0,0.0,0.0,0.0,0.0,0.0,0.0,0.0,0.0,0.0,0.0,0.0,0.0,0.0,0.0,0.0,0.0,0.0,0.0,0.0,0.0,0.0,0.0,0.0,0.0,0.0,0.0,0.0,0.0,0.0,0.0,0.0,0.0,0.0,0.0,0.0,0.0,0.0,0.0,1.3986,2.5301,3.0995,3.2589,3.0769,3.0812,2.8065,0.0,0.0,0.0,0.0,0.0,0.0,0.0,0.0,0.0,0.0,0.0,0.0,0.0,0.0,0.0,0.0,0.0,0.0,0.0,0.0,0.0,0.0,0.0,0.0,0.0,0.0,0.0,0.0,0.0,0.0,0.0,0.0,0.0,0.0,0.0,0.0,0.0,0.0,0.0,0.0,0.0,0.0,0.0,0.0,0.0,0.0,0.0,0.0,0.0,0.0,0.0,0.0,0.0,0.0,0.0,0.0,0.0,0.0,0.0,0.0,0.0,0.0,0.0,0.0,0.0,0.0,0.0,0.0,0.0,0.0,0.0,0.0,0.0,0.0,0.0,0.0,0.0,0.0,0.0,0.0,0.0,0.0,0.0,0.0,0.0,0.0,0.0,0.0,0.0,0.0,0.0,0.0,0.0,0.0,0.0,0.0,0.0,0.0,0.0,0.0,0.0,0.0,0.0,0.0,0.0,0.0,0.0,0.0,0.0,2.0708,0.0,3.0489,0.0,2.991,2.7997,0.0,0.0,0.0,0.0,0.0,0.0,0.0,0.0,0.0,0.0,0.0,0.0,0.0,0.0,0.0,0.0,0.0,0.0,0.0,0.0,0.0,0.0,0.0,0.0,0.0,0.0,0.0,0.0,0.0,0.0,0.0,0.0,0.0,0.0,0.0,0.0,0.0,0.0,0.0,0.0,0.0,0.0,0.0,0.0,0.0,0.0,0.0,0.0,0.0,0.0,0.0,0.0,0.0,0.0,0.0,0.0,0.0,0.0,0.0,0.0,0.0,0.0,0.0,0.0,0.0,0.0,0.0,0.0,0.0,0.0,0.0,0.0,0.0,0.0,0.0,0.0,0.0,0.0,0.0,0.0,0.0,0.0,0.0,0.0,0.0,0.0,0.0,0.0,0.0,0.0,0.0,0.0,0.0,0.0,0.0,0.0,0.0,0.0,0.0,0.0,0.0,0.0,0.0,0.0,0.0,0.0,0.0,0.0,0.0,2.3232,2.6399,2.9343,3.1713,2.9727,2.8243,0.0,0.0,0.0,0.0,0.0,0.0,0.0,0.0,0.0,0.0,0.0,0.0,0.0,0.0,0.0,0.0,0.0,0.0,0.0,0.0,0.0,0.0,0.0,0.0,0.0,0.0,0.0,0.0,0.0,0.0,0.0,0.0,0.0,0.0,0.0,0.0,0.0,0.0,0.0,0.0,0.0,0.0,0.0,0.0,0.0,0.0,0.0,0.0,0.0,0.0,0.0,0.0,0.0,0.0,0.0,0.0,0.0,0.0,0.0,0.0,0.0,0.0,0.0,0.0,0.0,0.0,0.0,0.0,0.0,0.0,0.0,0.0,0.0,0.0,0.0,0.0,0.0,0.0,0.0,0.0,0.0,0.0,0.0,0.0,0.0,0.0,0.0,0.0,0.0,0.0,0.0,0.0,0.0,0.0,0.0,0.0,0.0,0.0,0.0,0.0,0.0,0.0,0.0,0.0,0.0,0.0,0.0,0.0,0.0,0.0,2.958,2.9392,3.1268,3.0278,2.8746,0.0,0.0,0.0,0.0,0.0,0.0,0.0,0.0,0.0,0.0,0.0,0.0,0.0,0.0,0.0,0.0,0.0,0.0,0.0,0.0,0.0,0.0,0.0,0.0,0.0,0.0,0.0,0.0,0.0,0.0,0.0,0.0,0.0,0.0,0.0,0.0,0.0,0.0,0.0,0.0,0.0,0.0,0.0,0.0,0.0,0.0,0.0,0.0,0.0,0.0,0.0,0.0,0.0,0.0,0.0,0.0,0.0,0.0,0.0,0.0,0.0,0.0,0.0,0.0,0.0,0.0,0.0,0.0,0.0,0.0,0.0,0.0,0.0,0.0,0.0,0.0,0.0,0.0,0.0,0.0,0.0,0.0,0.0,0.0,0.0,0.0,0.0,0.0,0.0,0.0,0.0,0.0,0.0,0.0,0.0,0.0,0.0,0.0,0.0,0.0,0.0,0.0,0.0,0.0,0.0,0.0,0.0,0.0,0.0,0.0,2.6411,0.0,2.8096,2.8271,2.7864,2.6853,0.0,0.0,0.0,0.0,0.0,0.0,0.0,0.0,0.0,0.0,0.0,0.0,0.0,0.0,0.0,0.0,0.0,0.0,0.0,0.0,0.0,0.0,0.0,0.0,0.0,0.0,0.0,0.0,0.0,0.0,0.0,0.0,0.0,0.0,0.0,0.0,0.0,0.0,0.0,0.0,0.0,0.0,0.0,0.0,0.0,0.0,0.0,0.0,0.0,0.0,0.0,0.0,0.0,0.0,0.0,0.0,0.0,0.0,0.0,0.0,0.0,0.0,0.0,0.0,0.0,0.0,0.0,0.0,0.0,0.0,0.0,0.0,0.0,0.0,0.0,0.0,0.0,0.0,0.0,0.0,0.0,0.0,0.0,0.0,0.0,0.0,0.0,0.0,0.0,0.0,0.0,0.0,0.0,0.0,0.0,0.0,0.0,0.0,0.0,0.0,0.0,0.0,0.0,0.0,0.0,0.0,0.0,0.0,0.0,0.0,0.0,2.5691,2.608,2.6187,0.0,0.0,0.0,0.0,0.0,0.0,0.0,0.0,0.0,0.0,0.0,0.0,0.0,0.0,0.0,0.0,0.0,0.0,0.0,0.0,0.0,0.0,0.0,0.0,0.0,0.0,0.0,0.0,0.0,0.0,0.0,0.0,0.0,0.0,0.0,0.0,0.0,0.0,0.0,0.0,0.0,0.0,0.0,0.0,0.0,0.0,0.0,0.0,0.0,0.0,0.0,0.0,0.0,0.0,0.0,0.0,0.0,0.0,0.0,0.0,0.0,0.0,0.0,0.0,0.0,0.0,0.0,0.0,0.0,0.0,0.0,0.0,0.0,0.0,0.0,0.0,0.0,0.0,0.0,0.0,0.0,0.0,0.0,0.0,0.0,0.0,0.0,0.0,0.0,0.0,0.0,0.0,0.0,0.0,0.0,0.0,0.0,0.0,0.0,0.0,0.0,0.0,0.0,0.0,0.0,0.0,0.0,0.0,0.0,0.0,0.0,2.2514,2.3624,2.4015,0.0,2.4428,0.0,0.0,0.0,0.0,0.0,0.0,0.0,0.0,0.0,0.0,0.0,0.0,0.0,0.0,0.0,0.0,0.0,0.0,0.0,0.0,0.0,0.0,0.0,0.0,0.0,0.0,0.0,0.0,0.0,0.0,0.0,0.0,0.0,0.0,0.0,0.0,0.0,0.0,0.0,0.0,0.0,0.0,0.0,0.0,0.0,0.0,0.0,0.0,0.0,0.0,0.0,0.0,0.0,0.0,0.0,0.0,0.0,0.0,0.0,0.0,0.0,0.0,0.0,0.0,0.0,0.0,0.0,0.0,0.0,0.0,0.0,0.0,0.0,0.0,0.0,0.0,0.0,0.0,0.0,0.0,0.0,0.0,0.0,0.0,0.0,0.0,0.0,0.0,0.0,0.0,0.0,0.0,0.0,0.0,0.0,0.0,0.0,0.0,0.0,0.0,0.0,0.0,0.0,0.0,0.0,0.0,0.0,0.0,0.0,0.0,0.0,0.0,2.3267,2.3733,2.1433,0.0,0.0,0.0,0.0,0.0,0.0,0.0,0.0,0.0,0.0,0.0,0.0,0.0,0.0,0.0,0.0,0.0,0.0,0.0,0.0,0.0,0.0,0.0,0.0,0.0,0.0,0.0,0.0,0.0,0.0,0.0,0.0,0.0,0.0,0.0,0.0,0.0,0.0,0.0,0.0,0.0,0.0,0.0,0.0,0.0,0.0,0.0,0.0,0.0,0.0,0.0,0.0,0.0,0.0,0.0,0.0,0.0,0.0,0.0,0.0,0.0,0.0,0.0,0.0,0.0,0.0,0.0,0.0,0.0,0.0,0.0,0.0,0.0,0.0,0.0,0.0,0.0,0.0,0.0,0.0,0.0,0.0,0.0,0.0,0.0,0.0,0.0,0.0,0.0,0.0,0.0,0.0,0.0,0.0,0.0,0.0,0.0,0.0,0.0,0.0,0.0,0.0,0.0,0.0,0.0,0.0,0.0,0.0,0.0,0.0,2.0231,1.8388,2.099,2.1528,1.9454,0.0,0.0,0.0,0.0,0.0,0.0,0.0,0.0,0.0,0.0,0.0,0.0,0.0,0.0,0.0,0.0,0.0,0.0,0.0,0.0,0.0,0.0,0.0,0.0,0.0,0.0,0.0,0.0,0.0,0.0,0.0,0.0,0.0,0.0,0.0,0.0,0.0,0.0,0.0,0.0,0.0,0.0,0.0,0.0,0.0,0.0,0.0,0.0,0.0,0.0,0.0,0.0,0.0,0.0,0.0,0.0,0.0,0.0,0.0,0.0,0.0,0.0,0.0,0.0,0.0,0.0,0.0,0.0,0.0,0.0,0.0,0.0,0.0,0.0,0.0,0.0,0.0,0.0,0.0,0.0,0.0,0.0,0.0,0.0,0.0,0.0,0.0,0.0,0.0,0.0,0.0,0.0,0.0,0.0,0.0,0.0,0.0,0.0,0.0,0.0,0.0,0.0,0.0,0.0,0.0,0.0,0.0,0.0,0.0,0.0,0.0,0.0,0.0,0.0,1.8986,0.0,0.0,0.0,0.0,0.0,0.0,0.0,0.0,0.0,0.0,0.0,0.0,0.0,0.0,0.0,0.0,0.0,0.0,0.0,0.0,0.0,0.0,0.0,0.0,0.0,0.0,0.0,0.0,0.0,0.0,0.0,0.0,0.0,0.0,0.0,0.0,0.0,0.0,0.0,0.0,0.0,0.0,0.0,0.0,0.0,0.0,0.0,0.0,0.0,0.0,0.0,0.0,0.0,0.0,0.0,0.0,0.0,0.0,0.0,0.0,0.0,0.0,0.0,0.0,0.0,0.0,0.0,0.0,0.0,0.0,0.0,0.0,0.0,0.0,0.0,0.0,0.0,0.0,0.0,0.0,0.0,0.0,0.0,0.0,0.0,0.0,0.0,0.0,0.0,0.0,0.0,0.0,0.0,0.0,0.0,0.0,0.0,0.0,0.0,0.0,0.0,0.0,0.0,0.0,0.0,0.0,0.0,0.0,0.0,0.0,0.0,0.0,0.0,0.0,0.0,0.0,0.0,0.0,0.0,0.0,0.0,0.0,0.0,0.0,0.0,0.0,0.0,0.0,0.0,0.0,0.0,0.0,0.0,0.0,0.0,0.0,0.0,0.0,0.0,0.0,0.0,0.0,0.0,0.0,0.0,0.0,0.0,0.0,0.0,0.0,0.0,0.0,0.0,0.0,0.0,0.0,0.0,0.0,0.0,0.0,0.0,0.0,0.0,0.0,0.0,0.0,0.0,0.0,0.0,0.0,0.0,0.0,0.0,0.0,0.0,0.0,0.0,0.0,0.0,0.0,0.0,0.0,0.0,0.0,0.0,0.0,0.0,0.0,0.0,0.0,0.0,0.0,0.0,0.0,0.0,0.0,0.0,0.0,0.0,0.0,0.0,0.0,0.0,0.0,0.0,0.0,0.0,0.0,0.0,0.0,0.0,0.0,0.0,0.0,0.0,0.0,0.0,0.0,0.0,0.0,0.0,0.0,0.0,0.0,0.0,0.0,0.0,0.0,0.0,0.0,0.0,0.0,0.0,0.0,0.0,0.0,0.0,0.0,0.0,0.0,0.0,0.0,0.0,0.0,0.0,0.0,0.0,0.0,0.0,0.0,0.0,0.0,0.0,0.0,0.0,0.0,0.0,0.0,0.0,0.0,0.0,0.0,0.0,0.0,0.0,0.0,0.0,0.0,0.0,0.0,0.0,0.0,0.0,0.0,0.0,0.0,0.0,0.0,0.0,0.0,0.0,0.0,0.0,0.0,0.0,0.0,0.0,0.0,0.0,0.0,0.0,0.0,0.0,0.0,0.0,0.0,0.0,0.0,0.0,0.0,0.0,0.0,0.0,0.0,0.0,0.0,0.0,0.0,0.0,0.0,0.0,0.0,0.0,0.0,0.0,0.0,0.0,0.0,0.0,0.0,0.0,0.0,0.0,0.0,0.0,0.0,0.0,0.0,0.0,0.0,0.0,0.0,0.0,0.0,0.0,0.0,0.0,0.0,0.0,0.0,0.0,0.0,0.0,0.0,0.0,0.0,0.0,0.0,0.0,0.0,0.0,0.0,0.0,0.0,0.0,0.0,0.0,0.0,0.0,0.0,0.0,0.0,0.0,0.0,0.0,0.0,0.0,0.0,0.0,0.0,0.0,0.0,0.0,0.0,0.0,0.0,0.0,0.0,0.0,0.0,0.0,0.0,0.0,0.0,0.0,0.0,0.0,0.0,0.0,0.0,0.0,0.0,0.0,0.0,0.0,0.0,0.0,0.0,0.0,0.0,0.0,0.0,0.0,0.0,0.0,0.0,0.0,0.0,0.0,0.0,0.0,0.0,0.0,0.0,0.0,0.0,0.0,0.0,0.0,0.0,0.0,0.0,0.0,0.0,0.0,0.0,0.0,0.0,0.0,0.0,0.0,0.0,0.0,0.0,0.0,0.0,0.0,0.0,0.0,0.0,0.0,0.0,0.0,0.0,0.0,0.0,0.0,0.0,0.0,0.0,0.0,0.0,0.0,0.0,0.0,0.0,0.0,0.0,0.0,0.0,0.0,0.0,0.0,0.0,0.0,0.0,0.0,0.0,0.0,0.0,0.0,0.0,0.0,0.0,0.0,0.0,0.0,0.0,0.0,0.0,0.0,0.0,0.0,0.0,0.0,0.0,0.0,0.0,0.0,0.0,0.0,0.0,0.0,0.0,0.0,0.0,0.0,0.0,0.0,0.0,0.0,0.0,0.0,0.0,0.0,0.0,0.0,0.0,0.0,0.0,0.0,0.0,0.0,0.0,0.0,0.0,0.0,0.0,0.0,0.0,0.0,0.0,0.0,0.0,0.0,0.0,0.0,0.0,0.0,0.0,0.0,0.0,0.0,0.0,0.0,0.0,0.0,0.0,0.0,0.0,0.0,0.0,0.0,0.0,0.0,0.0,0.0,0.0,0.0,0.0,0.0,0.0,0.0,0.0,0.0,0.0,0.0,0.0,0.0,0.0,0.0,0.0,0.0,0.0,0.0,0.0,0.0,0.0,0.0,0.0,0.0,0.0,0.0,0.0,0.0,0.0,0.0,0.0,0.0,0.0,0.0,0.0,0.0,0.0,0.0,0.0,0.0,0.0,0.0,0.0,0.0,0.0,0.0,0.0,0.0,0.0,0.0,0.0,0.0,0.0,0.0,0.0,0.0,0.0,0.0,0.0,0.0,0.0,0.0,0.0,0.0,0.0,0.0,0.0,0.0,0.0,0.0,0.0,0.0,0.0,0.0,0.0,0.0,0.0,0.0,0.0,0.0,0.0,0.0,0.0,0.0,0.0,0.0,0.0,0.0,0.0,0.0,0.0,0.0,0.0,0.0,0.0,0.0,0.0,0.0,0.0,0.0,0.0,0.0,0.0,0.0,0.0,0.0,0.0,0.0,0.0,0.0,0.0,0.0,0.0,0.0,0.0,0.0,0.0,0.0,0.0,0.0,0.0,0.0,0.0,0.0,0.0,0.0,0.0,0.0,0.0,0.0,0.0,0.0,0.0,0.0,0.0,0.0,0.0,0.0,0.0,0.0,0.0,0.0,0.0,0.0,0.0,0.0,0.0,0.0,0.0,0.0,0.0,0.0,0.0,0.0,0.0,0.0,0.0,0.0,0.0,0.0,0.0,0.0,0.0,0.0,0.0,0.0,0.0,0.0,0.0,0.0,0.0,0.0,0.0,0.0,0.0,0.0,0.0,0.0,0.0,0.0,0.0,0.0,0.0,0.0,0.0,0.0,0.0,0.0,0.0,0.0,0.0,0.0,0.0,0.0,0.0,0.0,0.0,0.0,0.0,0.0,0.0,0.0,0.0,0.0,0.0,0.0,0.0,0.0,0.0,0.0,0.0,0.0,0.0,0.0,0.0,0.0,0.0,0.0,0.0,0.0,0.0,0.0,0.0,0.0,0.0,0.0,0.0,0.0,0.0,0.0,0.0,0.0,0.0,0.0,0.0,0.0,0.0,0.0,0.0,0.0,0.0,0.0,0.0,0.0,0.0,0.0,0.0,0.0,0.0,0.0,0.0,0.0,0.0,0.0,0.0,0.0,0.0,0.0,0.0,0.0,0.0,0.0,0.0,0.0,0.0,0.0,0.0,0.0,0.0,0.0,0.0,0.0,0.0,0.0,0.0,0.0,0.0,0.0,0.0,0.0,0.0,0.0,0.0,0.0,0.0,0.0,0.0,0.0,0.0,0.0,0.0,0.0,0.0,0.0,0.0,0.0,0.0,0.0,0.0,0.0,0.0,0.0,0.0,0.0,0.0,0.0,0.0,0.0,0.0,0.0,0.0,0.0,0.0,0.0,0.0,0.0,0.0,0.0,0.0,0.0,0.0,0.0,0.0,0.0,0.0,0.0,0.0,0.0,0.0,0.0,0.0,0.0,0.0,0.0,0.0,0.0,0.0,0.0,0.0,0.0,0.0,0.0,0.0,0.0,0.0,0.0,0.0,0.0,0.0,0.0,0.0,0.0,0.0,0.0,0.0,0.0,0.0,0.0,0.0,0.0,0.0,0.0,0.0,0.0,0.0,0.0,0.0,0.0,0.0,0.0,0.0,0.0,0.0,0.0,0.0,0.0,0.0,0.0,0.0,0.0,0.0,0.0,0.0,0.0,0.0,0.0,0.0,0.0,0.0,0.0,0.0,0.0,0.0,0.0,0.0,0.0,0.0,0.0,0.0,0.0,0.0,0.0,0.0,0.0,0.0,0.0,0.0,0.0,0.0,0.0,0.0,0.0,0.0,0.0,0.0,0.0,0.0,0.0,0.0,0.0,0.0,0.0,0.0,0.0,0.0,0.0,0.0,0.0,0.0,0.0,0.0,0.0,0.0,0.0,0.0,0.0,0.0,0.0,0.0,0.0,0.0]}]]]